<?xml version="1.0" encoding="UTF-8" standalone="no" ?>
<gpx xmlns="http://www.topografix.com/GPX/1/1" xmlns:xsi="http://www.w3.org/2001/XMLSchema-instance" xsi:schemaLocation="http://www.topografix.com/GPX/1/1 http://www.topografix.com/GPX/1/1/gpx.xsd" version="1.1" creator="VisuGPX - https://www.visugpx.com">
  <metadata>
    <name>Colpo - Kerhéro</name>
    <desc><![CDATA[Circuit découverte]]></desc>
  </metadata>
  <trk>
    <name><![CDATA[Tracé 22 août 2013 13:55:32]]></name>
    <trkseg>
      <trkpt lat="47.81795" lon="-2.81321">
        <ele>-49</ele>
        <time>2013-08-22T11:55:32Z</time>
      </trkpt>
      <trkpt lat="47.81795" lon="-2.81321">
        <ele>-49</ele>
        <time>2013-08-22T11:59:31Z</time>
      </trkpt>
      <trkpt lat="47.81775" lon="-2.81327">
        <ele>-49</ele>
        <time>2013-08-22T11:59:52Z</time>
      </trkpt>
      <trkpt lat="47.81772" lon="-2.81326">
        <ele>-49</ele>
        <time>2013-08-22T11:59:54Z</time>
      </trkpt>
      <trkpt lat="47.81711" lon="-2.81264">
        <ele>112</ele>
        <time>2013-08-22T12:00:01Z</time>
      </trkpt>
      <trkpt lat="47.81705" lon="-2.81258">
        <ele>110</ele>
        <time>2013-08-22T12:00:07Z</time>
      </trkpt>
      <trkpt lat="47.81693" lon="-2.81247">
        <ele>134</ele>
        <time>2013-08-22T12:00:12Z</time>
      </trkpt>
      <trkpt lat="47.81685" lon="-2.81251">
        <ele>125</ele>
        <time>2013-08-22T12:00:19Z</time>
      </trkpt>
      <trkpt lat="47.81677" lon="-2.81251">
        <ele>122</ele>
        <time>2013-08-22T12:00:27Z</time>
      </trkpt>
      <trkpt lat="47.81669" lon="-2.81249">
        <ele>122</ele>
        <time>2013-08-22T12:00:34Z</time>
      </trkpt>
      <trkpt lat="47.8166" lon="-2.81251">
        <ele>121</ele>
        <time>2013-08-22T12:00:40Z</time>
      </trkpt>
      <trkpt lat="47.81654" lon="-2.8126">
        <ele>121</ele>
        <time>2013-08-22T12:00:47Z</time>
      </trkpt>
      <trkpt lat="47.81654" lon="-2.81266">
        <ele>121</ele>
        <time>2013-08-22T12:00:51Z</time>
      </trkpt>
      <trkpt lat="47.81695" lon="-2.81364">
        <ele>21</ele>
        <time>2013-08-22T12:02:35Z</time>
      </trkpt>
      <trkpt lat="47.81689" lon="-2.81355">
        <ele>43</ele>
        <time>2013-08-22T12:02:42Z</time>
      </trkpt>
      <trkpt lat="47.81679" lon="-2.81344">
        <ele>63</ele>
        <time>2013-08-22T12:02:47Z</time>
      </trkpt>
      <trkpt lat="47.81674" lon="-2.81333">
        <ele>74</ele>
        <time>2013-08-22T12:03:10Z</time>
      </trkpt>
      <trkpt lat="47.81679" lon="-2.81343">
        <ele>96</ele>
        <time>2013-08-22T12:03:49Z</time>
      </trkpt>
      <trkpt lat="47.81683" lon="-2.81354">
        <ele>98</ele>
        <time>2013-08-22T12:03:59Z</time>
      </trkpt>
      <trkpt lat="47.81686" lon="-2.81365">
        <ele>101</ele>
        <time>2013-08-22T12:04:07Z</time>
      </trkpt>
      <trkpt lat="47.81691" lon="-2.81376">
        <ele>105</ele>
        <time>2013-08-22T12:04:16Z</time>
      </trkpt>
      <trkpt lat="47.81695" lon="-2.81387">
        <ele>108</ele>
        <time>2013-08-22T12:04:25Z</time>
      </trkpt>
      <trkpt lat="47.81696" lon="-2.814">
        <ele>107</ele>
        <time>2013-08-22T12:04:34Z</time>
      </trkpt>
      <trkpt lat="47.81692" lon="-2.81411">
        <ele>108</ele>
        <time>2013-08-22T12:04:40Z</time>
      </trkpt>
      <trkpt lat="47.81692" lon="-2.81425">
        <ele>108</ele>
        <time>2013-08-22T12:04:46Z</time>
      </trkpt>
      <trkpt lat="47.81695" lon="-2.81436">
        <ele>107</ele>
        <time>2013-08-22T12:04:53Z</time>
      </trkpt>
      <trkpt lat="47.81692" lon="-2.81448">
        <ele>106</ele>
        <time>2013-08-22T12:04:57Z</time>
      </trkpt>
      <trkpt lat="47.81691" lon="-2.81461">
        <ele>107</ele>
        <time>2013-08-22T12:05:05Z</time>
      </trkpt>
      <trkpt lat="47.81687" lon="-2.81472">
        <ele>109</ele>
        <time>2013-08-22T12:05:16Z</time>
      </trkpt>
      <trkpt lat="47.81688" lon="-2.81484">
        <ele>109</ele>
        <time>2013-08-22T12:05:25Z</time>
      </trkpt>
      <trkpt lat="47.81696" lon="-2.8149">
        <ele>108</ele>
        <time>2013-08-22T12:05:31Z</time>
      </trkpt>
      <trkpt lat="47.81698" lon="-2.81502">
        <ele>108</ele>
        <time>2013-08-22T12:05:39Z</time>
      </trkpt>
      <trkpt lat="47.817" lon="-2.81515">
        <ele>108</ele>
        <time>2013-08-22T12:05:48Z</time>
      </trkpt>
      <trkpt lat="47.81707" lon="-2.81521">
        <ele>108</ele>
        <time>2013-08-22T12:05:54Z</time>
      </trkpt>
      <trkpt lat="47.81713" lon="-2.81528">
        <ele>108</ele>
        <time>2013-08-22T12:05:58Z</time>
      </trkpt>
      <trkpt lat="47.81718" lon="-2.81537">
        <ele>107</ele>
        <time>2013-08-22T12:06:04Z</time>
      </trkpt>
      <trkpt lat="47.81724" lon="-2.81544">
        <ele>108</ele>
        <time>2013-08-22T12:06:10Z</time>
      </trkpt>
      <trkpt lat="47.81731" lon="-2.81553">
        <ele>107</ele>
        <time>2013-08-22T12:06:19Z</time>
      </trkpt>
      <trkpt lat="47.81737" lon="-2.81563">
        <ele>107</ele>
        <time>2013-08-22T12:06:24Z</time>
      </trkpt>
      <trkpt lat="47.81747" lon="-2.81567">
        <ele>108</ele>
        <time>2013-08-22T12:06:29Z</time>
      </trkpt>
      <trkpt lat="47.81753" lon="-2.81572">
        <ele>108</ele>
        <time>2013-08-22T12:06:34Z</time>
      </trkpt>
      <trkpt lat="47.81761" lon="-2.8158">
        <ele>109</ele>
        <time>2013-08-22T12:06:42Z</time>
      </trkpt>
      <trkpt lat="47.81768" lon="-2.81588">
        <ele>109</ele>
        <time>2013-08-22T12:06:50Z</time>
      </trkpt>
      <trkpt lat="47.81775" lon="-2.81594">
        <ele>109</ele>
        <time>2013-08-22T12:06:56Z</time>
      </trkpt>
      <trkpt lat="47.81779" lon="-2.81605">
        <ele>110</ele>
        <time>2013-08-22T12:07:04Z</time>
      </trkpt>
      <trkpt lat="47.81786" lon="-2.81613">
        <ele>108</ele>
        <time>2013-08-22T12:07:11Z</time>
      </trkpt>
      <trkpt lat="47.81788" lon="-2.81625">
        <ele>108</ele>
        <time>2013-08-22T12:07:16Z</time>
      </trkpt>
      <trkpt lat="47.81792" lon="-2.81637">
        <ele>109</ele>
        <time>2013-08-22T12:07:22Z</time>
      </trkpt>
      <trkpt lat="47.81796" lon="-2.81648">
        <ele>110</ele>
        <time>2013-08-22T12:07:31Z</time>
      </trkpt>
      <trkpt lat="47.81799" lon="-2.8166">
        <ele>110</ele>
        <time>2013-08-22T12:07:38Z</time>
      </trkpt>
      <trkpt lat="47.81805" lon="-2.81668">
        <ele>111</ele>
        <time>2013-08-22T12:07:45Z</time>
      </trkpt>
      <trkpt lat="47.81811" lon="-2.81677">
        <ele>111</ele>
        <time>2013-08-22T12:07:50Z</time>
      </trkpt>
      <trkpt lat="47.81819" lon="-2.81685">
        <ele>111</ele>
        <time>2013-08-22T12:07:57Z</time>
      </trkpt>
      <trkpt lat="47.81825" lon="-2.81692">
        <ele>112</ele>
        <time>2013-08-22T12:08:03Z</time>
      </trkpt>
      <trkpt lat="47.81832" lon="-2.81699">
        <ele>112</ele>
        <time>2013-08-22T12:08:10Z</time>
      </trkpt>
      <trkpt lat="47.81838" lon="-2.81707">
        <ele>113</ele>
        <time>2013-08-22T12:08:15Z</time>
      </trkpt>
      <trkpt lat="47.81846" lon="-2.81712">
        <ele>114</ele>
        <time>2013-08-22T12:08:21Z</time>
      </trkpt>
      <trkpt lat="47.81855" lon="-2.81708">
        <ele>116</ele>
        <time>2013-08-22T12:08:27Z</time>
      </trkpt>
      <trkpt lat="47.81861" lon="-2.81701">
        <ele>117</ele>
        <time>2013-08-22T12:08:33Z</time>
      </trkpt>
      <trkpt lat="47.81866" lon="-2.8169">
        <ele>118</ele>
        <time>2013-08-22T12:08:40Z</time>
      </trkpt>
      <trkpt lat="47.81869" lon="-2.81678">
        <ele>119</ele>
        <time>2013-08-22T12:08:54Z</time>
      </trkpt>
      <trkpt lat="47.81869" lon="-2.81665">
        <ele>118</ele>
        <time>2013-08-22T12:09:02Z</time>
      </trkpt>
      <trkpt lat="47.81868" lon="-2.81652">
        <ele>117</ele>
        <time>2013-08-22T12:09:08Z</time>
      </trkpt>
      <trkpt lat="47.81867" lon="-2.8164">
        <ele>117</ele>
        <time>2013-08-22T12:09:15Z</time>
      </trkpt>
      <trkpt lat="47.81869" lon="-2.81629">
        <ele>117</ele>
        <time>2013-08-22T12:09:21Z</time>
      </trkpt>
      <trkpt lat="47.81873" lon="-2.81617">
        <ele>117</ele>
        <time>2013-08-22T12:09:27Z</time>
      </trkpt>
      <trkpt lat="47.81873" lon="-2.81605">
        <ele>117</ele>
        <time>2013-08-22T12:09:34Z</time>
      </trkpt>
      <trkpt lat="47.81877" lon="-2.81593">
        <ele>116</ele>
        <time>2013-08-22T12:09:42Z</time>
      </trkpt>
      <trkpt lat="47.81874" lon="-2.8158">
        <ele>116</ele>
        <time>2013-08-22T12:09:50Z</time>
      </trkpt>
      <trkpt lat="47.81869" lon="-2.8157">
        <ele>114</ele>
        <time>2013-08-22T12:10:02Z</time>
      </trkpt>
      <trkpt lat="47.81862" lon="-2.81568">
        <ele>112</ele>
        <time>2013-08-22T12:10:08Z</time>
      </trkpt>
      <trkpt lat="47.81854" lon="-2.81568">
        <ele>111</ele>
        <time>2013-08-22T12:10:13Z</time>
      </trkpt>
      <trkpt lat="47.81845" lon="-2.81568">
        <ele>110</ele>
        <time>2013-08-22T12:10:20Z</time>
      </trkpt>
      <trkpt lat="47.81839" lon="-2.81573">
        <ele>108</ele>
        <time>2013-08-22T12:10:36Z</time>
      </trkpt>
      <trkpt lat="47.81831" lon="-2.8157">
        <ele>108</ele>
        <time>2013-08-22T12:10:41Z</time>
      </trkpt>
      <trkpt lat="47.81823" lon="-2.8157">
        <ele>108</ele>
        <time>2013-08-22T12:10:49Z</time>
      </trkpt>
      <trkpt lat="47.81815" lon="-2.81563">
        <ele>108</ele>
        <time>2013-08-22T12:10:59Z</time>
      </trkpt>
      <trkpt lat="47.81806" lon="-2.81559">
        <ele>108</ele>
        <time>2013-08-22T12:11:06Z</time>
      </trkpt>
      <trkpt lat="47.81798" lon="-2.81556">
        <ele>109</ele>
        <time>2013-08-22T12:11:13Z</time>
      </trkpt>
      <trkpt lat="47.81789" lon="-2.81555">
        <ele>110</ele>
        <time>2013-08-22T12:11:19Z</time>
      </trkpt>
      <trkpt lat="47.81783" lon="-2.81559">
        <ele>109</ele>
        <time>2013-08-22T12:11:30Z</time>
      </trkpt>
      <trkpt lat="47.81775" lon="-2.81561">
        <ele>108</ele>
        <time>2013-08-22T12:11:34Z</time>
      </trkpt>
      <trkpt lat="47.81766" lon="-2.8156">
        <ele>108</ele>
        <time>2013-08-22T12:11:40Z</time>
      </trkpt>
      <trkpt lat="47.81758" lon="-2.81557">
        <ele>108</ele>
        <time>2013-08-22T12:11:45Z</time>
      </trkpt>
      <trkpt lat="47.81763" lon="-2.81569">
        <ele>110</ele>
        <time>2013-08-22T12:12:15Z</time>
      </trkpt>
      <trkpt lat="47.81769" lon="-2.81577">
        <ele>111</ele>
        <time>2013-08-22T12:12:29Z</time>
      </trkpt>
      <trkpt lat="47.81776" lon="-2.81583">
        <ele>111</ele>
        <time>2013-08-22T12:12:37Z</time>
      </trkpt>
      <trkpt lat="47.81783" lon="-2.8159">
        <ele>111</ele>
        <time>2013-08-22T12:12:43Z</time>
      </trkpt>
      <trkpt lat="47.81791" lon="-2.81595">
        <ele>111</ele>
        <time>2013-08-22T12:12:50Z</time>
      </trkpt>
      <trkpt lat="47.81797" lon="-2.81604">
        <ele>111</ele>
        <time>2013-08-22T12:12:57Z</time>
      </trkpt>
      <trkpt lat="47.81798" lon="-2.81615">
        <ele>112</ele>
        <time>2013-08-22T12:13:02Z</time>
      </trkpt>
      <trkpt lat="47.81799" lon="-2.81628">
        <ele>112</ele>
        <time>2013-08-22T12:13:09Z</time>
      </trkpt>
      <trkpt lat="47.81803" lon="-2.81641">
        <ele>113</ele>
        <time>2013-08-22T12:13:17Z</time>
      </trkpt>
      <trkpt lat="47.81807" lon="-2.81652">
        <ele>113</ele>
        <time>2013-08-22T12:13:25Z</time>
      </trkpt>
      <trkpt lat="47.81809" lon="-2.81663">
        <ele>113</ele>
        <time>2013-08-22T12:13:30Z</time>
      </trkpt>
      <trkpt lat="47.81814" lon="-2.81675">
        <ele>113</ele>
        <time>2013-08-22T12:13:36Z</time>
      </trkpt>
      <trkpt lat="47.8182" lon="-2.81684">
        <ele>114</ele>
        <time>2013-08-22T12:13:43Z</time>
      </trkpt>
      <trkpt lat="47.81826" lon="-2.81694">
        <ele>114</ele>
        <time>2013-08-22T12:13:54Z</time>
      </trkpt>
      <trkpt lat="47.81833" lon="-2.817">
        <ele>114</ele>
        <time>2013-08-22T12:14:03Z</time>
      </trkpt>
      <trkpt lat="47.8184" lon="-2.81702">
        <ele>114</ele>
        <time>2013-08-22T12:14:08Z</time>
      </trkpt>
      <trkpt lat="47.81847" lon="-2.81706">
        <ele>115</ele>
        <time>2013-08-22T12:14:13Z</time>
      </trkpt>
      <trkpt lat="47.81853" lon="-2.81713">
        <ele>116</ele>
        <time>2013-08-22T12:14:17Z</time>
      </trkpt>
      <trkpt lat="47.8186" lon="-2.81717">
        <ele>116</ele>
        <time>2013-08-22T12:14:21Z</time>
      </trkpt>
      <trkpt lat="47.81869" lon="-2.81723">
        <ele>117</ele>
        <time>2013-08-22T12:14:26Z</time>
      </trkpt>
      <trkpt lat="47.81874" lon="-2.81733">
        <ele>118</ele>
        <time>2013-08-22T12:14:36Z</time>
      </trkpt>
      <trkpt lat="47.8188" lon="-2.81743">
        <ele>118</ele>
        <time>2013-08-22T12:14:44Z</time>
      </trkpt>
      <trkpt lat="47.81886" lon="-2.81748">
        <ele>119</ele>
        <time>2013-08-22T12:14:49Z</time>
      </trkpt>
      <trkpt lat="47.81897" lon="-2.81755">
        <ele>120</ele>
        <time>2013-08-22T12:14:54Z</time>
      </trkpt>
      <trkpt lat="47.81905" lon="-2.8176">
        <ele>123</ele>
        <time>2013-08-22T12:14:59Z</time>
      </trkpt>
      <trkpt lat="47.8191" lon="-2.81769">
        <ele>123</ele>
        <time>2013-08-22T12:15:06Z</time>
      </trkpt>
      <trkpt lat="47.81913" lon="-2.81779">
        <ele>124</ele>
        <time>2013-08-22T12:15:12Z</time>
      </trkpt>
      <trkpt lat="47.81918" lon="-2.8179">
        <ele>124</ele>
        <time>2013-08-22T12:15:18Z</time>
      </trkpt>
      <trkpt lat="47.81921" lon="-2.81801">
        <ele>124</ele>
        <time>2013-08-22T12:15:25Z</time>
      </trkpt>
      <trkpt lat="47.8192" lon="-2.81814">
        <ele>124</ele>
        <time>2013-08-22T12:15:30Z</time>
      </trkpt>
      <trkpt lat="47.81922" lon="-2.81828">
        <ele>125</ele>
        <time>2013-08-22T12:15:35Z</time>
      </trkpt>
      <trkpt lat="47.81925" lon="-2.81839">
        <ele>126</ele>
        <time>2013-08-22T12:15:40Z</time>
      </trkpt>
      <trkpt lat="47.81927" lon="-2.81851">
        <ele>127</ele>
        <time>2013-08-22T12:15:46Z</time>
      </trkpt>
      <trkpt lat="47.81931" lon="-2.81862">
        <ele>127</ele>
        <time>2013-08-22T12:15:52Z</time>
      </trkpt>
      <trkpt lat="47.81937" lon="-2.81871">
        <ele>127</ele>
        <time>2013-08-22T12:15:59Z</time>
      </trkpt>
      <trkpt lat="47.81942" lon="-2.8188">
        <ele>127</ele>
        <time>2013-08-22T12:16:04Z</time>
      </trkpt>
      <trkpt lat="47.81946" lon="-2.81891">
        <ele>127</ele>
        <time>2013-08-22T12:16:09Z</time>
      </trkpt>
      <trkpt lat="47.81949" lon="-2.81901">
        <ele>127</ele>
        <time>2013-08-22T12:16:14Z</time>
      </trkpt>
      <trkpt lat="47.81952" lon="-2.81913">
        <ele>127</ele>
        <time>2013-08-22T12:16:20Z</time>
      </trkpt>
      <trkpt lat="47.81957" lon="-2.81922">
        <ele>127</ele>
        <time>2013-08-22T12:16:27Z</time>
      </trkpt>
      <trkpt lat="47.81958" lon="-2.81935">
        <ele>126</ele>
        <time>2013-08-22T12:16:35Z</time>
      </trkpt>
      <trkpt lat="47.8196" lon="-2.81947">
        <ele>127</ele>
        <time>2013-08-22T12:16:40Z</time>
      </trkpt>
      <trkpt lat="47.81964" lon="-2.81958">
        <ele>127</ele>
        <time>2013-08-22T12:16:45Z</time>
      </trkpt>
      <trkpt lat="47.81968" lon="-2.8197">
        <ele>127</ele>
        <time>2013-08-22T12:16:51Z</time>
      </trkpt>
      <trkpt lat="47.81969" lon="-2.81982">
        <ele>125</ele>
        <time>2013-08-22T12:16:59Z</time>
      </trkpt>
      <trkpt lat="47.81975" lon="-2.8199">
        <ele>124</ele>
        <time>2013-08-22T12:17:07Z</time>
      </trkpt>
      <trkpt lat="47.8198" lon="-2.82001">
        <ele>124</ele>
        <time>2013-08-22T12:17:14Z</time>
      </trkpt>
      <trkpt lat="47.81986" lon="-2.82008">
        <ele>124</ele>
        <time>2013-08-22T12:17:19Z</time>
      </trkpt>
      <trkpt lat="47.81991" lon="-2.82015">
        <ele>123</ele>
        <time>2013-08-22T12:17:22Z</time>
      </trkpt>
      <trkpt lat="47.81992" lon="-2.82029">
        <ele>122</ele>
        <time>2013-08-22T12:17:26Z</time>
      </trkpt>
      <trkpt lat="47.81995" lon="-2.8204">
        <ele>122</ele>
        <time>2013-08-22T12:17:29Z</time>
      </trkpt>
      <trkpt lat="47.81999" lon="-2.82044">
        <ele>121</ele>
        <time>2013-08-22T12:17:41Z</time>
      </trkpt>
      <trkpt lat="47.82008" lon="-2.82048">
        <ele>120</ele>
        <time>2013-08-22T12:17:47Z</time>
      </trkpt>
      <trkpt lat="47.81999" lon="-2.82044">
        <ele>123</ele>
        <time>2013-08-22T12:18:02Z</time>
      </trkpt>
      <trkpt lat="47.81991" lon="-2.82045">
        <ele>126</ele>
        <time>2013-08-22T12:18:09Z</time>
      </trkpt>
      <trkpt lat="47.81983" lon="-2.8205">
        <ele>129</ele>
        <time>2013-08-22T12:18:17Z</time>
      </trkpt>
      <trkpt lat="47.81975" lon="-2.82051">
        <ele>130</ele>
        <time>2013-08-22T12:18:22Z</time>
      </trkpt>
      <trkpt lat="47.81966" lon="-2.82054">
        <ele>132</ele>
        <time>2013-08-22T12:18:34Z</time>
      </trkpt>
      <trkpt lat="47.81958" lon="-2.82058">
        <ele>130</ele>
        <time>2013-08-22T12:18:42Z</time>
      </trkpt>
      <trkpt lat="47.81952" lon="-2.82068">
        <ele>129</ele>
        <time>2013-08-22T12:18:49Z</time>
      </trkpt>
      <trkpt lat="47.81952" lon="-2.82068">
        <ele>129</ele>
        <time>2013-08-22T12:18:50Z</time>
      </trkpt>
      <trkpt lat="47.81938" lon="-2.82076">
        <ele>127</ele>
        <time>2013-08-22T12:18:57Z</time>
      </trkpt>
      <trkpt lat="47.81929" lon="-2.82081">
        <ele>126</ele>
        <time>2013-08-22T12:19:02Z</time>
      </trkpt>
      <trkpt lat="47.81923" lon="-2.82086">
        <ele>125</ele>
        <time>2013-08-22T12:19:07Z</time>
      </trkpt>
      <trkpt lat="47.81918" lon="-2.82095">
        <ele>125</ele>
        <time>2013-08-22T12:19:13Z</time>
      </trkpt>
      <trkpt lat="47.8191" lon="-2.82101">
        <ele>124</ele>
        <time>2013-08-22T12:19:17Z</time>
      </trkpt>
      <trkpt lat="47.81903" lon="-2.82108">
        <ele>123</ele>
        <time>2013-08-22T12:19:22Z</time>
      </trkpt>
      <trkpt lat="47.81895" lon="-2.82114">
        <ele>122</ele>
        <time>2013-08-22T12:19:28Z</time>
      </trkpt>
      <trkpt lat="47.81889" lon="-2.8212">
        <ele>121</ele>
        <time>2013-08-22T12:19:33Z</time>
      </trkpt>
      <trkpt lat="47.81886" lon="-2.82121">
        <ele>121</ele>
        <time>2013-08-22T12:19:34Z</time>
      </trkpt>
      <trkpt lat="47.81881" lon="-2.82128">
        <ele>120</ele>
        <time>2013-08-22T12:19:40Z</time>
      </trkpt>
      <trkpt lat="47.81879" lon="-2.82136">
        <ele>119</ele>
        <time>2013-08-22T12:19:45Z</time>
      </trkpt>
      <trkpt lat="47.81872" lon="-2.82142">
        <ele>120</ele>
        <time>2013-08-22T12:19:50Z</time>
      </trkpt>
      <trkpt lat="47.81863" lon="-2.82149">
        <ele>121</ele>
        <time>2013-08-22T12:19:55Z</time>
      </trkpt>
      <trkpt lat="47.81858" lon="-2.82159">
        <ele>121</ele>
        <time>2013-08-22T12:20:01Z</time>
      </trkpt>
      <trkpt lat="47.81851" lon="-2.82166">
        <ele>122</ele>
        <time>2013-08-22T12:20:08Z</time>
      </trkpt>
      <trkpt lat="47.81848" lon="-2.82177">
        <ele>122</ele>
        <time>2013-08-22T12:20:16Z</time>
      </trkpt>
      <trkpt lat="47.81846" lon="-2.8219">
        <ele>123</ele>
        <time>2013-08-22T12:20:25Z</time>
      </trkpt>
      <trkpt lat="47.81846" lon="-2.82202">
        <ele>122</ele>
        <time>2013-08-22T12:20:33Z</time>
      </trkpt>
      <trkpt lat="47.81846" lon="-2.82213">
        <ele>122</ele>
        <time>2013-08-22T12:20:39Z</time>
      </trkpt>
      <trkpt lat="47.81845" lon="-2.82225">
        <ele>122</ele>
        <time>2013-08-22T12:20:46Z</time>
      </trkpt>
      <trkpt lat="47.81843" lon="-2.82238">
        <ele>122</ele>
        <time>2013-08-22T12:20:53Z</time>
      </trkpt>
      <trkpt lat="47.81839" lon="-2.82249">
        <ele>122</ele>
        <time>2013-08-22T12:20:59Z</time>
      </trkpt>
      <trkpt lat="47.81836" lon="-2.82261">
        <ele>123</ele>
        <time>2013-08-22T12:21:05Z</time>
      </trkpt>
      <trkpt lat="47.81836" lon="-2.82274">
        <ele>122</ele>
        <time>2013-08-22T12:21:11Z</time>
      </trkpt>
      <trkpt lat="47.81834" lon="-2.8229">
        <ele>122</ele>
        <time>2013-08-22T12:21:16Z</time>
      </trkpt>
      <trkpt lat="47.81837" lon="-2.82301">
        <ele>121</ele>
        <time>2013-08-22T12:21:23Z</time>
      </trkpt>
      <trkpt lat="47.81838" lon="-2.82313">
        <ele>121</ele>
        <time>2013-08-22T12:21:28Z</time>
      </trkpt>
      <trkpt lat="47.81836" lon="-2.82325">
        <ele>121</ele>
        <time>2013-08-22T12:21:33Z</time>
      </trkpt>
      <trkpt lat="47.81831" lon="-2.82333">
        <ele>122</ele>
        <time>2013-08-22T12:21:41Z</time>
      </trkpt>
      <trkpt lat="47.81828" lon="-2.82345">
        <ele>122</ele>
        <time>2013-08-22T12:21:47Z</time>
      </trkpt>
      <trkpt lat="47.81822" lon="-2.82355">
        <ele>122</ele>
        <time>2013-08-22T12:21:53Z</time>
      </trkpt>
      <trkpt lat="47.81823" lon="-2.82367">
        <ele>122</ele>
        <time>2013-08-22T12:22:01Z</time>
      </trkpt>
      <trkpt lat="47.81823" lon="-2.8238">
        <ele>122</ele>
        <time>2013-08-22T12:22:10Z</time>
      </trkpt>
      <trkpt lat="47.81818" lon="-2.82388">
        <ele>123</ele>
        <time>2013-08-22T12:22:16Z</time>
      </trkpt>
      <trkpt lat="47.81815" lon="-2.82399">
        <ele>123</ele>
        <time>2013-08-22T12:22:22Z</time>
      </trkpt>
      <trkpt lat="47.81817" lon="-2.82409">
        <ele>123</ele>
        <time>2013-08-22T12:22:28Z</time>
      </trkpt>
      <trkpt lat="47.81821" lon="-2.82421">
        <ele>123</ele>
        <time>2013-08-22T12:22:32Z</time>
      </trkpt>
      <trkpt lat="47.81821" lon="-2.82433">
        <ele>122</ele>
        <time>2013-08-22T12:22:37Z</time>
      </trkpt>
      <trkpt lat="47.81817" lon="-2.82444">
        <ele>122</ele>
        <time>2013-08-22T12:22:43Z</time>
      </trkpt>
      <trkpt lat="47.81813" lon="-2.82454">
        <ele>123</ele>
        <time>2013-08-22T12:22:48Z</time>
      </trkpt>
      <trkpt lat="47.81814" lon="-2.82466">
        <ele>124</ele>
        <time>2013-08-22T12:22:54Z</time>
      </trkpt>
      <trkpt lat="47.81817" lon="-2.82478">
        <ele>124</ele>
        <time>2013-08-22T12:23:00Z</time>
      </trkpt>
      <trkpt lat="47.81818" lon="-2.8249">
        <ele>124</ele>
        <time>2013-08-22T12:23:05Z</time>
      </trkpt>
      <trkpt lat="47.81816" lon="-2.82502">
        <ele>122</ele>
        <time>2013-08-22T12:23:15Z</time>
      </trkpt>
      <trkpt lat="47.81815" lon="-2.82511">
        <ele>122</ele>
        <time>2013-08-22T12:23:20Z</time>
      </trkpt>
      <trkpt lat="47.81812" lon="-2.82523">
        <ele>121</ele>
        <time>2013-08-22T12:23:24Z</time>
      </trkpt>
      <trkpt lat="47.81808" lon="-2.82532">
        <ele>118</ele>
        <time>2013-08-22T12:23:29Z</time>
      </trkpt>
      <trkpt lat="47.81808" lon="-2.82544">
        <ele>117</ele>
        <time>2013-08-22T12:23:36Z</time>
      </trkpt>
      <trkpt lat="47.81809" lon="-2.82555">
        <ele>116</ele>
        <time>2013-08-22T12:23:42Z</time>
      </trkpt>
      <trkpt lat="47.81809" lon="-2.82567">
        <ele>116</ele>
        <time>2013-08-22T12:23:48Z</time>
      </trkpt>
      <trkpt lat="47.81809" lon="-2.82579">
        <ele>116</ele>
        <time>2013-08-22T12:23:55Z</time>
      </trkpt>
      <trkpt lat="47.81814" lon="-2.82588">
        <ele>115</ele>
        <time>2013-08-22T12:24:02Z</time>
      </trkpt>
      <trkpt lat="47.81819" lon="-2.826">
        <ele>114</ele>
        <time>2013-08-22T12:24:09Z</time>
      </trkpt>
      <trkpt lat="47.81819" lon="-2.82611">
        <ele>113</ele>
        <time>2013-08-22T12:24:15Z</time>
      </trkpt>
      <trkpt lat="47.81818" lon="-2.82622">
        <ele>113</ele>
        <time>2013-08-22T12:24:22Z</time>
      </trkpt>
      <trkpt lat="47.81815" lon="-2.82634">
        <ele>112</ele>
        <time>2013-08-22T12:24:28Z</time>
      </trkpt>
      <trkpt lat="47.81812" lon="-2.82645">
        <ele>112</ele>
        <time>2013-08-22T12:24:33Z</time>
      </trkpt>
      <trkpt lat="47.81809" lon="-2.82656">
        <ele>111</ele>
        <time>2013-08-22T12:24:39Z</time>
      </trkpt>
      <trkpt lat="47.81802" lon="-2.82667">
        <ele>111</ele>
        <time>2013-08-22T12:24:44Z</time>
      </trkpt>
      <trkpt lat="47.81797" lon="-2.82678">
        <ele>111</ele>
        <time>2013-08-22T12:24:49Z</time>
      </trkpt>
      <trkpt lat="47.81797" lon="-2.8269">
        <ele>111</ele>
        <time>2013-08-22T12:24:56Z</time>
      </trkpt>
      <trkpt lat="47.81794" lon="-2.82701">
        <ele>110</ele>
        <time>2013-08-22T12:25:01Z</time>
      </trkpt>
      <trkpt lat="47.81792" lon="-2.82713">
        <ele>110</ele>
        <time>2013-08-22T12:25:08Z</time>
      </trkpt>
      <trkpt lat="47.8179" lon="-2.82725">
        <ele>109</ele>
        <time>2013-08-22T12:25:14Z</time>
      </trkpt>
      <trkpt lat="47.81789" lon="-2.82738">
        <ele>108</ele>
        <time>2013-08-22T12:25:20Z</time>
      </trkpt>
      <trkpt lat="47.81785" lon="-2.82748">
        <ele>107</ele>
        <time>2013-08-22T12:25:25Z</time>
      </trkpt>
      <trkpt lat="47.81785" lon="-2.82761">
        <ele>107</ele>
        <time>2013-08-22T12:25:32Z</time>
      </trkpt>
      <trkpt lat="47.81783" lon="-2.82773">
        <ele>105</ele>
        <time>2013-08-22T12:25:39Z</time>
      </trkpt>
      <trkpt lat="47.81778" lon="-2.82783">
        <ele>105</ele>
        <time>2013-08-22T12:25:44Z</time>
      </trkpt>
      <trkpt lat="47.81775" lon="-2.82795">
        <ele>104</ele>
        <time>2013-08-22T12:25:49Z</time>
      </trkpt>
      <trkpt lat="47.81773" lon="-2.82807">
        <ele>103</ele>
        <time>2013-08-22T12:25:55Z</time>
      </trkpt>
      <trkpt lat="47.81772" lon="-2.8282">
        <ele>103</ele>
        <time>2013-08-22T12:26:01Z</time>
      </trkpt>
      <trkpt lat="47.81773" lon="-2.82831">
        <ele>102</ele>
        <time>2013-08-22T12:26:05Z</time>
      </trkpt>
      <trkpt lat="47.81773" lon="-2.82843">
        <ele>101</ele>
        <time>2013-08-22T12:26:10Z</time>
      </trkpt>
      <trkpt lat="47.8177" lon="-2.82854">
        <ele>101</ele>
        <time>2013-08-22T12:26:15Z</time>
      </trkpt>
      <trkpt lat="47.81766" lon="-2.82864">
        <ele>100</ele>
        <time>2013-08-22T12:26:19Z</time>
      </trkpt>
      <trkpt lat="47.81765" lon="-2.82877">
        <ele>99</ele>
        <time>2013-08-22T12:26:27Z</time>
      </trkpt>
      <trkpt lat="47.81761" lon="-2.82888">
        <ele>98</ele>
        <time>2013-08-22T12:26:34Z</time>
      </trkpt>
      <trkpt lat="47.81761" lon="-2.82901">
        <ele>97</ele>
        <time>2013-08-22T12:26:41Z</time>
      </trkpt>
      <trkpt lat="47.81764" lon="-2.82912">
        <ele>96</ele>
        <time>2013-08-22T12:26:49Z</time>
      </trkpt>
      <trkpt lat="47.81767" lon="-2.82923">
        <ele>95</ele>
        <time>2013-08-22T12:26:56Z</time>
      </trkpt>
      <trkpt lat="47.81774" lon="-2.82934">
        <ele>93</ele>
        <time>2013-08-22T12:27:01Z</time>
      </trkpt>
      <trkpt lat="47.81775" lon="-2.82947">
        <ele>91</ele>
        <time>2013-08-22T12:27:08Z</time>
      </trkpt>
      <trkpt lat="47.81772" lon="-2.82958">
        <ele>91</ele>
        <time>2013-08-22T12:27:13Z</time>
      </trkpt>
      <trkpt lat="47.81769" lon="-2.82967">
        <ele>90</ele>
        <time>2013-08-22T12:27:17Z</time>
      </trkpt>
      <trkpt lat="47.81763" lon="-2.82979">
        <ele>89</ele>
        <time>2013-08-22T12:27:22Z</time>
      </trkpt>
      <trkpt lat="47.81759" lon="-2.8299">
        <ele>88</ele>
        <time>2013-08-22T12:27:26Z</time>
      </trkpt>
      <trkpt lat="47.81755" lon="-2.83001">
        <ele>88</ele>
        <time>2013-08-22T12:27:31Z</time>
      </trkpt>
      <trkpt lat="47.81751" lon="-2.83011">
        <ele>87</ele>
        <time>2013-08-22T12:27:35Z</time>
      </trkpt>
      <trkpt lat="47.81746" lon="-2.83021">
        <ele>86</ele>
        <time>2013-08-22T12:27:41Z</time>
      </trkpt>
      <trkpt lat="47.81738" lon="-2.83027">
        <ele>85</ele>
        <time>2013-08-22T12:27:52Z</time>
      </trkpt>
      <trkpt lat="47.81731" lon="-2.83034">
        <ele>84</ele>
        <time>2013-08-22T12:28:03Z</time>
      </trkpt>
      <trkpt lat="47.81727" lon="-2.83045">
        <ele>82</ele>
        <time>2013-08-22T12:28:20Z</time>
      </trkpt>
      <trkpt lat="47.81734" lon="-2.83052">
        <ele>79</ele>
        <time>2013-08-22T12:28:43Z</time>
      </trkpt>
      <trkpt lat="47.81741" lon="-2.83059">
        <ele>78</ele>
        <time>2013-08-22T12:28:53Z</time>
      </trkpt>
      <trkpt lat="47.81749" lon="-2.83061">
        <ele>77</ele>
        <time>2013-08-22T12:28:59Z</time>
      </trkpt>
      <trkpt lat="47.81757" lon="-2.83061">
        <ele>75</ele>
        <time>2013-08-22T12:29:04Z</time>
      </trkpt>
      <trkpt lat="47.81764" lon="-2.83067">
        <ele>74</ele>
        <time>2013-08-22T12:29:09Z</time>
      </trkpt>
      <trkpt lat="47.8177" lon="-2.83076">
        <ele>73</ele>
        <time>2013-08-22T12:29:16Z</time>
      </trkpt>
      <trkpt lat="47.81776" lon="-2.83084">
        <ele>72</ele>
        <time>2013-08-22T12:29:22Z</time>
      </trkpt>
      <trkpt lat="47.81784" lon="-2.83088">
        <ele>71</ele>
        <time>2013-08-22T12:29:27Z</time>
      </trkpt>
      <trkpt lat="47.81799" lon="-2.83093">
        <ele>70</ele>
        <time>2013-08-22T12:29:32Z</time>
      </trkpt>
      <trkpt lat="47.81807" lon="-2.83099">
        <ele>69</ele>
        <time>2013-08-22T12:29:37Z</time>
      </trkpt>
      <trkpt lat="47.81812" lon="-2.83108">
        <ele>68</ele>
        <time>2013-08-22T12:29:43Z</time>
      </trkpt>
      <trkpt lat="47.81818" lon="-2.83113">
        <ele>67</ele>
        <time>2013-08-22T12:29:48Z</time>
      </trkpt>
      <trkpt lat="47.81826" lon="-2.83119">
        <ele>65</ele>
        <time>2013-08-22T12:29:55Z</time>
      </trkpt>
      <trkpt lat="47.81834" lon="-2.83124">
        <ele>64</ele>
        <time>2013-08-22T12:30:04Z</time>
      </trkpt>
      <trkpt lat="47.81842" lon="-2.83128">
        <ele>63</ele>
        <time>2013-08-22T12:30:13Z</time>
      </trkpt>
      <trkpt lat="47.81849" lon="-2.83133">
        <ele>62</ele>
        <time>2013-08-22T12:30:20Z</time>
      </trkpt>
      <trkpt lat="47.8188" lon="-2.83112">
        <ele>88</ele>
        <time>2013-08-22T12:30:25Z</time>
      </trkpt>
      <trkpt lat="47.81892" lon="-2.83109">
        <ele>95</ele>
        <time>2013-08-22T12:30:29Z</time>
      </trkpt>
      <trkpt lat="47.819" lon="-2.83107">
        <ele>100</ele>
        <time>2013-08-22T12:30:33Z</time>
      </trkpt>
      <trkpt lat="47.81911" lon="-2.83109">
        <ele>108</ele>
        <time>2013-08-22T12:30:38Z</time>
      </trkpt>
      <trkpt lat="47.8192" lon="-2.83109">
        <ele>114</ele>
        <time>2013-08-22T12:30:44Z</time>
      </trkpt>
      <trkpt lat="47.81928" lon="-2.8311">
        <ele>118</ele>
        <time>2013-08-22T12:30:48Z</time>
      </trkpt>
      <trkpt lat="47.81938" lon="-2.8311">
        <ele>121</ele>
        <time>2013-08-22T12:30:53Z</time>
      </trkpt>
      <trkpt lat="47.81947" lon="-2.83111">
        <ele>122</ele>
        <time>2013-08-22T12:30:58Z</time>
      </trkpt>
      <trkpt lat="47.81956" lon="-2.83112">
        <ele>124</ele>
        <time>2013-08-22T12:31:03Z</time>
      </trkpt>
      <trkpt lat="47.81964" lon="-2.83108">
        <ele>125</ele>
        <time>2013-08-22T12:31:10Z</time>
      </trkpt>
      <trkpt lat="47.81972" lon="-2.83109">
        <ele>125</ele>
        <time>2013-08-22T12:31:16Z</time>
      </trkpt>
      <trkpt lat="47.81981" lon="-2.83109">
        <ele>126</ele>
        <time>2013-08-22T12:31:22Z</time>
      </trkpt>
      <trkpt lat="47.81989" lon="-2.83109">
        <ele>126</ele>
        <time>2013-08-22T12:31:27Z</time>
      </trkpt>
      <trkpt lat="47.81997" lon="-2.83105">
        <ele>127</ele>
        <time>2013-08-22T12:31:33Z</time>
      </trkpt>
      <trkpt lat="47.82004" lon="-2.83098">
        <ele>128</ele>
        <time>2013-08-22T12:31:39Z</time>
      </trkpt>
      <trkpt lat="47.82012" lon="-2.83096">
        <ele>129</ele>
        <time>2013-08-22T12:31:45Z</time>
      </trkpt>
      <trkpt lat="47.82021" lon="-2.83092">
        <ele>130</ele>
        <time>2013-08-22T12:31:54Z</time>
      </trkpt>
      <trkpt lat="47.82028" lon="-2.83087">
        <ele>131</ele>
        <time>2013-08-22T12:32:01Z</time>
      </trkpt>
      <trkpt lat="47.82036" lon="-2.8308">
        <ele>132</ele>
        <time>2013-08-22T12:32:09Z</time>
      </trkpt>
      <trkpt lat="47.82043" lon="-2.83076">
        <ele>133</ele>
        <time>2013-08-22T12:32:15Z</time>
      </trkpt>
      <trkpt lat="47.82051" lon="-2.83075">
        <ele>134</ele>
        <time>2013-08-22T12:32:21Z</time>
      </trkpt>
      <trkpt lat="47.82058" lon="-2.83066">
        <ele>135</ele>
        <time>2013-08-22T12:32:30Z</time>
      </trkpt>
      <trkpt lat="47.82065" lon="-2.8306">
        <ele>136</ele>
        <time>2013-08-22T12:32:37Z</time>
      </trkpt>
      <trkpt lat="47.82072" lon="-2.83054">
        <ele>135</ele>
        <time>2013-08-22T12:32:42Z</time>
      </trkpt>
      <trkpt lat="47.82079" lon="-2.83047">
        <ele>135</ele>
        <time>2013-08-22T12:32:47Z</time>
      </trkpt>
      <trkpt lat="47.82087" lon="-2.83041">
        <ele>135</ele>
        <time>2013-08-22T12:32:53Z</time>
      </trkpt>
      <trkpt lat="47.82096" lon="-2.83037">
        <ele>135</ele>
        <time>2013-08-22T12:33:00Z</time>
      </trkpt>
      <trkpt lat="47.82103" lon="-2.83031">
        <ele>135</ele>
        <time>2013-08-22T12:33:06Z</time>
      </trkpt>
      <trkpt lat="47.82111" lon="-2.83028">
        <ele>137</ele>
        <time>2013-08-22T12:33:12Z</time>
      </trkpt>
      <trkpt lat="47.82119" lon="-2.83024">
        <ele>136</ele>
        <time>2013-08-22T12:33:19Z</time>
      </trkpt>
      <trkpt lat="47.82128" lon="-2.8302">
        <ele>137</ele>
        <time>2013-08-22T12:33:29Z</time>
      </trkpt>
      <trkpt lat="47.82136" lon="-2.83017">
        <ele>138</ele>
        <time>2013-08-22T12:33:36Z</time>
      </trkpt>
      <trkpt lat="47.82145" lon="-2.83015">
        <ele>138</ele>
        <time>2013-08-22T12:33:43Z</time>
      </trkpt>
      <trkpt lat="47.82153" lon="-2.83014">
        <ele>138</ele>
        <time>2013-08-22T12:33:51Z</time>
      </trkpt>
      <trkpt lat="47.82161" lon="-2.8301">
        <ele>139</ele>
        <time>2013-08-22T12:33:56Z</time>
      </trkpt>
      <trkpt lat="47.82168" lon="-2.83008">
        <ele>138</ele>
        <time>2013-08-22T12:34:00Z</time>
      </trkpt>
      <trkpt lat="47.82178" lon="-2.83003">
        <ele>138</ele>
        <time>2013-08-22T12:34:05Z</time>
      </trkpt>
      <trkpt lat="47.82186" lon="-2.82999">
        <ele>138</ele>
        <time>2013-08-22T12:34:11Z</time>
      </trkpt>
      <trkpt lat="47.82193" lon="-2.82994">
        <ele>140</ele>
        <time>2013-08-22T12:34:16Z</time>
      </trkpt>
      <trkpt lat="47.82202" lon="-2.82996">
        <ele>141</ele>
        <time>2013-08-22T12:34:27Z</time>
      </trkpt>
      <trkpt lat="47.82208" lon="-2.83006">
        <ele>143</ele>
        <time>2013-08-22T12:34:49Z</time>
      </trkpt>
      <trkpt lat="47.82215" lon="-2.83012">
        <ele>143</ele>
        <time>2013-08-22T12:34:57Z</time>
      </trkpt>
      <trkpt lat="47.82221" lon="-2.83021">
        <ele>142</ele>
        <time>2013-08-22T12:35:05Z</time>
      </trkpt>
      <trkpt lat="47.82227" lon="-2.83032">
        <ele>142</ele>
        <time>2013-08-22T12:35:10Z</time>
      </trkpt>
      <trkpt lat="47.82234" lon="-2.8304">
        <ele>141</ele>
        <time>2013-08-22T12:35:24Z</time>
      </trkpt>
      <trkpt lat="47.8224" lon="-2.83049">
        <ele>140</ele>
        <time>2013-08-22T12:35:31Z</time>
      </trkpt>
      <trkpt lat="47.82244" lon="-2.8306">
        <ele>139</ele>
        <time>2013-08-22T12:35:36Z</time>
      </trkpt>
      <trkpt lat="47.8225" lon="-2.8307">
        <ele>137</ele>
        <time>2013-08-22T12:35:41Z</time>
      </trkpt>
      <trkpt lat="47.82255" lon="-2.8308">
        <ele>136</ele>
        <time>2013-08-22T12:35:46Z</time>
      </trkpt>
      <trkpt lat="47.82258" lon="-2.83091">
        <ele>136</ele>
        <time>2013-08-22T12:35:51Z</time>
      </trkpt>
      <trkpt lat="47.82263" lon="-2.83101">
        <ele>136</ele>
        <time>2013-08-22T12:35:57Z</time>
      </trkpt>
      <trkpt lat="47.82267" lon="-2.83111">
        <ele>136</ele>
        <time>2013-08-22T12:36:05Z</time>
      </trkpt>
      <trkpt lat="47.82271" lon="-2.83122">
        <ele>136</ele>
        <time>2013-08-22T12:36:10Z</time>
      </trkpt>
      <trkpt lat="47.82274" lon="-2.83132">
        <ele>136</ele>
        <time>2013-08-22T12:36:16Z</time>
      </trkpt>
      <trkpt lat="47.8228" lon="-2.83142">
        <ele>136</ele>
        <time>2013-08-22T12:36:23Z</time>
      </trkpt>
      <trkpt lat="47.82287" lon="-2.83148">
        <ele>136</ele>
        <time>2013-08-22T12:36:27Z</time>
      </trkpt>
      <trkpt lat="47.82293" lon="-2.83154">
        <ele>135</ele>
        <time>2013-08-22T12:36:36Z</time>
      </trkpt>
      <trkpt lat="47.82299" lon="-2.83164">
        <ele>134</ele>
        <time>2013-08-22T12:36:42Z</time>
      </trkpt>
      <trkpt lat="47.82304" lon="-2.83173">
        <ele>134</ele>
        <time>2013-08-22T12:36:48Z</time>
      </trkpt>
      <trkpt lat="47.8231" lon="-2.83181">
        <ele>133</ele>
        <time>2013-08-22T12:36:55Z</time>
      </trkpt>
      <trkpt lat="47.82318" lon="-2.83184">
        <ele>133</ele>
        <time>2013-08-22T12:37:03Z</time>
      </trkpt>
      <trkpt lat="47.82324" lon="-2.83191">
        <ele>132</ele>
        <time>2013-08-22T12:37:08Z</time>
      </trkpt>
      <trkpt lat="47.82332" lon="-2.83197">
        <ele>132</ele>
        <time>2013-08-22T12:37:14Z</time>
      </trkpt>
      <trkpt lat="47.82339" lon="-2.83203">
        <ele>132</ele>
        <time>2013-08-22T12:37:21Z</time>
      </trkpt>
      <trkpt lat="47.82345" lon="-2.8321">
        <ele>132</ele>
        <time>2013-08-22T12:37:26Z</time>
      </trkpt>
      <trkpt lat="47.82352" lon="-2.83219">
        <ele>132</ele>
        <time>2013-08-22T12:37:34Z</time>
      </trkpt>
      <trkpt lat="47.82358" lon="-2.83228">
        <ele>132</ele>
        <time>2013-08-22T12:37:48Z</time>
      </trkpt>
      <trkpt lat="47.82365" lon="-2.83231">
        <ele>135</ele>
        <time>2013-08-22T12:37:53Z</time>
      </trkpt>
      <trkpt lat="47.82374" lon="-2.83235">
        <ele>135</ele>
        <time>2013-08-22T12:37:59Z</time>
      </trkpt>
      <trkpt lat="47.82381" lon="-2.8324">
        <ele>135</ele>
        <time>2013-08-22T12:38:04Z</time>
      </trkpt>
      <trkpt lat="47.8239" lon="-2.83242">
        <ele>135</ele>
        <time>2013-08-22T12:38:10Z</time>
      </trkpt>
      <trkpt lat="47.82398" lon="-2.83243">
        <ele>135</ele>
        <time>2013-08-22T12:38:17Z</time>
      </trkpt>
      <trkpt lat="47.82405" lon="-2.83246">
        <ele>135</ele>
        <time>2013-08-22T12:38:22Z</time>
      </trkpt>
      <trkpt lat="47.82414" lon="-2.83248">
        <ele>135</ele>
        <time>2013-08-22T12:38:29Z</time>
      </trkpt>
      <trkpt lat="47.82422" lon="-2.8325">
        <ele>136</ele>
        <time>2013-08-22T12:38:37Z</time>
      </trkpt>
      <trkpt lat="47.8243" lon="-2.83257">
        <ele>137</ele>
        <time>2013-08-22T12:38:53Z</time>
      </trkpt>
      <trkpt lat="47.82438" lon="-2.8326">
        <ele>137</ele>
        <time>2013-08-22T12:39:00Z</time>
      </trkpt>
      <trkpt lat="47.82442" lon="-2.83271">
        <ele>137</ele>
        <time>2013-08-22T12:39:08Z</time>
      </trkpt>
      <trkpt lat="47.8245" lon="-2.83269">
        <ele>137</ele>
        <time>2013-08-22T12:39:18Z</time>
      </trkpt>
      <trkpt lat="47.82458" lon="-2.83269">
        <ele>137</ele>
        <time>2013-08-22T12:39:25Z</time>
      </trkpt>
      <trkpt lat="47.82466" lon="-2.83264">
        <ele>136</ele>
        <time>2013-08-22T12:39:37Z</time>
      </trkpt>
      <trkpt lat="47.82474" lon="-2.83269">
        <ele>137</ele>
        <time>2013-08-22T12:39:44Z</time>
      </trkpt>
      <trkpt lat="47.82478" lon="-2.83279">
        <ele>138</ele>
        <time>2013-08-22T12:39:51Z</time>
      </trkpt>
      <trkpt lat="47.82485" lon="-2.83286">
        <ele>136</ele>
        <time>2013-08-22T12:40:07Z</time>
      </trkpt>
      <trkpt lat="47.82493" lon="-2.83288">
        <ele>137</ele>
        <time>2013-08-22T12:40:21Z</time>
      </trkpt>
      <trkpt lat="47.825" lon="-2.83296">
        <ele>138</ele>
        <time>2013-08-22T12:40:30Z</time>
      </trkpt>
      <trkpt lat="47.82505" lon="-2.83306">
        <ele>140</ele>
        <time>2013-08-22T12:40:46Z</time>
      </trkpt>
      <trkpt lat="47.82512" lon="-2.83319">
        <ele>140</ele>
        <time>2013-08-22T12:40:51Z</time>
      </trkpt>
      <trkpt lat="47.82518" lon="-2.8333">
        <ele>139</ele>
        <time>2013-08-22T12:40:55Z</time>
      </trkpt>
      <trkpt lat="47.82523" lon="-2.83342">
        <ele>139</ele>
        <time>2013-08-22T12:40:59Z</time>
      </trkpt>
      <trkpt lat="47.82527" lon="-2.83348">
        <ele>138</ele>
        <time>2013-08-22T12:41:07Z</time>
      </trkpt>
      <trkpt lat="47.82533" lon="-2.83358">
        <ele>137</ele>
        <time>2013-08-22T12:41:11Z</time>
      </trkpt>
      <trkpt lat="47.82539" lon="-2.83368">
        <ele>136</ele>
        <time>2013-08-22T12:41:15Z</time>
      </trkpt>
      <trkpt lat="47.82543" lon="-2.83379">
        <ele>136</ele>
        <time>2013-08-22T12:41:20Z</time>
      </trkpt>
      <trkpt lat="47.82548" lon="-2.83388">
        <ele>135</ele>
        <time>2013-08-22T12:41:25Z</time>
      </trkpt>
      <trkpt lat="47.82551" lon="-2.83399">
        <ele>134</ele>
        <time>2013-08-22T12:41:29Z</time>
      </trkpt>
      <trkpt lat="47.82557" lon="-2.83411">
        <ele>132</ele>
        <time>2013-08-22T12:41:34Z</time>
      </trkpt>
      <trkpt lat="47.82561" lon="-2.83421">
        <ele>131</ele>
        <time>2013-08-22T12:41:40Z</time>
      </trkpt>
      <trkpt lat="47.82566" lon="-2.83433">
        <ele>131</ele>
        <time>2013-08-22T12:41:45Z</time>
      </trkpt>
      <trkpt lat="47.8257" lon="-2.83444">
        <ele>130</ele>
        <time>2013-08-22T12:41:51Z</time>
      </trkpt>
      <trkpt lat="47.82578" lon="-2.83447">
        <ele>130</ele>
        <time>2013-08-22T12:41:58Z</time>
      </trkpt>
      <trkpt lat="47.82586" lon="-2.83442">
        <ele>130</ele>
        <time>2013-08-22T12:42:08Z</time>
      </trkpt>
      <trkpt lat="47.82595" lon="-2.83444">
        <ele>129</ele>
        <time>2013-08-22T12:42:15Z</time>
      </trkpt>
      <trkpt lat="47.82603" lon="-2.83448">
        <ele>129</ele>
        <time>2013-08-22T12:42:21Z</time>
      </trkpt>
      <trkpt lat="47.82618" lon="-2.83459">
        <ele>123</ele>
        <time>2013-08-22T12:42:26Z</time>
      </trkpt>
      <trkpt lat="47.82625" lon="-2.83461">
        <ele>121</ele>
        <time>2013-08-22T12:42:30Z</time>
      </trkpt>
      <trkpt lat="47.82633" lon="-2.83463">
        <ele>121</ele>
        <time>2013-08-22T12:42:38Z</time>
      </trkpt>
      <trkpt lat="47.82635" lon="-2.83464">
        <ele>122</ele>
        <time>2013-08-22T12:45:57Z</time>
      </trkpt>
      <trkpt lat="47.82649" lon="-2.83459">
        <ele>119</ele>
        <time>2013-08-22T12:46:02Z</time>
      </trkpt>
      <trkpt lat="47.82657" lon="-2.83458">
        <ele>120</ele>
        <time>2013-08-22T12:46:10Z</time>
      </trkpt>
      <trkpt lat="47.82665" lon="-2.83457">
        <ele>120</ele>
        <time>2013-08-22T12:46:16Z</time>
      </trkpt>
      <trkpt lat="47.82673" lon="-2.83456">
        <ele>120</ele>
        <time>2013-08-22T12:46:23Z</time>
      </trkpt>
      <trkpt lat="47.82681" lon="-2.83456">
        <ele>120</ele>
        <time>2013-08-22T12:46:30Z</time>
      </trkpt>
      <trkpt lat="47.82689" lon="-2.83455">
        <ele>120</ele>
        <time>2013-08-22T12:46:36Z</time>
      </trkpt>
      <trkpt lat="47.82698" lon="-2.83455">
        <ele>121</ele>
        <time>2013-08-22T12:46:42Z</time>
      </trkpt>
      <trkpt lat="47.82706" lon="-2.83455">
        <ele>121</ele>
        <time>2013-08-22T12:46:49Z</time>
      </trkpt>
      <trkpt lat="47.82715" lon="-2.83454">
        <ele>122</ele>
        <time>2013-08-22T12:46:55Z</time>
      </trkpt>
      <trkpt lat="47.82723" lon="-2.83454">
        <ele>122</ele>
        <time>2013-08-22T12:47:01Z</time>
      </trkpt>
      <trkpt lat="47.82732" lon="-2.83454">
        <ele>122</ele>
        <time>2013-08-22T12:47:08Z</time>
      </trkpt>
      <trkpt lat="47.8274" lon="-2.83452">
        <ele>123</ele>
        <time>2013-08-22T12:47:14Z</time>
      </trkpt>
      <trkpt lat="47.82749" lon="-2.83452">
        <ele>123</ele>
        <time>2013-08-22T12:47:20Z</time>
      </trkpt>
      <trkpt lat="47.82757" lon="-2.83451">
        <ele>123</ele>
        <time>2013-08-22T12:47:26Z</time>
      </trkpt>
      <trkpt lat="47.82765" lon="-2.8345">
        <ele>124</ele>
        <time>2013-08-22T12:47:32Z</time>
      </trkpt>
      <trkpt lat="47.82773" lon="-2.8345">
        <ele>124</ele>
        <time>2013-08-22T12:47:39Z</time>
      </trkpt>
      <trkpt lat="47.82782" lon="-2.83452">
        <ele>125</ele>
        <time>2013-08-22T12:47:45Z</time>
      </trkpt>
      <trkpt lat="47.82789" lon="-2.83456">
        <ele>125</ele>
        <time>2013-08-22T12:47:49Z</time>
      </trkpt>
      <trkpt lat="47.82797" lon="-2.83456">
        <ele>124</ele>
        <time>2013-08-22T12:47:55Z</time>
      </trkpt>
      <trkpt lat="47.82806" lon="-2.83453">
        <ele>125</ele>
        <time>2013-08-22T12:48:02Z</time>
      </trkpt>
      <trkpt lat="47.82814" lon="-2.83451">
        <ele>125</ele>
        <time>2013-08-22T12:48:11Z</time>
      </trkpt>
      <trkpt lat="47.82823" lon="-2.83448">
        <ele>126</ele>
        <time>2013-08-22T12:48:28Z</time>
      </trkpt>
      <trkpt lat="47.82832" lon="-2.83446">
        <ele>125</ele>
        <time>2013-08-22T12:48:38Z</time>
      </trkpt>
      <trkpt lat="47.8284" lon="-2.83445">
        <ele>125</ele>
        <time>2013-08-22T12:48:46Z</time>
      </trkpt>
      <trkpt lat="47.82848" lon="-2.83445">
        <ele>125</ele>
        <time>2013-08-22T12:48:55Z</time>
      </trkpt>
      <trkpt lat="47.82856" lon="-2.83445">
        <ele>125</ele>
        <time>2013-08-22T12:49:01Z</time>
      </trkpt>
      <trkpt lat="47.82863" lon="-2.83444">
        <ele>126</ele>
        <time>2013-08-22T12:49:06Z</time>
      </trkpt>
      <trkpt lat="47.82872" lon="-2.83444">
        <ele>127</ele>
        <time>2013-08-22T12:49:12Z</time>
      </trkpt>
      <trkpt lat="47.82879" lon="-2.83446">
        <ele>127</ele>
        <time>2013-08-22T12:49:16Z</time>
      </trkpt>
      <trkpt lat="47.82887" lon="-2.83446">
        <ele>128</ele>
        <time>2013-08-22T12:49:22Z</time>
      </trkpt>
      <trkpt lat="47.82895" lon="-2.83447">
        <ele>129</ele>
        <time>2013-08-22T12:49:28Z</time>
      </trkpt>
      <trkpt lat="47.82904" lon="-2.83447">
        <ele>131</ele>
        <time>2013-08-22T12:49:34Z</time>
      </trkpt>
      <trkpt lat="47.82912" lon="-2.83447">
        <ele>132</ele>
        <time>2013-08-22T12:49:43Z</time>
      </trkpt>
      <trkpt lat="47.82921" lon="-2.83446">
        <ele>133</ele>
        <time>2013-08-22T12:49:50Z</time>
      </trkpt>
      <trkpt lat="47.82929" lon="-2.83445">
        <ele>133</ele>
        <time>2013-08-22T12:49:56Z</time>
      </trkpt>
      <trkpt lat="47.82937" lon="-2.83444">
        <ele>134</ele>
        <time>2013-08-22T12:50:02Z</time>
      </trkpt>
      <trkpt lat="47.82945" lon="-2.83444">
        <ele>134</ele>
        <time>2013-08-22T12:50:08Z</time>
      </trkpt>
      <trkpt lat="47.82953" lon="-2.83442">
        <ele>134</ele>
        <time>2013-08-22T12:50:15Z</time>
      </trkpt>
      <trkpt lat="47.82962" lon="-2.83442">
        <ele>136</ele>
        <time>2013-08-22T12:50:20Z</time>
      </trkpt>
      <trkpt lat="47.8297" lon="-2.83441">
        <ele>136</ele>
        <time>2013-08-22T12:50:25Z</time>
      </trkpt>
      <trkpt lat="47.82978" lon="-2.83441">
        <ele>136</ele>
        <time>2013-08-22T12:50:31Z</time>
      </trkpt>
      <trkpt lat="47.82985" lon="-2.8344">
        <ele>137</ele>
        <time>2013-08-22T12:50:37Z</time>
      </trkpt>
      <trkpt lat="47.82994" lon="-2.83439">
        <ele>137</ele>
        <time>2013-08-22T12:50:43Z</time>
      </trkpt>
      <trkpt lat="47.83002" lon="-2.83437">
        <ele>138</ele>
        <time>2013-08-22T12:50:50Z</time>
      </trkpt>
      <trkpt lat="47.8301" lon="-2.83436">
        <ele>139</ele>
        <time>2013-08-22T12:50:56Z</time>
      </trkpt>
      <trkpt lat="47.83018" lon="-2.83433">
        <ele>139</ele>
        <time>2013-08-22T12:51:05Z</time>
      </trkpt>
      <trkpt lat="47.83026" lon="-2.83427">
        <ele>139</ele>
        <time>2013-08-22T12:51:12Z</time>
      </trkpt>
      <trkpt lat="47.83034" lon="-2.83429">
        <ele>139</ele>
        <time>2013-08-22T12:51:17Z</time>
      </trkpt>
      <trkpt lat="47.83042" lon="-2.83426">
        <ele>139</ele>
        <time>2013-08-22T12:51:23Z</time>
      </trkpt>
      <trkpt lat="47.83051" lon="-2.83425">
        <ele>140</ele>
        <time>2013-08-22T12:51:30Z</time>
      </trkpt>
      <trkpt lat="47.83059" lon="-2.8343">
        <ele>138</ele>
        <time>2013-08-22T12:51:37Z</time>
      </trkpt>
      <trkpt lat="47.83066" lon="-2.83435">
        <ele>137</ele>
        <time>2013-08-22T12:51:51Z</time>
      </trkpt>
      <trkpt lat="47.83074" lon="-2.83439">
        <ele>137</ele>
        <time>2013-08-22T12:52:01Z</time>
      </trkpt>
      <trkpt lat="47.83081" lon="-2.83443">
        <ele>137</ele>
        <time>2013-08-22T12:52:06Z</time>
      </trkpt>
      <trkpt lat="47.83089" lon="-2.83446">
        <ele>134</ele>
        <time>2013-08-22T12:52:25Z</time>
      </trkpt>
      <trkpt lat="47.83097" lon="-2.8345">
        <ele>133</ele>
        <time>2013-08-22T12:52:40Z</time>
      </trkpt>
      <trkpt lat="47.83105" lon="-2.83456">
        <ele>132</ele>
        <time>2013-08-22T12:52:48Z</time>
      </trkpt>
      <trkpt lat="47.83113" lon="-2.8346">
        <ele>132</ele>
        <time>2013-08-22T12:52:54Z</time>
      </trkpt>
      <trkpt lat="47.83121" lon="-2.83465">
        <ele>132</ele>
        <time>2013-08-22T12:53:00Z</time>
      </trkpt>
      <trkpt lat="47.83129" lon="-2.83468">
        <ele>132</ele>
        <time>2013-08-22T12:53:07Z</time>
      </trkpt>
      <trkpt lat="47.83137" lon="-2.83472">
        <ele>132</ele>
        <time>2013-08-22T12:53:14Z</time>
      </trkpt>
      <trkpt lat="47.83145" lon="-2.83475">
        <ele>132</ele>
        <time>2013-08-22T12:53:19Z</time>
      </trkpt>
      <trkpt lat="47.83153" lon="-2.83479">
        <ele>132</ele>
        <time>2013-08-22T12:53:25Z</time>
      </trkpt>
      <trkpt lat="47.8316" lon="-2.83483">
        <ele>132</ele>
        <time>2013-08-22T12:53:30Z</time>
      </trkpt>
      <trkpt lat="47.83168" lon="-2.83487">
        <ele>132</ele>
        <time>2013-08-22T12:53:35Z</time>
      </trkpt>
      <trkpt lat="47.83175" lon="-2.83489">
        <ele>133</ele>
        <time>2013-08-22T12:53:40Z</time>
      </trkpt>
      <trkpt lat="47.83183" lon="-2.83492">
        <ele>133</ele>
        <time>2013-08-22T12:53:46Z</time>
      </trkpt>
      <trkpt lat="47.83191" lon="-2.83494">
        <ele>133</ele>
        <time>2013-08-22T12:53:52Z</time>
      </trkpt>
      <trkpt lat="47.83199" lon="-2.83497">
        <ele>133</ele>
        <time>2013-08-22T12:53:57Z</time>
      </trkpt>
      <trkpt lat="47.83207" lon="-2.835">
        <ele>133</ele>
        <time>2013-08-22T12:54:02Z</time>
      </trkpt>
      <trkpt lat="47.83215" lon="-2.83503">
        <ele>133</ele>
        <time>2013-08-22T12:54:08Z</time>
      </trkpt>
      <trkpt lat="47.83223" lon="-2.83505">
        <ele>133</ele>
        <time>2013-08-22T12:54:14Z</time>
      </trkpt>
      <trkpt lat="47.83232" lon="-2.83507">
        <ele>133</ele>
        <time>2013-08-22T12:54:20Z</time>
      </trkpt>
      <trkpt lat="47.8324" lon="-2.83509">
        <ele>133</ele>
        <time>2013-08-22T12:54:26Z</time>
      </trkpt>
      <trkpt lat="47.83248" lon="-2.8351">
        <ele>134</ele>
        <time>2013-08-22T12:54:32Z</time>
      </trkpt>
      <trkpt lat="47.83256" lon="-2.83512">
        <ele>134</ele>
        <time>2013-08-22T12:54:38Z</time>
      </trkpt>
      <trkpt lat="47.83264" lon="-2.83514">
        <ele>135</ele>
        <time>2013-08-22T12:54:47Z</time>
      </trkpt>
      <trkpt lat="47.83273" lon="-2.83517">
        <ele>136</ele>
        <time>2013-08-22T12:54:53Z</time>
      </trkpt>
      <trkpt lat="47.83281" lon="-2.83519">
        <ele>136</ele>
        <time>2013-08-22T12:54:59Z</time>
      </trkpt>
      <trkpt lat="47.83289" lon="-2.83523">
        <ele>136</ele>
        <time>2013-08-22T12:55:04Z</time>
      </trkpt>
      <trkpt lat="47.83297" lon="-2.83524">
        <ele>137</ele>
        <time>2013-08-22T12:55:11Z</time>
      </trkpt>
      <trkpt lat="47.83305" lon="-2.83527">
        <ele>137</ele>
        <time>2013-08-22T12:55:20Z</time>
      </trkpt>
      <trkpt lat="47.83312" lon="-2.83532">
        <ele>137</ele>
        <time>2013-08-22T12:55:25Z</time>
      </trkpt>
      <trkpt lat="47.83318" lon="-2.8354">
        <ele>138</ele>
        <time>2013-08-22T12:55:29Z</time>
      </trkpt>
      <trkpt lat="47.83322" lon="-2.83551">
        <ele>138</ele>
        <time>2013-08-22T12:55:34Z</time>
      </trkpt>
      <trkpt lat="47.83325" lon="-2.83563">
        <ele>138</ele>
        <time>2013-08-22T12:55:40Z</time>
      </trkpt>
      <trkpt lat="47.83328" lon="-2.83575">
        <ele>137</ele>
        <time>2013-08-22T12:55:47Z</time>
      </trkpt>
      <trkpt lat="47.83327" lon="-2.83588">
        <ele>136</ele>
        <time>2013-08-22T12:55:54Z</time>
      </trkpt>
      <trkpt lat="47.83327" lon="-2.83601">
        <ele>136</ele>
        <time>2013-08-22T12:56:00Z</time>
      </trkpt>
      <trkpt lat="47.83327" lon="-2.83613">
        <ele>136</ele>
        <time>2013-08-22T12:56:06Z</time>
      </trkpt>
      <trkpt lat="47.83328" lon="-2.83626">
        <ele>136</ele>
        <time>2013-08-22T12:56:13Z</time>
      </trkpt>
      <trkpt lat="47.83328" lon="-2.83638">
        <ele>135</ele>
        <time>2013-08-22T12:56:20Z</time>
      </trkpt>
      <trkpt lat="47.83328" lon="-2.8365">
        <ele>134</ele>
        <time>2013-08-22T12:56:26Z</time>
      </trkpt>
      <trkpt lat="47.83328" lon="-2.83663">
        <ele>133</ele>
        <time>2013-08-22T12:56:32Z</time>
      </trkpt>
      <trkpt lat="47.83328" lon="-2.83675">
        <ele>133</ele>
        <time>2013-08-22T12:56:38Z</time>
      </trkpt>
      <trkpt lat="47.83328" lon="-2.83687">
        <ele>133</ele>
        <time>2013-08-22T12:56:44Z</time>
      </trkpt>
      <trkpt lat="47.83328" lon="-2.83698">
        <ele>133</ele>
        <time>2013-08-22T12:56:49Z</time>
      </trkpt>
      <trkpt lat="47.83326" lon="-2.83711">
        <ele>133</ele>
        <time>2013-08-22T12:56:55Z</time>
      </trkpt>
      <trkpt lat="47.83326" lon="-2.83723">
        <ele>133</ele>
        <time>2013-08-22T12:57:02Z</time>
      </trkpt>
      <trkpt lat="47.83328" lon="-2.83735">
        <ele>132</ele>
        <time>2013-08-22T12:57:08Z</time>
      </trkpt>
      <trkpt lat="47.83329" lon="-2.83747">
        <ele>131</ele>
        <time>2013-08-22T12:57:14Z</time>
      </trkpt>
      <trkpt lat="47.83329" lon="-2.83759">
        <ele>131</ele>
        <time>2013-08-22T12:57:20Z</time>
      </trkpt>
      <trkpt lat="47.83331" lon="-2.83771">
        <ele>131</ele>
        <time>2013-08-22T12:57:26Z</time>
      </trkpt>
      <trkpt lat="47.83332" lon="-2.83784">
        <ele>131</ele>
        <time>2013-08-22T12:57:32Z</time>
      </trkpt>
      <trkpt lat="47.83334" lon="-2.83797">
        <ele>130</ele>
        <time>2013-08-22T12:57:39Z</time>
      </trkpt>
      <trkpt lat="47.83337" lon="-2.83809">
        <ele>130</ele>
        <time>2013-08-22T12:57:45Z</time>
      </trkpt>
      <trkpt lat="47.8334" lon="-2.8382">
        <ele>130</ele>
        <time>2013-08-22T12:57:51Z</time>
      </trkpt>
      <trkpt lat="47.83342" lon="-2.83832">
        <ele>129</ele>
        <time>2013-08-22T12:57:57Z</time>
      </trkpt>
      <trkpt lat="47.83344" lon="-2.83845">
        <ele>128</ele>
        <time>2013-08-22T12:58:03Z</time>
      </trkpt>
      <trkpt lat="47.8335" lon="-2.83854">
        <ele>128</ele>
        <time>2013-08-22T12:58:20Z</time>
      </trkpt>
      <trkpt lat="47.83358" lon="-2.83857">
        <ele>127</ele>
        <time>2013-08-22T12:58:26Z</time>
      </trkpt>
      <trkpt lat="47.83366" lon="-2.8386">
        <ele>127</ele>
        <time>2013-08-22T12:58:34Z</time>
      </trkpt>
      <trkpt lat="47.83374" lon="-2.83863">
        <ele>127</ele>
        <time>2013-08-22T12:58:41Z</time>
      </trkpt>
      <trkpt lat="47.83382" lon="-2.83868">
        <ele>128</ele>
        <time>2013-08-22T12:58:50Z</time>
      </trkpt>
      <trkpt lat="47.83391" lon="-2.83873">
        <ele>128</ele>
        <time>2013-08-22T12:58:58Z</time>
      </trkpt>
      <trkpt lat="47.83399" lon="-2.83877">
        <ele>128</ele>
        <time>2013-08-22T12:59:07Z</time>
      </trkpt>
      <trkpt lat="47.83407" lon="-2.83882">
        <ele>128</ele>
        <time>2013-08-22T12:59:15Z</time>
      </trkpt>
      <trkpt lat="47.83413" lon="-2.83888">
        <ele>128</ele>
        <time>2013-08-22T12:59:22Z</time>
      </trkpt>
      <trkpt lat="47.83419" lon="-2.83898">
        <ele>128</ele>
        <time>2013-08-22T12:59:27Z</time>
      </trkpt>
      <trkpt lat="47.83425" lon="-2.83907">
        <ele>128</ele>
        <time>2013-08-22T12:59:32Z</time>
      </trkpt>
      <trkpt lat="47.83433" lon="-2.83913">
        <ele>128</ele>
        <time>2013-08-22T12:59:38Z</time>
      </trkpt>
      <trkpt lat="47.83441" lon="-2.83914">
        <ele>128</ele>
        <time>2013-08-22T12:59:44Z</time>
      </trkpt>
      <trkpt lat="47.83449" lon="-2.83913">
        <ele>128</ele>
        <time>2013-08-22T12:59:50Z</time>
      </trkpt>
      <trkpt lat="47.83458" lon="-2.83919">
        <ele>127</ele>
        <time>2013-08-22T12:59:55Z</time>
      </trkpt>
      <trkpt lat="47.83459" lon="-2.8392">
        <ele>126</ele>
        <time>2013-08-22T13:00:10Z</time>
      </trkpt>
      <trkpt lat="47.8347" lon="-2.83933">
        <ele>127</ele>
        <time>2013-08-22T13:00:15Z</time>
      </trkpt>
      <trkpt lat="47.83476" lon="-2.8394">
        <ele>126</ele>
        <time>2013-08-22T13:00:23Z</time>
      </trkpt>
      <trkpt lat="47.83484" lon="-2.83939">
        <ele>124</ele>
        <time>2013-08-22T13:00:29Z</time>
      </trkpt>
      <trkpt lat="47.83491" lon="-2.83947">
        <ele>125</ele>
        <time>2013-08-22T13:00:37Z</time>
      </trkpt>
      <trkpt lat="47.83499" lon="-2.83951">
        <ele>125</ele>
        <time>2013-08-22T13:00:43Z</time>
      </trkpt>
      <trkpt lat="47.83507" lon="-2.83954">
        <ele>125</ele>
        <time>2013-08-22T13:00:52Z</time>
      </trkpt>
      <trkpt lat="47.83515" lon="-2.8396">
        <ele>128</ele>
        <time>2013-08-22T13:01:16Z</time>
      </trkpt>
      <trkpt lat="47.83522" lon="-2.8396">
        <ele>128</ele>
        <time>2013-08-22T13:01:55Z</time>
      </trkpt>
      <trkpt lat="47.83521" lon="-2.83967">
        <ele>123</ele>
        <time>2013-08-22T13:03:03Z</time>
      </trkpt>
      <trkpt lat="47.83514" lon="-2.83973">
        <ele>123</ele>
        <time>2013-08-22T13:03:12Z</time>
      </trkpt>
      <trkpt lat="47.83507" lon="-2.8398">
        <ele>121</ele>
        <time>2013-08-22T13:03:41Z</time>
      </trkpt>
      <trkpt lat="47.835" lon="-2.83988">
        <ele>121</ele>
        <time>2013-08-22T13:03:53Z</time>
      </trkpt>
      <trkpt lat="47.83503" lon="-2.83999">
        <ele>121</ele>
        <time>2013-08-22T13:03:59Z</time>
      </trkpt>
      <trkpt lat="47.83503" lon="-2.84011">
        <ele>122</ele>
        <time>2013-08-22T13:04:05Z</time>
      </trkpt>
      <trkpt lat="47.83507" lon="-2.84022">
        <ele>122</ele>
        <time>2013-08-22T13:04:16Z</time>
      </trkpt>
      <trkpt lat="47.83513" lon="-2.84031">
        <ele>122</ele>
        <time>2013-08-22T13:04:26Z</time>
      </trkpt>
      <trkpt lat="47.83519" lon="-2.8404">
        <ele>122</ele>
        <time>2013-08-22T13:04:33Z</time>
      </trkpt>
      <trkpt lat="47.83521" lon="-2.84046">
        <ele>122</ele>
        <time>2013-08-22T13:04:45Z</time>
      </trkpt>
      <trkpt lat="47.83526" lon="-2.84056">
        <ele>124</ele>
        <time>2013-08-22T13:05:08Z</time>
      </trkpt>
      <trkpt lat="47.83532" lon="-2.84066">
        <ele>127</ele>
        <time>2013-08-22T13:05:17Z</time>
      </trkpt>
      <trkpt lat="47.83533" lon="-2.8408">
        <ele>126</ele>
        <time>2013-08-22T13:05:25Z</time>
      </trkpt>
      <trkpt lat="47.83532" lon="-2.84092">
        <ele>126</ele>
        <time>2013-08-22T13:05:34Z</time>
      </trkpt>
      <trkpt lat="47.8353" lon="-2.84105">
        <ele>126</ele>
        <time>2013-08-22T13:05:40Z</time>
      </trkpt>
      <trkpt lat="47.83526" lon="-2.84117">
        <ele>124</ele>
        <time>2013-08-22T13:05:48Z</time>
      </trkpt>
      <trkpt lat="47.83522" lon="-2.84127">
        <ele>124</ele>
        <time>2013-08-22T13:05:55Z</time>
      </trkpt>
      <trkpt lat="47.8352" lon="-2.84138">
        <ele>124</ele>
        <time>2013-08-22T13:06:01Z</time>
      </trkpt>
      <trkpt lat="47.83521" lon="-2.8415">
        <ele>125</ele>
        <time>2013-08-22T13:06:06Z</time>
      </trkpt>
      <trkpt lat="47.83521" lon="-2.84162">
        <ele>123</ele>
        <time>2013-08-22T13:06:16Z</time>
      </trkpt>
      <trkpt lat="47.83525" lon="-2.84174">
        <ele>122</ele>
        <time>2013-08-22T13:06:38Z</time>
      </trkpt>
      <trkpt lat="47.83533" lon="-2.84178">
        <ele>121</ele>
        <time>2013-08-22T13:06:44Z</time>
      </trkpt>
      <trkpt lat="47.8354" lon="-2.84184">
        <ele>120</ele>
        <time>2013-08-22T13:06:50Z</time>
      </trkpt>
      <trkpt lat="47.83548" lon="-2.84189">
        <ele>120</ele>
        <time>2013-08-22T13:06:57Z</time>
      </trkpt>
      <trkpt lat="47.83556" lon="-2.84194">
        <ele>120</ele>
        <time>2013-08-22T13:07:06Z</time>
      </trkpt>
      <trkpt lat="47.83563" lon="-2.84198">
        <ele>121</ele>
        <time>2013-08-22T13:07:12Z</time>
      </trkpt>
      <trkpt lat="47.83571" lon="-2.84202">
        <ele>121</ele>
        <time>2013-08-22T13:07:17Z</time>
      </trkpt>
      <trkpt lat="47.83579" lon="-2.84208">
        <ele>121</ele>
        <time>2013-08-22T13:07:26Z</time>
      </trkpt>
      <trkpt lat="47.83586" lon="-2.84211">
        <ele>121</ele>
        <time>2013-08-22T13:07:32Z</time>
      </trkpt>
      <trkpt lat="47.83595" lon="-2.84213">
        <ele>121</ele>
        <time>2013-08-22T13:07:37Z</time>
      </trkpt>
      <trkpt lat="47.83603" lon="-2.84216">
        <ele>121</ele>
        <time>2013-08-22T13:07:42Z</time>
      </trkpt>
      <trkpt lat="47.8361" lon="-2.84221">
        <ele>121</ele>
        <time>2013-08-22T13:07:50Z</time>
      </trkpt>
      <trkpt lat="47.83612" lon="-2.84234">
        <ele>121</ele>
        <time>2013-08-22T13:07:59Z</time>
      </trkpt>
      <trkpt lat="47.83612" lon="-2.84245">
        <ele>120</ele>
        <time>2013-08-22T13:08:05Z</time>
      </trkpt>
      <trkpt lat="47.83612" lon="-2.8425">
        <ele>119</ele>
        <time>2013-08-22T13:08:23Z</time>
      </trkpt>
      <trkpt lat="47.83612" lon="-2.84266">
        <ele>117</ele>
        <time>2013-08-22T13:08:28Z</time>
      </trkpt>
      <trkpt lat="47.83611" lon="-2.84278">
        <ele>116</ele>
        <time>2013-08-22T13:08:38Z</time>
      </trkpt>
      <trkpt lat="47.83607" lon="-2.8429">
        <ele>115</ele>
        <time>2013-08-22T13:08:47Z</time>
      </trkpt>
      <trkpt lat="47.83604" lon="-2.84303">
        <ele>114</ele>
        <time>2013-08-22T13:08:56Z</time>
      </trkpt>
      <trkpt lat="47.836" lon="-2.84314">
        <ele>114</ele>
        <time>2013-08-22T13:09:04Z</time>
      </trkpt>
      <trkpt lat="47.83598" lon="-2.84326">
        <ele>114</ele>
        <time>2013-08-22T13:09:13Z</time>
      </trkpt>
      <trkpt lat="47.83591" lon="-2.84331">
        <ele>114</ele>
        <time>2013-08-22T13:09:18Z</time>
      </trkpt>
      <trkpt lat="47.83586" lon="-2.84343">
        <ele>115</ele>
        <time>2013-08-22T13:09:27Z</time>
      </trkpt>
      <trkpt lat="47.83582" lon="-2.84354">
        <ele>115</ele>
        <time>2013-08-22T13:09:35Z</time>
      </trkpt>
      <trkpt lat="47.83579" lon="-2.84364">
        <ele>113</ele>
        <time>2013-08-22T13:09:40Z</time>
      </trkpt>
      <trkpt lat="47.83576" lon="-2.84374">
        <ele>114</ele>
        <time>2013-08-22T13:09:47Z</time>
      </trkpt>
      <trkpt lat="47.83571" lon="-2.84384">
        <ele>113</ele>
        <time>2013-08-22T13:09:53Z</time>
      </trkpt>
      <trkpt lat="47.83572" lon="-2.84397">
        <ele>112</ele>
        <time>2013-08-22T13:10:01Z</time>
      </trkpt>
      <trkpt lat="47.83571" lon="-2.84409">
        <ele>112</ele>
        <time>2013-08-22T13:10:06Z</time>
      </trkpt>
      <trkpt lat="47.83569" lon="-2.84419">
        <ele>111</ele>
        <time>2013-08-22T13:10:11Z</time>
      </trkpt>
      <trkpt lat="47.83566" lon="-2.84431">
        <ele>111</ele>
        <time>2013-08-22T13:10:16Z</time>
      </trkpt>
      <trkpt lat="47.83561" lon="-2.84442">
        <ele>111</ele>
        <time>2013-08-22T13:10:21Z</time>
      </trkpt>
      <trkpt lat="47.8356" lon="-2.84454">
        <ele>112</ele>
        <time>2013-08-22T13:10:26Z</time>
      </trkpt>
      <trkpt lat="47.83557" lon="-2.84466">
        <ele>112</ele>
        <time>2013-08-22T13:10:34Z</time>
      </trkpt>
      <trkpt lat="47.83558" lon="-2.84478">
        <ele>113</ele>
        <time>2013-08-22T13:10:43Z</time>
      </trkpt>
      <trkpt lat="47.83561" lon="-2.8449">
        <ele>113</ele>
        <time>2013-08-22T13:10:51Z</time>
      </trkpt>
      <trkpt lat="47.83566" lon="-2.84501">
        <ele>113</ele>
        <time>2013-08-22T13:10:59Z</time>
      </trkpt>
      <trkpt lat="47.83568" lon="-2.84513">
        <ele>111</ele>
        <time>2013-08-22T13:11:12Z</time>
      </trkpt>
      <trkpt lat="47.83572" lon="-2.84525">
        <ele>112</ele>
        <time>2013-08-22T13:11:24Z</time>
      </trkpt>
      <trkpt lat="47.83579" lon="-2.84532">
        <ele>112</ele>
        <time>2013-08-22T13:11:31Z</time>
      </trkpt>
      <trkpt lat="47.83587" lon="-2.84538">
        <ele>112</ele>
        <time>2013-08-22T13:11:38Z</time>
      </trkpt>
      <trkpt lat="47.83595" lon="-2.8454">
        <ele>111</ele>
        <time>2013-08-22T13:11:43Z</time>
      </trkpt>
      <trkpt lat="47.83604" lon="-2.84541">
        <ele>112</ele>
        <time>2013-08-22T13:11:49Z</time>
      </trkpt>
      <trkpt lat="47.83611" lon="-2.84547">
        <ele>111</ele>
        <time>2013-08-22T13:11:54Z</time>
      </trkpt>
      <trkpt lat="47.83619" lon="-2.84551">
        <ele>110</ele>
        <time>2013-08-22T13:12:00Z</time>
      </trkpt>
      <trkpt lat="47.83626" lon="-2.84554">
        <ele>111</ele>
        <time>2013-08-22T13:12:05Z</time>
      </trkpt>
      <trkpt lat="47.83634" lon="-2.84558">
        <ele>111</ele>
        <time>2013-08-22T13:12:14Z</time>
      </trkpt>
      <trkpt lat="47.83641" lon="-2.84562">
        <ele>111</ele>
        <time>2013-08-22T13:12:20Z</time>
      </trkpt>
      <trkpt lat="47.83649" lon="-2.84566">
        <ele>112</ele>
        <time>2013-08-22T13:12:25Z</time>
      </trkpt>
      <trkpt lat="47.83657" lon="-2.84569">
        <ele>108</ele>
        <time>2013-08-22T13:12:31Z</time>
      </trkpt>
      <trkpt lat="47.83665" lon="-2.8457">
        <ele>107</ele>
        <time>2013-08-22T13:12:36Z</time>
      </trkpt>
      <trkpt lat="47.83674" lon="-2.8457">
        <ele>108</ele>
        <time>2013-08-22T13:12:43Z</time>
      </trkpt>
      <trkpt lat="47.83682" lon="-2.84569">
        <ele>109</ele>
        <time>2013-08-22T13:12:49Z</time>
      </trkpt>
      <trkpt lat="47.8369" lon="-2.84568">
        <ele>110</ele>
        <time>2013-08-22T13:12:55Z</time>
      </trkpt>
      <trkpt lat="47.83698" lon="-2.84565">
        <ele>110</ele>
        <time>2013-08-22T13:13:01Z</time>
      </trkpt>
      <trkpt lat="47.83706" lon="-2.84564">
        <ele>111</ele>
        <time>2013-08-22T13:13:06Z</time>
      </trkpt>
      <trkpt lat="47.83715" lon="-2.84563">
        <ele>111</ele>
        <time>2013-08-22T13:13:11Z</time>
      </trkpt>
      <trkpt lat="47.83723" lon="-2.84562">
        <ele>111</ele>
        <time>2013-08-22T13:13:16Z</time>
      </trkpt>
      <trkpt lat="47.8373" lon="-2.84562">
        <ele>112</ele>
        <time>2013-08-22T13:13:21Z</time>
      </trkpt>
      <trkpt lat="47.83739" lon="-2.84564">
        <ele>111</ele>
        <time>2013-08-22T13:13:26Z</time>
      </trkpt>
      <trkpt lat="47.83747" lon="-2.84568">
        <ele>110</ele>
        <time>2013-08-22T13:14:23Z</time>
      </trkpt>
      <trkpt lat="47.83761" lon="-2.84573">
        <ele>105</ele>
        <time>2013-08-22T13:14:27Z</time>
      </trkpt>
      <trkpt lat="47.83763" lon="-2.84585">
        <ele>101</ele>
        <time>2013-08-22T13:16:04Z</time>
      </trkpt>
      <trkpt lat="47.83761" lon="-2.84598">
        <ele>101</ele>
        <time>2013-08-22T13:16:11Z</time>
      </trkpt>
      <trkpt lat="47.83759" lon="-2.84611">
        <ele>100</ele>
        <time>2013-08-22T13:16:18Z</time>
      </trkpt>
      <trkpt lat="47.83758" lon="-2.84624">
        <ele>101</ele>
        <time>2013-08-22T13:16:25Z</time>
      </trkpt>
      <trkpt lat="47.83756" lon="-2.84636">
        <ele>101</ele>
        <time>2013-08-22T13:16:31Z</time>
      </trkpt>
      <trkpt lat="47.83755" lon="-2.84648">
        <ele>102</ele>
        <time>2013-08-22T13:16:36Z</time>
      </trkpt>
      <trkpt lat="47.83755" lon="-2.84659">
        <ele>103</ele>
        <time>2013-08-22T13:16:42Z</time>
      </trkpt>
      <trkpt lat="47.83753" lon="-2.84671">
        <ele>103</ele>
        <time>2013-08-22T13:16:48Z</time>
      </trkpt>
      <trkpt lat="47.83753" lon="-2.84684">
        <ele>103</ele>
        <time>2013-08-22T13:16:55Z</time>
      </trkpt>
      <trkpt lat="47.83753" lon="-2.84697">
        <ele>104</ele>
        <time>2013-08-22T13:17:02Z</time>
      </trkpt>
      <trkpt lat="47.83753" lon="-2.84708">
        <ele>106</ele>
        <time>2013-08-22T13:17:08Z</time>
      </trkpt>
      <trkpt lat="47.83752" lon="-2.84719">
        <ele>106</ele>
        <time>2013-08-22T13:17:13Z</time>
      </trkpt>
      <trkpt lat="47.83752" lon="-2.84731">
        <ele>106</ele>
        <time>2013-08-22T13:17:19Z</time>
      </trkpt>
      <trkpt lat="47.83751" lon="-2.84744">
        <ele>106</ele>
        <time>2013-08-22T13:17:25Z</time>
      </trkpt>
      <trkpt lat="47.83751" lon="-2.84756">
        <ele>107</ele>
        <time>2013-08-22T13:17:31Z</time>
      </trkpt>
      <trkpt lat="47.8375" lon="-2.84768">
        <ele>106</ele>
        <time>2013-08-22T13:17:37Z</time>
      </trkpt>
      <trkpt lat="47.83749" lon="-2.8478">
        <ele>107</ele>
        <time>2013-08-22T13:17:43Z</time>
      </trkpt>
      <trkpt lat="47.83748" lon="-2.84794">
        <ele>108</ele>
        <time>2013-08-22T13:17:50Z</time>
      </trkpt>
      <trkpt lat="47.83748" lon="-2.84806">
        <ele>108</ele>
        <time>2013-08-22T13:17:57Z</time>
      </trkpt>
      <trkpt lat="47.83747" lon="-2.84819">
        <ele>109</ele>
        <time>2013-08-22T13:18:03Z</time>
      </trkpt>
      <trkpt lat="47.83746" lon="-2.84831">
        <ele>109</ele>
        <time>2013-08-22T13:18:10Z</time>
      </trkpt>
      <trkpt lat="47.83746" lon="-2.84844">
        <ele>109</ele>
        <time>2013-08-22T13:18:17Z</time>
      </trkpt>
      <trkpt lat="47.83745" lon="-2.84856">
        <ele>110</ele>
        <time>2013-08-22T13:18:23Z</time>
      </trkpt>
      <trkpt lat="47.83744" lon="-2.84869">
        <ele>111</ele>
        <time>2013-08-22T13:18:30Z</time>
      </trkpt>
      <trkpt lat="47.83743" lon="-2.8488">
        <ele>110</ele>
        <time>2013-08-22T13:18:36Z</time>
      </trkpt>
      <trkpt lat="47.83742" lon="-2.84893">
        <ele>111</ele>
        <time>2013-08-22T13:18:42Z</time>
      </trkpt>
      <trkpt lat="47.83741" lon="-2.84906">
        <ele>112</ele>
        <time>2013-08-22T13:18:48Z</time>
      </trkpt>
      <trkpt lat="47.83741" lon="-2.84919">
        <ele>112</ele>
        <time>2013-08-22T13:18:54Z</time>
      </trkpt>
      <trkpt lat="47.83739" lon="-2.84931">
        <ele>112</ele>
        <time>2013-08-22T13:19:00Z</time>
      </trkpt>
      <trkpt lat="47.83739" lon="-2.84944">
        <ele>114</ele>
        <time>2013-08-22T13:19:07Z</time>
      </trkpt>
      <trkpt lat="47.83739" lon="-2.84957">
        <ele>115</ele>
        <time>2013-08-22T13:19:19Z</time>
      </trkpt>
      <trkpt lat="47.83738" lon="-2.84968">
        <ele>115</ele>
        <time>2013-08-22T13:19:25Z</time>
      </trkpt>
      <trkpt lat="47.83737" lon="-2.84981">
        <ele>115</ele>
        <time>2013-08-22T13:19:30Z</time>
      </trkpt>
      <trkpt lat="47.83736" lon="-2.84994">
        <ele>115</ele>
        <time>2013-08-22T13:19:36Z</time>
      </trkpt>
      <trkpt lat="47.83735" lon="-2.85007">
        <ele>116</ele>
        <time>2013-08-22T13:19:43Z</time>
      </trkpt>
      <trkpt lat="47.83734" lon="-2.85019">
        <ele>116</ele>
        <time>2013-08-22T13:19:50Z</time>
      </trkpt>
      <trkpt lat="47.83734" lon="-2.85032">
        <ele>117</ele>
        <time>2013-08-22T13:19:58Z</time>
      </trkpt>
      <trkpt lat="47.83733" lon="-2.85045">
        <ele>117</ele>
        <time>2013-08-22T13:20:04Z</time>
      </trkpt>
      <trkpt lat="47.83731" lon="-2.85055">
        <ele>118</ele>
        <time>2013-08-22T13:20:13Z</time>
      </trkpt>
      <trkpt lat="47.83725" lon="-2.85064">
        <ele>120</ele>
        <time>2013-08-22T13:20:18Z</time>
      </trkpt>
      <trkpt lat="47.83717" lon="-2.85068">
        <ele>121</ele>
        <time>2013-08-22T13:20:30Z</time>
      </trkpt>
      <trkpt lat="47.83718" lon="-2.85082">
        <ele>122</ele>
        <time>2013-08-22T13:21:40Z</time>
      </trkpt>
      <trkpt lat="47.8372" lon="-2.85095">
        <ele>122</ele>
        <time>2013-08-22T13:21:51Z</time>
      </trkpt>
      <trkpt lat="47.83722" lon="-2.85107">
        <ele>122</ele>
        <time>2013-08-22T13:21:59Z</time>
      </trkpt>
      <trkpt lat="47.83722" lon="-2.85118">
        <ele>122</ele>
        <time>2013-08-22T13:22:06Z</time>
      </trkpt>
      <trkpt lat="47.83722" lon="-2.85131">
        <ele>122</ele>
        <time>2013-08-22T13:22:14Z</time>
      </trkpt>
      <trkpt lat="47.83724" lon="-2.85144">
        <ele>121</ele>
        <time>2013-08-22T13:22:21Z</time>
      </trkpt>
      <trkpt lat="47.83724" lon="-2.85157">
        <ele>120</ele>
        <time>2013-08-22T13:24:00Z</time>
      </trkpt>
      <trkpt lat="47.83726" lon="-2.85144">
        <ele>118</ele>
        <time>2013-08-22T13:25:17Z</time>
      </trkpt>
      <trkpt lat="47.83728" lon="-2.85131">
        <ele>118</ele>
        <time>2013-08-22T13:25:32Z</time>
      </trkpt>
      <trkpt lat="47.83728" lon="-2.85118">
        <ele>117</ele>
        <time>2013-08-22T13:25:42Z</time>
      </trkpt>
      <trkpt lat="47.83728" lon="-2.85104">
        <ele>116</ele>
        <time>2013-08-22T13:25:47Z</time>
      </trkpt>
      <trkpt lat="47.83728" lon="-2.8509">
        <ele>115</ele>
        <time>2013-08-22T13:25:56Z</time>
      </trkpt>
      <trkpt lat="47.83725" lon="-2.85086">
        <ele>116</ele>
        <time>2013-08-22T13:26:59Z</time>
      </trkpt>
      <trkpt lat="47.83728" lon="-2.85074">
        <ele>117</ele>
        <time>2013-08-22T13:27:07Z</time>
      </trkpt>
      <trkpt lat="47.83737" lon="-2.85072">
        <ele>117</ele>
        <time>2013-08-22T13:27:14Z</time>
      </trkpt>
      <trkpt lat="47.83745" lon="-2.8507">
        <ele>117</ele>
        <time>2013-08-22T13:27:21Z</time>
      </trkpt>
      <trkpt lat="47.83754" lon="-2.85067">
        <ele>117</ele>
        <time>2013-08-22T13:27:28Z</time>
      </trkpt>
      <trkpt lat="47.83763" lon="-2.85066">
        <ele>118</ele>
        <time>2013-08-22T13:27:35Z</time>
      </trkpt>
      <trkpt lat="47.83771" lon="-2.85064">
        <ele>119</ele>
        <time>2013-08-22T13:27:41Z</time>
      </trkpt>
      <trkpt lat="47.83779" lon="-2.8506">
        <ele>118</ele>
        <time>2013-08-22T13:27:47Z</time>
      </trkpt>
      <trkpt lat="47.83787" lon="-2.85059">
        <ele>118</ele>
        <time>2013-08-22T13:27:54Z</time>
      </trkpt>
      <trkpt lat="47.83796" lon="-2.85057">
        <ele>119</ele>
        <time>2013-08-22T13:28:00Z</time>
      </trkpt>
      <trkpt lat="47.83804" lon="-2.85055">
        <ele>118</ele>
        <time>2013-08-22T13:28:05Z</time>
      </trkpt>
      <trkpt lat="47.83813" lon="-2.85052">
        <ele>118</ele>
        <time>2013-08-22T13:28:12Z</time>
      </trkpt>
      <trkpt lat="47.83821" lon="-2.85049">
        <ele>118</ele>
        <time>2013-08-22T13:28:19Z</time>
      </trkpt>
      <trkpt lat="47.83829" lon="-2.85046">
        <ele>118</ele>
        <time>2013-08-22T13:28:25Z</time>
      </trkpt>
      <trkpt lat="47.83838" lon="-2.85044">
        <ele>118</ele>
        <time>2013-08-22T13:28:32Z</time>
      </trkpt>
      <trkpt lat="47.83845" lon="-2.85043">
        <ele>118</ele>
        <time>2013-08-22T13:28:37Z</time>
      </trkpt>
      <trkpt lat="47.83854" lon="-2.85039">
        <ele>118</ele>
        <time>2013-08-22T13:28:42Z</time>
      </trkpt>
      <trkpt lat="47.83862" lon="-2.85034">
        <ele>117</ele>
        <time>2013-08-22T13:28:48Z</time>
      </trkpt>
      <trkpt lat="47.8387" lon="-2.85028">
        <ele>116</ele>
        <time>2013-08-22T13:28:54Z</time>
      </trkpt>
      <trkpt lat="47.83878" lon="-2.85024">
        <ele>115</ele>
        <time>2013-08-22T13:28:59Z</time>
      </trkpt>
      <trkpt lat="47.83885" lon="-2.85023">
        <ele>112</ele>
        <time>2013-08-22T13:29:03Z</time>
      </trkpt>
      <trkpt lat="47.83893" lon="-2.85021">
        <ele>111</ele>
        <time>2013-08-22T13:29:08Z</time>
      </trkpt>
      <trkpt lat="47.83898" lon="-2.85031">
        <ele>111</ele>
        <time>2013-08-22T13:29:15Z</time>
      </trkpt>
      <trkpt lat="47.83898" lon="-2.85044">
        <ele>112</ele>
        <time>2013-08-22T13:29:23Z</time>
      </trkpt>
      <trkpt lat="47.83897" lon="-2.85056">
        <ele>112</ele>
        <time>2013-08-22T13:29:29Z</time>
      </trkpt>
      <trkpt lat="47.83897" lon="-2.85069">
        <ele>113</ele>
        <time>2013-08-22T13:29:36Z</time>
      </trkpt>
      <trkpt lat="47.83897" lon="-2.85082">
        <ele>113</ele>
        <time>2013-08-22T13:29:43Z</time>
      </trkpt>
      <trkpt lat="47.83896" lon="-2.85095">
        <ele>114</ele>
        <time>2013-08-22T13:29:50Z</time>
      </trkpt>
      <trkpt lat="47.83898" lon="-2.85107">
        <ele>115</ele>
        <time>2013-08-22T13:29:56Z</time>
      </trkpt>
      <trkpt lat="47.83899" lon="-2.85119">
        <ele>115</ele>
        <time>2013-08-22T13:30:02Z</time>
      </trkpt>
      <trkpt lat="47.839" lon="-2.85131">
        <ele>116</ele>
        <time>2013-08-22T13:30:09Z</time>
      </trkpt>
      <trkpt lat="47.839" lon="-2.85142">
        <ele>117</ele>
        <time>2013-08-22T13:30:15Z</time>
      </trkpt>
      <trkpt lat="47.83897" lon="-2.85155">
        <ele>117</ele>
        <time>2013-08-22T13:30:22Z</time>
      </trkpt>
      <trkpt lat="47.83895" lon="-2.85167">
        <ele>117</ele>
        <time>2013-08-22T13:30:28Z</time>
      </trkpt>
      <trkpt lat="47.83892" lon="-2.85179">
        <ele>117</ele>
        <time>2013-08-22T13:30:34Z</time>
      </trkpt>
      <trkpt lat="47.83888" lon="-2.85189">
        <ele>117</ele>
        <time>2013-08-22T13:30:41Z</time>
      </trkpt>
      <trkpt lat="47.83884" lon="-2.85199">
        <ele>117</ele>
        <time>2013-08-22T13:30:46Z</time>
      </trkpt>
      <trkpt lat="47.8388" lon="-2.85211">
        <ele>117</ele>
        <time>2013-08-22T13:30:52Z</time>
      </trkpt>
      <trkpt lat="47.83876" lon="-2.85221">
        <ele>118</ele>
        <time>2013-08-22T13:30:58Z</time>
      </trkpt>
      <trkpt lat="47.83872" lon="-2.85231">
        <ele>119</ele>
        <time>2013-08-22T13:31:03Z</time>
      </trkpt>
      <trkpt lat="47.83868" lon="-2.85241">
        <ele>120</ele>
        <time>2013-08-22T13:31:09Z</time>
      </trkpt>
      <trkpt lat="47.83864" lon="-2.85251">
        <ele>121</ele>
        <time>2013-08-22T13:31:14Z</time>
      </trkpt>
      <trkpt lat="47.8386" lon="-2.85262">
        <ele>121</ele>
        <time>2013-08-22T13:31:20Z</time>
      </trkpt>
      <trkpt lat="47.83855" lon="-2.85272">
        <ele>122</ele>
        <time>2013-08-22T13:31:26Z</time>
      </trkpt>
      <trkpt lat="47.83851" lon="-2.85283">
        <ele>123</ele>
        <time>2013-08-22T13:31:32Z</time>
      </trkpt>
      <trkpt lat="47.83847" lon="-2.85294">
        <ele>123</ele>
        <time>2013-08-22T13:31:38Z</time>
      </trkpt>
      <trkpt lat="47.83842" lon="-2.85303">
        <ele>123</ele>
        <time>2013-08-22T13:31:44Z</time>
      </trkpt>
      <trkpt lat="47.83838" lon="-2.85313">
        <ele>123</ele>
        <time>2013-08-22T13:31:50Z</time>
      </trkpt>
      <trkpt lat="47.83834" lon="-2.85323">
        <ele>124</ele>
        <time>2013-08-22T13:31:56Z</time>
      </trkpt>
      <trkpt lat="47.8383" lon="-2.85334">
        <ele>125</ele>
        <time>2013-08-22T13:32:03Z</time>
      </trkpt>
      <trkpt lat="47.83825" lon="-2.85345">
        <ele>125</ele>
        <time>2013-08-22T13:32:10Z</time>
      </trkpt>
      <trkpt lat="47.83822" lon="-2.85355">
        <ele>125</ele>
        <time>2013-08-22T13:32:16Z</time>
      </trkpt>
      <trkpt lat="47.83818" lon="-2.85367">
        <ele>125</ele>
        <time>2013-08-22T13:32:23Z</time>
      </trkpt>
      <trkpt lat="47.83815" lon="-2.85378">
        <ele>125</ele>
        <time>2013-08-22T13:32:29Z</time>
      </trkpt>
      <trkpt lat="47.83811" lon="-2.85387">
        <ele>126</ele>
        <time>2013-08-22T13:32:35Z</time>
      </trkpt>
      <trkpt lat="47.83808" lon="-2.85398">
        <ele>126</ele>
        <time>2013-08-22T13:32:40Z</time>
      </trkpt>
      <trkpt lat="47.83804" lon="-2.85408">
        <ele>126</ele>
        <time>2013-08-22T13:32:45Z</time>
      </trkpt>
      <trkpt lat="47.83799" lon="-2.85417">
        <ele>127</ele>
        <time>2013-08-22T13:32:50Z</time>
      </trkpt>
      <trkpt lat="47.83793" lon="-2.85426">
        <ele>127</ele>
        <time>2013-08-22T13:32:56Z</time>
      </trkpt>
      <trkpt lat="47.83789" lon="-2.85436">
        <ele>127</ele>
        <time>2013-08-22T13:33:02Z</time>
      </trkpt>
      <trkpt lat="47.83785" lon="-2.85448">
        <ele>130</ele>
        <time>2013-08-22T13:33:58Z</time>
      </trkpt>
      <trkpt lat="47.83787" lon="-2.85459">
        <ele>129</ele>
        <time>2013-08-22T13:34:05Z</time>
      </trkpt>
      <trkpt lat="47.83789" lon="-2.8547">
        <ele>129</ele>
        <time>2013-08-22T13:34:12Z</time>
      </trkpt>
      <trkpt lat="47.83793" lon="-2.85482">
        <ele>129</ele>
        <time>2013-08-22T13:34:18Z</time>
      </trkpt>
      <trkpt lat="47.83796" lon="-2.85494">
        <ele>129</ele>
        <time>2013-08-22T13:34:25Z</time>
      </trkpt>
      <trkpt lat="47.83799" lon="-2.85506">
        <ele>130</ele>
        <time>2013-08-22T13:34:31Z</time>
      </trkpt>
      <trkpt lat="47.83801" lon="-2.85517">
        <ele>131</ele>
        <time>2013-08-22T13:34:36Z</time>
      </trkpt>
      <trkpt lat="47.83803" lon="-2.85529">
        <ele>131</ele>
        <time>2013-08-22T13:34:44Z</time>
      </trkpt>
      <trkpt lat="47.83806" lon="-2.8554">
        <ele>131</ele>
        <time>2013-08-22T13:34:52Z</time>
      </trkpt>
      <trkpt lat="47.83811" lon="-2.8555">
        <ele>132</ele>
        <time>2013-08-22T13:34:59Z</time>
      </trkpt>
      <trkpt lat="47.83815" lon="-2.85562">
        <ele>132</ele>
        <time>2013-08-22T13:35:05Z</time>
      </trkpt>
      <trkpt lat="47.83816" lon="-2.85575">
        <ele>131</ele>
        <time>2013-08-22T13:35:10Z</time>
      </trkpt>
      <trkpt lat="47.83818" lon="-2.85586">
        <ele>129</ele>
        <time>2013-08-22T13:35:14Z</time>
      </trkpt>
      <trkpt lat="47.8382" lon="-2.85597">
        <ele>129</ele>
        <time>2013-08-22T13:35:18Z</time>
      </trkpt>
      <trkpt lat="47.83823" lon="-2.85609">
        <ele>129</ele>
        <time>2013-08-22T13:35:23Z</time>
      </trkpt>
      <trkpt lat="47.83826" lon="-2.85621">
        <ele>129</ele>
        <time>2013-08-22T13:35:29Z</time>
      </trkpt>
      <trkpt lat="47.83829" lon="-2.85633">
        <ele>129</ele>
        <time>2013-08-22T13:35:35Z</time>
      </trkpt>
      <trkpt lat="47.83831" lon="-2.85644">
        <ele>129</ele>
        <time>2013-08-22T13:35:40Z</time>
      </trkpt>
      <trkpt lat="47.83834" lon="-2.85655">
        <ele>129</ele>
        <time>2013-08-22T13:35:46Z</time>
      </trkpt>
      <trkpt lat="47.83837" lon="-2.85667">
        <ele>128</ele>
        <time>2013-08-22T13:35:52Z</time>
      </trkpt>
      <trkpt lat="47.8384" lon="-2.85679">
        <ele>128</ele>
        <time>2013-08-22T13:35:58Z</time>
      </trkpt>
      <trkpt lat="47.83843" lon="-2.85691">
        <ele>128</ele>
        <time>2013-08-22T13:36:04Z</time>
      </trkpt>
      <trkpt lat="47.83845" lon="-2.85703">
        <ele>128</ele>
        <time>2013-08-22T13:36:10Z</time>
      </trkpt>
      <trkpt lat="47.83848" lon="-2.85715">
        <ele>128</ele>
        <time>2013-08-22T13:36:16Z</time>
      </trkpt>
      <trkpt lat="47.83852" lon="-2.85725">
        <ele>127</ele>
        <time>2013-08-22T13:36:22Z</time>
      </trkpt>
      <trkpt lat="47.83856" lon="-2.85735">
        <ele>126</ele>
        <time>2013-08-22T13:36:28Z</time>
      </trkpt>
      <trkpt lat="47.8386" lon="-2.85746">
        <ele>126</ele>
        <time>2013-08-22T13:36:34Z</time>
      </trkpt>
      <trkpt lat="47.83863" lon="-2.85757">
        <ele>125</ele>
        <time>2013-08-22T13:36:40Z</time>
      </trkpt>
      <trkpt lat="47.83863" lon="-2.8577">
        <ele>124</ele>
        <time>2013-08-22T13:36:45Z</time>
      </trkpt>
      <trkpt lat="47.83865" lon="-2.85783">
        <ele>124</ele>
        <time>2013-08-22T13:36:51Z</time>
      </trkpt>
      <trkpt lat="47.83868" lon="-2.85795">
        <ele>124</ele>
        <time>2013-08-22T13:36:58Z</time>
      </trkpt>
      <trkpt lat="47.83868" lon="-2.85809">
        <ele>124</ele>
        <time>2013-08-22T13:37:06Z</time>
      </trkpt>
      <trkpt lat="47.8386" lon="-2.85814">
        <ele>125</ele>
        <time>2013-08-22T13:37:56Z</time>
      </trkpt>
      <trkpt lat="47.83854" lon="-2.85823">
        <ele>124</ele>
        <time>2013-08-22T13:38:21Z</time>
      </trkpt>
      <trkpt lat="47.83849" lon="-2.8583">
        <ele>123</ele>
        <time>2013-08-22T13:38:26Z</time>
      </trkpt>
      <trkpt lat="47.83841" lon="-2.85836">
        <ele>123</ele>
        <time>2013-08-22T13:38:32Z</time>
      </trkpt>
      <trkpt lat="47.83834" lon="-2.85843">
        <ele>123</ele>
        <time>2013-08-22T13:38:39Z</time>
      </trkpt>
      <trkpt lat="47.83827" lon="-2.85849">
        <ele>123</ele>
        <time>2013-08-22T13:38:46Z</time>
      </trkpt>
      <trkpt lat="47.83819" lon="-2.85855">
        <ele>122</ele>
        <time>2013-08-22T13:38:50Z</time>
      </trkpt>
      <trkpt lat="47.83812" lon="-2.8586">
        <ele>122</ele>
        <time>2013-08-22T13:38:57Z</time>
      </trkpt>
      <trkpt lat="47.83805" lon="-2.85867">
        <ele>122</ele>
        <time>2013-08-22T13:39:03Z</time>
      </trkpt>
      <trkpt lat="47.83797" lon="-2.85873">
        <ele>121</ele>
        <time>2013-08-22T13:39:09Z</time>
      </trkpt>
      <trkpt lat="47.8379" lon="-2.85878">
        <ele>120</ele>
        <time>2013-08-22T13:39:15Z</time>
      </trkpt>
      <trkpt lat="47.83783" lon="-2.85883">
        <ele>120</ele>
        <time>2013-08-22T13:39:20Z</time>
      </trkpt>
      <trkpt lat="47.83774" lon="-2.85888">
        <ele>120</ele>
        <time>2013-08-22T13:39:26Z</time>
      </trkpt>
      <trkpt lat="47.83767" lon="-2.85892">
        <ele>121</ele>
        <time>2013-08-22T13:39:31Z</time>
      </trkpt>
      <trkpt lat="47.8376" lon="-2.85898">
        <ele>120</ele>
        <time>2013-08-22T13:39:37Z</time>
      </trkpt>
      <trkpt lat="47.83752" lon="-2.85904">
        <ele>118</ele>
        <time>2013-08-22T13:39:43Z</time>
      </trkpt>
      <trkpt lat="47.83745" lon="-2.8591">
        <ele>117</ele>
        <time>2013-08-22T13:39:50Z</time>
      </trkpt>
      <trkpt lat="47.83737" lon="-2.85915">
        <ele>118</ele>
        <time>2013-08-22T13:39:55Z</time>
      </trkpt>
      <trkpt lat="47.83731" lon="-2.8592">
        <ele>117</ele>
        <time>2013-08-22T13:39:59Z</time>
      </trkpt>
      <trkpt lat="47.83724" lon="-2.85925">
        <ele>117</ele>
        <time>2013-08-22T13:40:04Z</time>
      </trkpt>
      <trkpt lat="47.83717" lon="-2.8593">
        <ele>116</ele>
        <time>2013-08-22T13:40:10Z</time>
      </trkpt>
      <trkpt lat="47.8371" lon="-2.85936">
        <ele>115</ele>
        <time>2013-08-22T13:40:16Z</time>
      </trkpt>
      <trkpt lat="47.83703" lon="-2.85944">
        <ele>114</ele>
        <time>2013-08-22T13:40:24Z</time>
      </trkpt>
      <trkpt lat="47.83699" lon="-2.85955">
        <ele>114</ele>
        <time>2013-08-22T13:40:46Z</time>
      </trkpt>
      <trkpt lat="47.83702" lon="-2.85966">
        <ele>113</ele>
        <time>2013-08-22T13:40:57Z</time>
      </trkpt>
      <trkpt lat="47.83705" lon="-2.85979">
        <ele>113</ele>
        <time>2013-08-22T13:41:04Z</time>
      </trkpt>
      <trkpt lat="47.83709" lon="-2.85991">
        <ele>112</ele>
        <time>2013-08-22T13:41:11Z</time>
      </trkpt>
      <trkpt lat="47.8371" lon="-2.86003">
        <ele>111</ele>
        <time>2013-08-22T13:41:18Z</time>
      </trkpt>
      <trkpt lat="47.8371" lon="-2.86015">
        <ele>111</ele>
        <time>2013-08-22T13:41:24Z</time>
      </trkpt>
      <trkpt lat="47.8371" lon="-2.86027">
        <ele>111</ele>
        <time>2013-08-22T13:41:30Z</time>
      </trkpt>
      <trkpt lat="47.83709" lon="-2.86039">
        <ele>110</ele>
        <time>2013-08-22T13:41:36Z</time>
      </trkpt>
      <trkpt lat="47.83713" lon="-2.8605">
        <ele>110</ele>
        <time>2013-08-22T13:41:43Z</time>
      </trkpt>
      <trkpt lat="47.83718" lon="-2.86058">
        <ele>111</ele>
        <time>2013-08-22T13:41:48Z</time>
      </trkpt>
      <trkpt lat="47.83722" lon="-2.86069">
        <ele>109</ele>
        <time>2013-08-22T13:41:54Z</time>
      </trkpt>
      <trkpt lat="47.83724" lon="-2.8608">
        <ele>109</ele>
        <time>2013-08-22T13:42:00Z</time>
      </trkpt>
      <trkpt lat="47.83731" lon="-2.86088">
        <ele>109</ele>
        <time>2013-08-22T13:42:05Z</time>
      </trkpt>
      <trkpt lat="47.83736" lon="-2.86097">
        <ele>109</ele>
        <time>2013-08-22T13:42:11Z</time>
      </trkpt>
      <trkpt lat="47.83743" lon="-2.86105">
        <ele>110</ele>
        <time>2013-08-22T13:42:17Z</time>
      </trkpt>
      <trkpt lat="47.83747" lon="-2.86115">
        <ele>109</ele>
        <time>2013-08-22T13:42:22Z</time>
      </trkpt>
      <trkpt lat="47.83754" lon="-2.86123">
        <ele>109</ele>
        <time>2013-08-22T13:42:29Z</time>
      </trkpt>
      <trkpt lat="47.83761" lon="-2.86131">
        <ele>109</ele>
        <time>2013-08-22T13:42:35Z</time>
      </trkpt>
      <trkpt lat="47.83769" lon="-2.86137">
        <ele>110</ele>
        <time>2013-08-22T13:42:42Z</time>
      </trkpt>
      <trkpt lat="47.83773" lon="-2.86148">
        <ele>109</ele>
        <time>2013-08-22T13:42:51Z</time>
      </trkpt>
      <trkpt lat="47.83778" lon="-2.86158">
        <ele>110</ele>
        <time>2013-08-22T13:42:57Z</time>
      </trkpt>
      <trkpt lat="47.83783" lon="-2.86167">
        <ele>110</ele>
        <time>2013-08-22T13:43:04Z</time>
      </trkpt>
      <trkpt lat="47.83789" lon="-2.86176">
        <ele>111</ele>
        <time>2013-08-22T13:43:12Z</time>
      </trkpt>
      <trkpt lat="47.83796" lon="-2.86184">
        <ele>112</ele>
        <time>2013-08-22T13:43:16Z</time>
      </trkpt>
      <trkpt lat="47.83802" lon="-2.86193">
        <ele>110</ele>
        <time>2013-08-22T13:43:22Z</time>
      </trkpt>
      <trkpt lat="47.83798" lon="-2.86202">
        <ele>111</ele>
        <time>2013-08-22T13:43:34Z</time>
      </trkpt>
      <trkpt lat="47.83794" lon="-2.86214">
        <ele>112</ele>
        <time>2013-08-22T13:43:42Z</time>
      </trkpt>
      <trkpt lat="47.83786" lon="-2.86219">
        <ele>112</ele>
        <time>2013-08-22T13:43:48Z</time>
      </trkpt>
      <trkpt lat="47.83779" lon="-2.86226">
        <ele>112</ele>
        <time>2013-08-22T13:43:58Z</time>
      </trkpt>
      <trkpt lat="47.8377" lon="-2.86226">
        <ele>113</ele>
        <time>2013-08-22T13:44:15Z</time>
      </trkpt>
      <trkpt lat="47.83762" lon="-2.86226">
        <ele>111</ele>
        <time>2013-08-22T13:44:33Z</time>
      </trkpt>
      <trkpt lat="47.83754" lon="-2.86223">
        <ele>111</ele>
        <time>2013-08-22T13:44:42Z</time>
      </trkpt>
      <trkpt lat="47.83745" lon="-2.86219">
        <ele>108</ele>
        <time>2013-08-22T13:44:52Z</time>
      </trkpt>
      <trkpt lat="47.8374" lon="-2.86215">
        <ele>106</ele>
        <time>2013-08-22T13:44:58Z</time>
      </trkpt>
      <trkpt lat="47.83729" lon="-2.86215">
        <ele>104</ele>
        <time>2013-08-22T13:45:02Z</time>
      </trkpt>
      <trkpt lat="47.8372" lon="-2.86216">
        <ele>103</ele>
        <time>2013-08-22T13:45:07Z</time>
      </trkpt>
      <trkpt lat="47.83711" lon="-2.86215">
        <ele>102</ele>
        <time>2013-08-22T13:45:11Z</time>
      </trkpt>
      <trkpt lat="47.83703" lon="-2.86218">
        <ele>102</ele>
        <time>2013-08-22T13:45:20Z</time>
      </trkpt>
      <trkpt lat="47.83694" lon="-2.8622">
        <ele>102</ele>
        <time>2013-08-22T13:45:28Z</time>
      </trkpt>
      <trkpt lat="47.83683" lon="-2.86223">
        <ele>101</ele>
        <time>2013-08-22T13:45:33Z</time>
      </trkpt>
      <trkpt lat="47.83674" lon="-2.86224">
        <ele>101</ele>
        <time>2013-08-22T13:45:37Z</time>
      </trkpt>
      <trkpt lat="47.83666" lon="-2.86229">
        <ele>100</ele>
        <time>2013-08-22T13:45:42Z</time>
      </trkpt>
      <trkpt lat="47.83659" lon="-2.86235">
        <ele>100</ele>
        <time>2013-08-22T13:45:55Z</time>
      </trkpt>
      <trkpt lat="47.83657" lon="-2.86247">
        <ele>101</ele>
        <time>2013-08-22T13:46:06Z</time>
      </trkpt>
      <trkpt lat="47.83651" lon="-2.86254">
        <ele>100</ele>
        <time>2013-08-22T13:46:12Z</time>
      </trkpt>
      <trkpt lat="47.83643" lon="-2.86262">
        <ele>100</ele>
        <time>2013-08-22T13:46:16Z</time>
      </trkpt>
      <trkpt lat="47.83636" lon="-2.86263">
        <ele>100</ele>
        <time>2013-08-22T13:46:23Z</time>
      </trkpt>
      <trkpt lat="47.83627" lon="-2.86264">
        <ele>100</ele>
        <time>2013-08-22T13:46:28Z</time>
      </trkpt>
      <trkpt lat="47.83627" lon="-2.86264">
        <ele>100</ele>
        <time>2013-08-22T13:47:40Z</time>
      </trkpt>
      <trkpt lat="47.83617" lon="-2.86269">
        <ele>101</ele>
        <time>2013-08-22T13:47:45Z</time>
      </trkpt>
      <trkpt lat="47.83612" lon="-2.8628">
        <ele>102</ele>
        <time>2013-08-22T13:48:09Z</time>
      </trkpt>
      <trkpt lat="47.83611" lon="-2.86293">
        <ele>102</ele>
        <time>2013-08-22T13:48:19Z</time>
      </trkpt>
      <trkpt lat="47.83603" lon="-2.86299">
        <ele>101</ele>
        <time>2013-08-22T13:48:27Z</time>
      </trkpt>
      <trkpt lat="47.83595" lon="-2.86303">
        <ele>101</ele>
        <time>2013-08-22T13:48:33Z</time>
      </trkpt>
      <trkpt lat="47.83589" lon="-2.86307">
        <ele>102</ele>
        <time>2013-08-22T13:48:37Z</time>
      </trkpt>
      <trkpt lat="47.83581" lon="-2.8631">
        <ele>102</ele>
        <time>2013-08-22T13:48:42Z</time>
      </trkpt>
      <trkpt lat="47.83573" lon="-2.86316">
        <ele>102</ele>
        <time>2013-08-22T13:48:50Z</time>
      </trkpt>
      <trkpt lat="47.83566" lon="-2.86325">
        <ele>101</ele>
        <time>2013-08-22T13:49:00Z</time>
      </trkpt>
      <trkpt lat="47.83564" lon="-2.86338">
        <ele>100</ele>
        <time>2013-08-22T13:49:10Z</time>
      </trkpt>
      <trkpt lat="47.83558" lon="-2.86348">
        <ele>100</ele>
        <time>2013-08-22T13:49:22Z</time>
      </trkpt>
      <trkpt lat="47.83552" lon="-2.86357">
        <ele>100</ele>
        <time>2013-08-22T13:49:34Z</time>
      </trkpt>
      <trkpt lat="47.8355" lon="-2.8637">
        <ele>100</ele>
        <time>2013-08-22T13:50:01Z</time>
      </trkpt>
      <trkpt lat="47.8354" lon="-2.86374">
        <ele>101</ele>
        <time>2013-08-22T13:50:05Z</time>
      </trkpt>
      <trkpt lat="47.83531" lon="-2.86374">
        <ele>102</ele>
        <time>2013-08-22T13:50:19Z</time>
      </trkpt>
      <trkpt lat="47.83524" lon="-2.86374">
        <ele>102</ele>
        <time>2013-08-22T13:50:24Z</time>
      </trkpt>
      <trkpt lat="47.83522" lon="-2.86361">
        <ele>102</ele>
        <time>2013-08-22T13:50:36Z</time>
      </trkpt>
      <trkpt lat="47.83514" lon="-2.86356">
        <ele>102</ele>
        <time>2013-08-22T13:50:41Z</time>
      </trkpt>
      <trkpt lat="47.83505" lon="-2.86357">
        <ele>102</ele>
        <time>2013-08-22T13:50:49Z</time>
      </trkpt>
      <trkpt lat="47.83496" lon="-2.86357">
        <ele>103</ele>
        <time>2013-08-22T13:51:01Z</time>
      </trkpt>
      <trkpt lat="47.83488" lon="-2.86355">
        <ele>103</ele>
        <time>2013-08-22T13:51:12Z</time>
      </trkpt>
      <trkpt lat="47.83491" lon="-2.86352">
        <ele>106</ele>
        <time>2013-08-22T13:52:03Z</time>
      </trkpt>
      <trkpt lat="47.83477" lon="-2.86349">
        <ele>106</ele>
        <time>2013-08-22T13:52:07Z</time>
      </trkpt>
      <trkpt lat="47.83486" lon="-2.86351">
        <ele>106</ele>
        <time>2013-08-22T13:52:36Z</time>
      </trkpt>
      <trkpt lat="47.83477" lon="-2.86354">
        <ele>110</ele>
        <time>2013-08-22T13:52:55Z</time>
      </trkpt>
      <trkpt lat="47.83486" lon="-2.86352">
        <ele>116</ele>
        <time>2013-08-22T13:54:49Z</time>
      </trkpt>
      <trkpt lat="47.83493" lon="-2.86345">
        <ele>112</ele>
        <time>2013-08-22T13:55:01Z</time>
      </trkpt>
      <trkpt lat="47.83501" lon="-2.86351">
        <ele>108</ele>
        <time>2013-08-22T13:55:10Z</time>
      </trkpt>
      <trkpt lat="47.83509" lon="-2.86347">
        <ele>107</ele>
        <time>2013-08-22T13:55:16Z</time>
      </trkpt>
      <trkpt lat="47.83517" lon="-2.8634">
        <ele>107</ele>
        <time>2013-08-22T13:55:25Z</time>
      </trkpt>
      <trkpt lat="47.83511" lon="-2.8633">
        <ele>108</ele>
        <time>2013-08-22T13:55:34Z</time>
      </trkpt>
      <trkpt lat="47.83506" lon="-2.86323">
        <ele>108</ele>
        <time>2013-08-22T13:55:40Z</time>
      </trkpt>
      <trkpt lat="47.83497" lon="-2.8632">
        <ele>108</ele>
        <time>2013-08-22T13:55:47Z</time>
      </trkpt>
      <trkpt lat="47.83492" lon="-2.86309">
        <ele>109</ele>
        <time>2013-08-22T13:56:00Z</time>
      </trkpt>
      <trkpt lat="47.83487" lon="-2.86299">
        <ele>110</ele>
        <time>2013-08-22T13:56:10Z</time>
      </trkpt>
      <trkpt lat="47.83487" lon="-2.86287">
        <ele>108</ele>
        <time>2013-08-22T13:56:17Z</time>
      </trkpt>
      <trkpt lat="47.83485" lon="-2.86275">
        <ele>107</ele>
        <time>2013-08-22T13:56:23Z</time>
      </trkpt>
      <trkpt lat="47.83481" lon="-2.86265">
        <ele>107</ele>
        <time>2013-08-22T13:56:31Z</time>
      </trkpt>
      <trkpt lat="47.83477" lon="-2.86255">
        <ele>106</ele>
        <time>2013-08-22T13:56:38Z</time>
      </trkpt>
      <trkpt lat="47.83471" lon="-2.86245">
        <ele>105</ele>
        <time>2013-08-22T13:56:46Z</time>
      </trkpt>
      <trkpt lat="47.83465" lon="-2.86235">
        <ele>105</ele>
        <time>2013-08-22T13:56:54Z</time>
      </trkpt>
      <trkpt lat="47.83463" lon="-2.86223">
        <ele>105</ele>
        <time>2013-08-22T13:57:01Z</time>
      </trkpt>
      <trkpt lat="47.83462" lon="-2.86209">
        <ele>107</ele>
        <time>2013-08-22T13:57:05Z</time>
      </trkpt>
      <trkpt lat="47.83459" lon="-2.86196">
        <ele>108</ele>
        <time>2013-08-22T13:57:12Z</time>
      </trkpt>
      <trkpt lat="47.8346" lon="-2.86184">
        <ele>108</ele>
        <time>2013-08-22T13:57:18Z</time>
      </trkpt>
      <trkpt lat="47.83462" lon="-2.86173">
        <ele>108</ele>
        <time>2013-08-22T13:57:22Z</time>
      </trkpt>
      <trkpt lat="47.83463" lon="-2.8616">
        <ele>110</ele>
        <time>2013-08-22T13:57:30Z</time>
      </trkpt>
      <trkpt lat="47.83467" lon="-2.86149">
        <ele>108</ele>
        <time>2013-08-22T13:57:37Z</time>
      </trkpt>
      <trkpt lat="47.83466" lon="-2.86137">
        <ele>108</ele>
        <time>2013-08-22T13:57:45Z</time>
      </trkpt>
      <trkpt lat="47.83466" lon="-2.86124">
        <ele>106</ele>
        <time>2013-08-22T13:57:54Z</time>
      </trkpt>
      <trkpt lat="47.83465" lon="-2.86111">
        <ele>104</ele>
        <time>2013-08-22T13:58:01Z</time>
      </trkpt>
      <trkpt lat="47.83457" lon="-2.86098">
        <ele>106</ele>
        <time>2013-08-22T13:58:05Z</time>
      </trkpt>
      <trkpt lat="47.83448" lon="-2.8609">
        <ele>107</ele>
        <time>2013-08-22T13:58:10Z</time>
      </trkpt>
      <trkpt lat="47.83442" lon="-2.86081">
        <ele>106</ele>
        <time>2013-08-22T13:58:17Z</time>
      </trkpt>
      <trkpt lat="47.83436" lon="-2.86071">
        <ele>106</ele>
        <time>2013-08-22T13:58:24Z</time>
      </trkpt>
      <trkpt lat="47.83431" lon="-2.86061">
        <ele>108</ele>
        <time>2013-08-22T13:58:31Z</time>
      </trkpt>
      <trkpt lat="47.83424" lon="-2.86053">
        <ele>107</ele>
        <time>2013-08-22T13:58:37Z</time>
      </trkpt>
      <trkpt lat="47.83416" lon="-2.86048">
        <ele>106</ele>
        <time>2013-08-22T13:58:41Z</time>
      </trkpt>
      <trkpt lat="47.83408" lon="-2.86045">
        <ele>107</ele>
        <time>2013-08-22T13:58:46Z</time>
      </trkpt>
      <trkpt lat="47.83401" lon="-2.86041">
        <ele>108</ele>
        <time>2013-08-22T13:58:51Z</time>
      </trkpt>
      <trkpt lat="47.83393" lon="-2.86036">
        <ele>108</ele>
        <time>2013-08-22T13:58:56Z</time>
      </trkpt>
      <trkpt lat="47.83386" lon="-2.86032">
        <ele>109</ele>
        <time>2013-08-22T13:59:01Z</time>
      </trkpt>
      <trkpt lat="47.83378" lon="-2.86026">
        <ele>108</ele>
        <time>2013-08-22T13:59:08Z</time>
      </trkpt>
      <trkpt lat="47.83371" lon="-2.86021">
        <ele>108</ele>
        <time>2013-08-22T13:59:17Z</time>
      </trkpt>
      <trkpt lat="47.83364" lon="-2.86016">
        <ele>109</ele>
        <time>2013-08-22T13:59:22Z</time>
      </trkpt>
      <trkpt lat="47.83357" lon="-2.8601">
        <ele>108</ele>
        <time>2013-08-22T13:59:29Z</time>
      </trkpt>
      <trkpt lat="47.83351" lon="-2.86002">
        <ele>108</ele>
        <time>2013-08-22T13:59:34Z</time>
      </trkpt>
      <trkpt lat="47.83343" lon="-2.85996">
        <ele>108</ele>
        <time>2013-08-22T13:59:41Z</time>
      </trkpt>
      <trkpt lat="47.83335" lon="-2.8599">
        <ele>108</ele>
        <time>2013-08-22T13:59:48Z</time>
      </trkpt>
      <trkpt lat="47.83328" lon="-2.85982">
        <ele>109</ele>
        <time>2013-08-22T13:59:54Z</time>
      </trkpt>
      <trkpt lat="47.83323" lon="-2.85975">
        <ele>110</ele>
        <time>2013-08-22T13:59:58Z</time>
      </trkpt>
      <trkpt lat="47.83316" lon="-2.85968">
        <ele>110</ele>
        <time>2013-08-22T14:00:03Z</time>
      </trkpt>
      <trkpt lat="47.83309" lon="-2.85961">
        <ele>111</ele>
        <time>2013-08-22T14:00:10Z</time>
      </trkpt>
      <trkpt lat="47.83301" lon="-2.85955">
        <ele>112</ele>
        <time>2013-08-22T14:00:16Z</time>
      </trkpt>
      <trkpt lat="47.83295" lon="-2.85951">
        <ele>112</ele>
        <time>2013-08-22T14:00:21Z</time>
      </trkpt>
      <trkpt lat="47.83287" lon="-2.85949">
        <ele>112</ele>
        <time>2013-08-22T14:00:27Z</time>
      </trkpt>
      <trkpt lat="47.83278" lon="-2.85946">
        <ele>112</ele>
        <time>2013-08-22T14:00:32Z</time>
      </trkpt>
      <trkpt lat="47.83275" lon="-2.85935">
        <ele>114</ele>
        <time>2013-08-22T14:00:52Z</time>
      </trkpt>
      <trkpt lat="47.83266" lon="-2.85938">
        <ele>114</ele>
        <time>2013-08-22T14:01:04Z</time>
      </trkpt>
      <trkpt lat="47.83258" lon="-2.85937">
        <ele>116</ele>
        <time>2013-08-22T14:01:28Z</time>
      </trkpt>
      <trkpt lat="47.8325" lon="-2.85931">
        <ele>119</ele>
        <time>2013-08-22T14:01:43Z</time>
      </trkpt>
      <trkpt lat="47.83243" lon="-2.85925">
        <ele>119</ele>
        <time>2013-08-22T14:01:48Z</time>
      </trkpt>
      <trkpt lat="47.83235" lon="-2.85917">
        <ele>119</ele>
        <time>2013-08-22T14:01:56Z</time>
      </trkpt>
      <trkpt lat="47.83237" lon="-2.85905">
        <ele>117</ele>
        <time>2013-08-22T14:02:04Z</time>
      </trkpt>
      <trkpt lat="47.83241" lon="-2.85896">
        <ele>118</ele>
        <time>2013-08-22T14:02:15Z</time>
      </trkpt>
      <trkpt lat="47.83248" lon="-2.85886">
        <ele>115</ele>
        <time>2013-08-22T14:02:18Z</time>
      </trkpt>
      <trkpt lat="47.83252" lon="-2.85876">
        <ele>114</ele>
        <time>2013-08-22T14:02:25Z</time>
      </trkpt>
      <trkpt lat="47.83258" lon="-2.85866">
        <ele>113</ele>
        <time>2013-08-22T14:02:31Z</time>
      </trkpt>
      <trkpt lat="47.83259" lon="-2.85853">
        <ele>113</ele>
        <time>2013-08-22T14:02:38Z</time>
      </trkpt>
      <trkpt lat="47.83253" lon="-2.85843">
        <ele>113</ele>
        <time>2013-08-22T14:02:45Z</time>
      </trkpt>
      <trkpt lat="47.83245" lon="-2.85834">
        <ele>115</ele>
        <time>2013-08-22T14:02:49Z</time>
      </trkpt>
      <trkpt lat="47.83235" lon="-2.85826">
        <ele>114</ele>
        <time>2013-08-22T14:02:53Z</time>
      </trkpt>
      <trkpt lat="47.83227" lon="-2.85816">
        <ele>114</ele>
        <time>2013-08-22T14:02:58Z</time>
      </trkpt>
      <trkpt lat="47.83223" lon="-2.85805">
        <ele>115</ele>
        <time>2013-08-22T14:03:05Z</time>
      </trkpt>
      <trkpt lat="47.8322" lon="-2.85793">
        <ele>115</ele>
        <time>2013-08-22T14:03:12Z</time>
      </trkpt>
      <trkpt lat="47.83218" lon="-2.85781">
        <ele>115</ele>
        <time>2013-08-22T14:03:17Z</time>
      </trkpt>
      <trkpt lat="47.83214" lon="-2.85771">
        <ele>116</ele>
        <time>2013-08-22T14:03:22Z</time>
      </trkpt>
      <trkpt lat="47.83215" lon="-2.85759">
        <ele>116</ele>
        <time>2013-08-22T14:03:26Z</time>
      </trkpt>
      <trkpt lat="47.83214" lon="-2.85747">
        <ele>116</ele>
        <time>2013-08-22T14:03:32Z</time>
      </trkpt>
      <trkpt lat="47.8321" lon="-2.85737">
        <ele>116</ele>
        <time>2013-08-22T14:03:38Z</time>
      </trkpt>
      <trkpt lat="47.8321" lon="-2.85724">
        <ele>116</ele>
        <time>2013-08-22T14:03:44Z</time>
      </trkpt>
      <trkpt lat="47.83208" lon="-2.85711">
        <ele>116</ele>
        <time>2013-08-22T14:03:52Z</time>
      </trkpt>
      <trkpt lat="47.83208" lon="-2.857">
        <ele>118</ele>
        <time>2013-08-22T14:03:58Z</time>
      </trkpt>
      <trkpt lat="47.8321" lon="-2.85689">
        <ele>120</ele>
        <time>2013-08-22T14:04:03Z</time>
      </trkpt>
      <trkpt lat="47.83211" lon="-2.85678">
        <ele>121</ele>
        <time>2013-08-22T14:04:08Z</time>
      </trkpt>
      <trkpt lat="47.83207" lon="-2.85667">
        <ele>122</ele>
        <time>2013-08-22T14:04:16Z</time>
      </trkpt>
      <trkpt lat="47.83203" lon="-2.85656">
        <ele>123</ele>
        <time>2013-08-22T14:04:22Z</time>
      </trkpt>
      <trkpt lat="47.83202" lon="-2.85643">
        <ele>123</ele>
        <time>2013-08-22T14:04:29Z</time>
      </trkpt>
      <trkpt lat="47.83201" lon="-2.85632">
        <ele>122</ele>
        <time>2013-08-22T14:04:34Z</time>
      </trkpt>
      <trkpt lat="47.83203" lon="-2.85621">
        <ele>123</ele>
        <time>2013-08-22T14:04:41Z</time>
      </trkpt>
      <trkpt lat="47.83199" lon="-2.85609">
        <ele>123</ele>
        <time>2013-08-22T14:04:46Z</time>
      </trkpt>
      <trkpt lat="47.83196" lon="-2.85598">
        <ele>125</ele>
        <time>2013-08-22T14:04:52Z</time>
      </trkpt>
      <trkpt lat="47.83194" lon="-2.85587">
        <ele>126</ele>
        <time>2013-08-22T14:04:56Z</time>
      </trkpt>
      <trkpt lat="47.83195" lon="-2.85575">
        <ele>127</ele>
        <time>2013-08-22T14:05:03Z</time>
      </trkpt>
      <trkpt lat="47.83194" lon="-2.85562">
        <ele>128</ele>
        <time>2013-08-22T14:05:09Z</time>
      </trkpt>
      <trkpt lat="47.83192" lon="-2.85549">
        <ele>130</ele>
        <time>2013-08-22T14:05:21Z</time>
      </trkpt>
      <trkpt lat="47.8319" lon="-2.85536">
        <ele>130</ele>
        <time>2013-08-22T14:05:28Z</time>
      </trkpt>
      <trkpt lat="47.83188" lon="-2.85524">
        <ele>130</ele>
        <time>2013-08-22T14:05:35Z</time>
      </trkpt>
      <trkpt lat="47.83187" lon="-2.85511">
        <ele>130</ele>
        <time>2013-08-22T14:05:41Z</time>
      </trkpt>
      <trkpt lat="47.83185" lon="-2.855">
        <ele>130</ele>
        <time>2013-08-22T14:05:46Z</time>
      </trkpt>
      <trkpt lat="47.83183" lon="-2.85487">
        <ele>131</ele>
        <time>2013-08-22T14:05:53Z</time>
      </trkpt>
      <trkpt lat="47.83183" lon="-2.85476">
        <ele>131</ele>
        <time>2013-08-22T14:05:59Z</time>
      </trkpt>
      <trkpt lat="47.83181" lon="-2.85464">
        <ele>131</ele>
        <time>2013-08-22T14:06:04Z</time>
      </trkpt>
      <trkpt lat="47.8318" lon="-2.85451">
        <ele>131</ele>
        <time>2013-08-22T14:06:10Z</time>
      </trkpt>
      <trkpt lat="47.83178" lon="-2.85439">
        <ele>131</ele>
        <time>2013-08-22T14:06:15Z</time>
      </trkpt>
      <trkpt lat="47.83177" lon="-2.85426">
        <ele>131</ele>
        <time>2013-08-22T14:06:21Z</time>
      </trkpt>
      <trkpt lat="47.83175" lon="-2.85415">
        <ele>132</ele>
        <time>2013-08-22T14:06:26Z</time>
      </trkpt>
      <trkpt lat="47.83174" lon="-2.85403">
        <ele>131</ele>
        <time>2013-08-22T14:06:31Z</time>
      </trkpt>
      <trkpt lat="47.83173" lon="-2.8539">
        <ele>132</ele>
        <time>2013-08-22T14:06:37Z</time>
      </trkpt>
      <trkpt lat="47.83173" lon="-2.85378">
        <ele>131</ele>
        <time>2013-08-22T14:06:43Z</time>
      </trkpt>
      <trkpt lat="47.83174" lon="-2.85368">
        <ele>131</ele>
        <time>2013-08-22T14:06:48Z</time>
      </trkpt>
      <trkpt lat="47.83169" lon="-2.85356">
        <ele>130</ele>
        <time>2013-08-22T14:06:53Z</time>
      </trkpt>
      <trkpt lat="47.83169" lon="-2.85342">
        <ele>131</ele>
        <time>2013-08-22T14:07:01Z</time>
      </trkpt>
      <trkpt lat="47.83166" lon="-2.85331">
        <ele>131</ele>
        <time>2013-08-22T14:07:07Z</time>
      </trkpt>
      <trkpt lat="47.83163" lon="-2.85319">
        <ele>132</ele>
        <time>2013-08-22T14:07:14Z</time>
      </trkpt>
      <trkpt lat="47.83161" lon="-2.85306">
        <ele>131</ele>
        <time>2013-08-22T14:07:22Z</time>
      </trkpt>
      <trkpt lat="47.83156" lon="-2.85296">
        <ele>129</ele>
        <time>2013-08-22T14:07:39Z</time>
      </trkpt>
      <trkpt lat="47.83147" lon="-2.85295">
        <ele>130</ele>
        <time>2013-08-22T14:07:44Z</time>
      </trkpt>
      <trkpt lat="47.83138" lon="-2.85295">
        <ele>129</ele>
        <time>2013-08-22T14:07:49Z</time>
      </trkpt>
      <trkpt lat="47.8313" lon="-2.85296">
        <ele>129</ele>
        <time>2013-08-22T14:07:54Z</time>
      </trkpt>
      <trkpt lat="47.83122" lon="-2.85298">
        <ele>128</ele>
        <time>2013-08-22T14:07:58Z</time>
      </trkpt>
      <trkpt lat="47.83114" lon="-2.853">
        <ele>129</ele>
        <time>2013-08-22T14:08:06Z</time>
      </trkpt>
      <trkpt lat="47.83105" lon="-2.85302">
        <ele>129</ele>
        <time>2013-08-22T14:08:14Z</time>
      </trkpt>
      <trkpt lat="47.83098" lon="-2.85306">
        <ele>129</ele>
        <time>2013-08-22T14:08:19Z</time>
      </trkpt>
      <trkpt lat="47.8309" lon="-2.85309">
        <ele>129</ele>
        <time>2013-08-22T14:08:25Z</time>
      </trkpt>
      <trkpt lat="47.83082" lon="-2.85312">
        <ele>129</ele>
        <time>2013-08-22T14:08:31Z</time>
      </trkpt>
      <trkpt lat="47.83074" lon="-2.85315">
        <ele>129</ele>
        <time>2013-08-22T14:08:38Z</time>
      </trkpt>
      <trkpt lat="47.83066" lon="-2.85312">
        <ele>127</ele>
        <time>2013-08-22T14:09:25Z</time>
      </trkpt>
      <trkpt lat="47.83061" lon="-2.85301">
        <ele>127</ele>
        <time>2013-08-22T14:09:34Z</time>
      </trkpt>
      <trkpt lat="47.83058" lon="-2.8529">
        <ele>126</ele>
        <time>2013-08-22T14:09:42Z</time>
      </trkpt>
      <trkpt lat="47.83056" lon="-2.85277">
        <ele>126</ele>
        <time>2013-08-22T14:09:56Z</time>
      </trkpt>
      <trkpt lat="47.83052" lon="-2.85266">
        <ele>126</ele>
        <time>2013-08-22T14:10:04Z</time>
      </trkpt>
      <trkpt lat="47.83049" lon="-2.85254">
        <ele>126</ele>
        <time>2013-08-22T14:10:12Z</time>
      </trkpt>
      <trkpt lat="47.83046" lon="-2.85242">
        <ele>127</ele>
        <time>2013-08-22T14:10:18Z</time>
      </trkpt>
      <trkpt lat="47.83043" lon="-2.85231">
        <ele>127</ele>
        <time>2013-08-22T14:10:25Z</time>
      </trkpt>
      <trkpt lat="47.83041" lon="-2.85219">
        <ele>128</ele>
        <time>2013-08-22T14:10:32Z</time>
      </trkpt>
      <trkpt lat="47.83039" lon="-2.85208">
        <ele>128</ele>
        <time>2013-08-22T14:10:39Z</time>
      </trkpt>
      <trkpt lat="47.83039" lon="-2.85195">
        <ele>126</ele>
        <time>2013-08-22T14:10:46Z</time>
      </trkpt>
      <trkpt lat="47.83038" lon="-2.85182">
        <ele>125</ele>
        <time>2013-08-22T14:10:52Z</time>
      </trkpt>
      <trkpt lat="47.83035" lon="-2.85172">
        <ele>125</ele>
        <time>2013-08-22T14:10:57Z</time>
      </trkpt>
      <trkpt lat="47.83034" lon="-2.8516">
        <ele>123</ele>
        <time>2013-08-22T14:11:02Z</time>
      </trkpt>
      <trkpt lat="47.83035" lon="-2.85148">
        <ele>121</ele>
        <time>2013-08-22T14:11:07Z</time>
      </trkpt>
      <trkpt lat="47.83037" lon="-2.85137">
        <ele>121</ele>
        <time>2013-08-22T14:11:12Z</time>
      </trkpt>
      <trkpt lat="47.8304" lon="-2.85124">
        <ele>120</ele>
        <time>2013-08-22T14:11:48Z</time>
      </trkpt>
      <trkpt lat="47.8304" lon="-2.85112">
        <ele>120</ele>
        <time>2013-08-22T14:11:55Z</time>
      </trkpt>
      <trkpt lat="47.8304" lon="-2.851">
        <ele>121</ele>
        <time>2013-08-22T14:12:00Z</time>
      </trkpt>
      <trkpt lat="47.8304" lon="-2.85088">
        <ele>121</ele>
        <time>2013-08-22T14:12:06Z</time>
      </trkpt>
      <trkpt lat="47.83042" lon="-2.85075">
        <ele>121</ele>
        <time>2013-08-22T14:12:14Z</time>
      </trkpt>
      <trkpt lat="47.83044" lon="-2.85062">
        <ele>121</ele>
        <time>2013-08-22T14:12:19Z</time>
      </trkpt>
      <trkpt lat="47.83046" lon="-2.85051">
        <ele>121</ele>
        <time>2013-08-22T14:12:24Z</time>
      </trkpt>
      <trkpt lat="47.83046" lon="-2.85039">
        <ele>122</ele>
        <time>2013-08-22T14:12:29Z</time>
      </trkpt>
      <trkpt lat="47.83048" lon="-2.85026">
        <ele>122</ele>
        <time>2013-08-22T14:12:37Z</time>
      </trkpt>
      <trkpt lat="47.8305" lon="-2.85014">
        <ele>123</ele>
        <time>2013-08-22T14:12:42Z</time>
      </trkpt>
      <trkpt lat="47.83053" lon="-2.85002">
        <ele>123</ele>
        <time>2013-08-22T14:12:49Z</time>
      </trkpt>
      <trkpt lat="47.83054" lon="-2.8499">
        <ele>123</ele>
        <time>2013-08-22T14:12:55Z</time>
      </trkpt>
      <trkpt lat="47.83055" lon="-2.84979">
        <ele>123</ele>
        <time>2013-08-22T14:13:02Z</time>
      </trkpt>
      <trkpt lat="47.83056" lon="-2.84968">
        <ele>124</ele>
        <time>2013-08-22T14:13:06Z</time>
      </trkpt>
      <trkpt lat="47.83058" lon="-2.84955">
        <ele>123</ele>
        <time>2013-08-22T14:13:13Z</time>
      </trkpt>
      <trkpt lat="47.83061" lon="-2.84944">
        <ele>122</ele>
        <time>2013-08-22T14:13:19Z</time>
      </trkpt>
      <trkpt lat="47.83063" lon="-2.84932">
        <ele>121</ele>
        <time>2013-08-22T14:13:25Z</time>
      </trkpt>
      <trkpt lat="47.83064" lon="-2.84919">
        <ele>122</ele>
        <time>2013-08-22T14:13:31Z</time>
      </trkpt>
      <trkpt lat="47.83067" lon="-2.84906">
        <ele>122</ele>
        <time>2013-08-22T14:13:38Z</time>
      </trkpt>
      <trkpt lat="47.83068" lon="-2.84895">
        <ele>122</ele>
        <time>2013-08-22T14:13:43Z</time>
      </trkpt>
      <trkpt lat="47.83069" lon="-2.84882">
        <ele>122</ele>
        <time>2013-08-22T14:13:48Z</time>
      </trkpt>
      <trkpt lat="47.83071" lon="-2.8487">
        <ele>121</ele>
        <time>2013-08-22T14:13:55Z</time>
      </trkpt>
      <trkpt lat="47.83072" lon="-2.84858">
        <ele>121</ele>
        <time>2013-08-22T14:14:01Z</time>
      </trkpt>
      <trkpt lat="47.83076" lon="-2.84846">
        <ele>121</ele>
        <time>2013-08-22T14:14:08Z</time>
      </trkpt>
      <trkpt lat="47.83077" lon="-2.84834">
        <ele>121</ele>
        <time>2013-08-22T14:14:14Z</time>
      </trkpt>
      <trkpt lat="47.83079" lon="-2.84821">
        <ele>121</ele>
        <time>2013-08-22T14:14:20Z</time>
      </trkpt>
      <trkpt lat="47.83082" lon="-2.84809">
        <ele>121</ele>
        <time>2013-08-22T14:14:28Z</time>
      </trkpt>
      <trkpt lat="47.83083" lon="-2.84796">
        <ele>122</ele>
        <time>2013-08-22T14:14:34Z</time>
      </trkpt>
      <trkpt lat="47.83085" lon="-2.84784">
        <ele>122</ele>
        <time>2013-08-22T14:14:40Z</time>
      </trkpt>
      <trkpt lat="47.83088" lon="-2.84771">
        <ele>121</ele>
        <time>2013-08-22T14:14:46Z</time>
      </trkpt>
      <trkpt lat="47.83089" lon="-2.8476">
        <ele>121</ele>
        <time>2013-08-22T14:14:52Z</time>
      </trkpt>
      <trkpt lat="47.83091" lon="-2.84747">
        <ele>120</ele>
        <time>2013-08-22T14:14:58Z</time>
      </trkpt>
      <trkpt lat="47.83092" lon="-2.84736">
        <ele>120</ele>
        <time>2013-08-22T14:15:03Z</time>
      </trkpt>
      <trkpt lat="47.83094" lon="-2.84724">
        <ele>121</ele>
        <time>2013-08-22T14:15:09Z</time>
      </trkpt>
      <trkpt lat="47.83096" lon="-2.84712">
        <ele>119</ele>
        <time>2013-08-22T14:15:14Z</time>
      </trkpt>
      <trkpt lat="47.83097" lon="-2.84701">
        <ele>119</ele>
        <time>2013-08-22T14:15:21Z</time>
      </trkpt>
      <trkpt lat="47.83099" lon="-2.8469">
        <ele>120</ele>
        <time>2013-08-22T14:15:25Z</time>
      </trkpt>
      <trkpt lat="47.83101" lon="-2.84678">
        <ele>119</ele>
        <time>2013-08-22T14:15:32Z</time>
      </trkpt>
      <trkpt lat="47.83103" lon="-2.84666">
        <ele>119</ele>
        <time>2013-08-22T14:15:37Z</time>
      </trkpt>
      <trkpt lat="47.83105" lon="-2.84654">
        <ele>119</ele>
        <time>2013-08-22T14:15:44Z</time>
      </trkpt>
      <trkpt lat="47.83107" lon="-2.84641">
        <ele>119</ele>
        <time>2013-08-22T14:15:50Z</time>
      </trkpt>
      <trkpt lat="47.83109" lon="-2.84629">
        <ele>119</ele>
        <time>2013-08-22T14:15:55Z</time>
      </trkpt>
      <trkpt lat="47.83111" lon="-2.84617">
        <ele>118</ele>
        <time>2013-08-22T14:16:02Z</time>
      </trkpt>
      <trkpt lat="47.83113" lon="-2.84605">
        <ele>118</ele>
        <time>2013-08-22T14:16:08Z</time>
      </trkpt>
      <trkpt lat="47.83115" lon="-2.84594">
        <ele>117</ele>
        <time>2013-08-22T14:16:15Z</time>
      </trkpt>
      <trkpt lat="47.83116" lon="-2.84583">
        <ele>117</ele>
        <time>2013-08-22T14:16:20Z</time>
      </trkpt>
      <trkpt lat="47.83118" lon="-2.84572">
        <ele>118</ele>
        <time>2013-08-22T14:16:25Z</time>
      </trkpt>
      <trkpt lat="47.8312" lon="-2.8456">
        <ele>118</ele>
        <time>2013-08-22T14:16:30Z</time>
      </trkpt>
      <trkpt lat="47.83122" lon="-2.84549">
        <ele>117</ele>
        <time>2013-08-22T14:16:35Z</time>
      </trkpt>
      <trkpt lat="47.83123" lon="-2.84537">
        <ele>117</ele>
        <time>2013-08-22T14:16:42Z</time>
      </trkpt>
      <trkpt lat="47.83125" lon="-2.84524">
        <ele>117</ele>
        <time>2013-08-22T14:16:48Z</time>
      </trkpt>
      <trkpt lat="47.83127" lon="-2.84513">
        <ele>117</ele>
        <time>2013-08-22T14:16:54Z</time>
      </trkpt>
      <trkpt lat="47.83129" lon="-2.84501">
        <ele>118</ele>
        <time>2013-08-22T14:17:00Z</time>
      </trkpt>
      <trkpt lat="47.83131" lon="-2.8449">
        <ele>118</ele>
        <time>2013-08-22T14:17:06Z</time>
      </trkpt>
      <trkpt lat="47.83135" lon="-2.84479">
        <ele>118</ele>
        <time>2013-08-22T14:17:13Z</time>
      </trkpt>
      <trkpt lat="47.83137" lon="-2.84466">
        <ele>119</ele>
        <time>2013-08-22T14:17:20Z</time>
      </trkpt>
      <trkpt lat="47.83139" lon="-2.84453">
        <ele>120</ele>
        <time>2013-08-22T14:17:28Z</time>
      </trkpt>
      <trkpt lat="47.8314" lon="-2.84441">
        <ele>120</ele>
        <time>2013-08-22T14:17:35Z</time>
      </trkpt>
      <trkpt lat="47.83145" lon="-2.8443">
        <ele>120</ele>
        <time>2013-08-22T14:17:56Z</time>
      </trkpt>
      <trkpt lat="47.83147" lon="-2.84419">
        <ele>120</ele>
        <time>2013-08-22T14:18:03Z</time>
      </trkpt>
      <trkpt lat="47.83151" lon="-2.84407">
        <ele>119</ele>
        <time>2013-08-22T14:18:10Z</time>
      </trkpt>
      <trkpt lat="47.83156" lon="-2.84397">
        <ele>119</ele>
        <time>2013-08-22T14:18:16Z</time>
      </trkpt>
      <trkpt lat="47.8316" lon="-2.84386">
        <ele>119</ele>
        <time>2013-08-22T14:18:38Z</time>
      </trkpt>
      <trkpt lat="47.83164" lon="-2.84376">
        <ele>119</ele>
        <time>2013-08-22T14:18:42Z</time>
      </trkpt>
      <trkpt lat="47.83168" lon="-2.84364">
        <ele>118</ele>
        <time>2013-08-22T14:18:50Z</time>
      </trkpt>
      <trkpt lat="47.83172" lon="-2.84354">
        <ele>118</ele>
        <time>2013-08-22T14:18:55Z</time>
      </trkpt>
      <trkpt lat="47.83177" lon="-2.84346">
        <ele>119</ele>
        <time>2013-08-22T14:19:01Z</time>
      </trkpt>
      <trkpt lat="47.83182" lon="-2.84336">
        <ele>118</ele>
        <time>2013-08-22T14:19:06Z</time>
      </trkpt>
      <trkpt lat="47.83187" lon="-2.84326">
        <ele>119</ele>
        <time>2013-08-22T14:19:11Z</time>
      </trkpt>
      <trkpt lat="47.8319" lon="-2.84313">
        <ele>119</ele>
        <time>2013-08-22T14:19:20Z</time>
      </trkpt>
      <trkpt lat="47.83192" lon="-2.84301">
        <ele>116</ele>
        <time>2013-08-22T14:19:40Z</time>
      </trkpt>
      <trkpt lat="47.83194" lon="-2.84289">
        <ele>117</ele>
        <time>2013-08-22T14:19:51Z</time>
      </trkpt>
      <trkpt lat="47.83195" lon="-2.84276">
        <ele>117</ele>
        <time>2013-08-22T14:19:58Z</time>
      </trkpt>
      <trkpt lat="47.83194" lon="-2.84264">
        <ele>117</ele>
        <time>2013-08-22T14:20:07Z</time>
      </trkpt>
      <trkpt lat="47.83197" lon="-2.84251">
        <ele>118</ele>
        <time>2013-08-22T14:20:14Z</time>
      </trkpt>
      <trkpt lat="47.83199" lon="-2.84239">
        <ele>118</ele>
        <time>2013-08-22T14:20:19Z</time>
      </trkpt>
      <trkpt lat="47.83202" lon="-2.84228">
        <ele>118</ele>
        <time>2013-08-22T14:20:25Z</time>
      </trkpt>
      <trkpt lat="47.83208" lon="-2.84219">
        <ele>118</ele>
        <time>2013-08-22T14:20:31Z</time>
      </trkpt>
      <trkpt lat="47.83213" lon="-2.84208">
        <ele>118</ele>
        <time>2013-08-22T14:20:37Z</time>
      </trkpt>
      <trkpt lat="47.83218" lon="-2.84195">
        <ele>118</ele>
        <time>2013-08-22T14:20:42Z</time>
      </trkpt>
      <trkpt lat="47.83221" lon="-2.84184">
        <ele>119</ele>
        <time>2013-08-22T14:20:47Z</time>
      </trkpt>
      <trkpt lat="47.83225" lon="-2.84173">
        <ele>120</ele>
        <time>2013-08-22T14:20:52Z</time>
      </trkpt>
      <trkpt lat="47.83231" lon="-2.84165">
        <ele>121</ele>
        <time>2013-08-22T14:20:57Z</time>
      </trkpt>
      <trkpt lat="47.83239" lon="-2.84155">
        <ele>119</ele>
        <time>2013-08-22T14:21:01Z</time>
      </trkpt>
      <trkpt lat="47.83252" lon="-2.84148">
        <ele>116</ele>
        <time>2013-08-22T14:21:05Z</time>
      </trkpt>
      <trkpt lat="47.83251" lon="-2.84135">
        <ele>113</ele>
        <time>2013-08-22T14:21:15Z</time>
      </trkpt>
      <trkpt lat="47.83256" lon="-2.84125">
        <ele>110</ele>
        <time>2013-08-22T14:21:22Z</time>
      </trkpt>
      <trkpt lat="47.83261" lon="-2.84117">
        <ele>108</ele>
        <time>2013-08-22T14:21:29Z</time>
      </trkpt>
      <trkpt lat="47.83267" lon="-2.84109">
        <ele>107</ele>
        <time>2013-08-22T14:21:34Z</time>
      </trkpt>
      <trkpt lat="47.83271" lon="-2.84099">
        <ele>108</ele>
        <time>2013-08-22T14:21:40Z</time>
      </trkpt>
      <trkpt lat="47.83277" lon="-2.84091">
        <ele>106</ele>
        <time>2013-08-22T14:21:46Z</time>
      </trkpt>
      <trkpt lat="47.83282" lon="-2.84081">
        <ele>108</ele>
        <time>2013-08-22T14:21:53Z</time>
      </trkpt>
      <trkpt lat="47.83286" lon="-2.84071">
        <ele>110</ele>
        <time>2013-08-22T14:21:59Z</time>
      </trkpt>
      <trkpt lat="47.8329" lon="-2.84059">
        <ele>112</ele>
        <time>2013-08-22T14:22:06Z</time>
      </trkpt>
      <trkpt lat="47.83293" lon="-2.84047">
        <ele>114</ele>
        <time>2013-08-22T14:22:14Z</time>
      </trkpt>
      <trkpt lat="47.83298" lon="-2.84036">
        <ele>116</ele>
        <time>2013-08-22T14:22:20Z</time>
      </trkpt>
      <trkpt lat="47.83302" lon="-2.84026">
        <ele>118</ele>
        <time>2013-08-22T14:22:25Z</time>
      </trkpt>
      <trkpt lat="47.83308" lon="-2.84016">
        <ele>120</ele>
        <time>2013-08-22T14:22:30Z</time>
      </trkpt>
      <trkpt lat="47.83312" lon="-2.84007">
        <ele>120</ele>
        <time>2013-08-22T14:22:37Z</time>
      </trkpt>
      <trkpt lat="47.83316" lon="-2.83995">
        <ele>120</ele>
        <time>2013-08-22T14:22:44Z</time>
      </trkpt>
      <trkpt lat="47.83319" lon="-2.83983">
        <ele>121</ele>
        <time>2013-08-22T14:22:52Z</time>
      </trkpt>
      <trkpt lat="47.83323" lon="-2.83972">
        <ele>121</ele>
        <time>2013-08-22T14:23:01Z</time>
      </trkpt>
      <trkpt lat="47.83328" lon="-2.83961">
        <ele>121</ele>
        <time>2013-08-22T14:23:08Z</time>
      </trkpt>
      <trkpt lat="47.83332" lon="-2.8395">
        <ele>120</ele>
        <time>2013-08-22T14:23:13Z</time>
      </trkpt>
      <trkpt lat="47.83338" lon="-2.83943">
        <ele>117</ele>
        <time>2013-08-22T14:23:19Z</time>
      </trkpt>
      <trkpt lat="47.83343" lon="-2.83933">
        <ele>115</ele>
        <time>2013-08-22T14:23:23Z</time>
      </trkpt>
      <trkpt lat="47.83347" lon="-2.83922">
        <ele>113</ele>
        <time>2013-08-22T14:23:30Z</time>
      </trkpt>
      <trkpt lat="47.83349" lon="-2.8391">
        <ele>113</ele>
        <time>2013-08-22T14:23:36Z</time>
      </trkpt>
      <trkpt lat="47.83355" lon="-2.839">
        <ele>106</ele>
        <time>2013-08-22T14:23:56Z</time>
      </trkpt>
      <trkpt lat="47.83359" lon="-2.83889">
        <ele>100</ele>
        <time>2013-08-22T14:24:02Z</time>
      </trkpt>
      <trkpt lat="47.83364" lon="-2.8388">
        <ele>93</ele>
        <time>2013-08-22T14:24:22Z</time>
      </trkpt>
      <trkpt lat="47.83367" lon="-2.83868">
        <ele>89</ele>
        <time>2013-08-22T14:24:26Z</time>
      </trkpt>
      <trkpt lat="47.83365" lon="-2.83855">
        <ele>89</ele>
        <time>2013-08-22T14:24:34Z</time>
      </trkpt>
      <trkpt lat="47.83361" lon="-2.83845">
        <ele>92</ele>
        <time>2013-08-22T14:24:41Z</time>
      </trkpt>
      <trkpt lat="47.83358" lon="-2.83832">
        <ele>92</ele>
        <time>2013-08-22T14:24:48Z</time>
      </trkpt>
      <trkpt lat="47.83357" lon="-2.83819">
        <ele>92</ele>
        <time>2013-08-22T14:24:54Z</time>
      </trkpt>
      <trkpt lat="47.83356" lon="-2.83807">
        <ele>92</ele>
        <time>2013-08-22T14:25:01Z</time>
      </trkpt>
      <trkpt lat="47.83356" lon="-2.83794">
        <ele>92</ele>
        <time>2013-08-22T14:25:06Z</time>
      </trkpt>
      <trkpt lat="47.83355" lon="-2.83782">
        <ele>91</ele>
        <time>2013-08-22T14:25:12Z</time>
      </trkpt>
      <trkpt lat="47.83352" lon="-2.8377">
        <ele>92</ele>
        <time>2013-08-22T14:25:34Z</time>
      </trkpt>
      <trkpt lat="47.83351" lon="-2.83758">
        <ele>92</ele>
        <time>2013-08-22T14:25:40Z</time>
      </trkpt>
      <trkpt lat="47.8335" lon="-2.83746">
        <ele>92</ele>
        <time>2013-08-22T14:25:46Z</time>
      </trkpt>
      <trkpt lat="47.83349" lon="-2.83734">
        <ele>92</ele>
        <time>2013-08-22T14:25:52Z</time>
      </trkpt>
      <trkpt lat="47.83341" lon="-2.83729">
        <ele>95</ele>
        <time>2013-08-22T14:25:56Z</time>
      </trkpt>
      <trkpt lat="47.83333" lon="-2.83723">
        <ele>98</ele>
        <time>2013-08-22T14:26:00Z</time>
      </trkpt>
      <trkpt lat="47.83326" lon="-2.83717">
        <ele>99</ele>
        <time>2013-08-22T14:26:06Z</time>
      </trkpt>
      <trkpt lat="47.83318" lon="-2.83715">
        <ele>101</ele>
        <time>2013-08-22T14:26:12Z</time>
      </trkpt>
      <trkpt lat="47.83308" lon="-2.83718">
        <ele>106</ele>
        <time>2013-08-22T14:26:16Z</time>
      </trkpt>
      <trkpt lat="47.833" lon="-2.83718">
        <ele>106</ele>
        <time>2013-08-22T14:27:04Z</time>
      </trkpt>
      <trkpt lat="47.83292" lon="-2.83719">
        <ele>112</ele>
        <time>2013-08-22T14:27:10Z</time>
      </trkpt>
      <trkpt lat="47.83283" lon="-2.83718">
        <ele>111</ele>
        <time>2013-08-22T14:27:16Z</time>
      </trkpt>
      <trkpt lat="47.83275" lon="-2.83719">
        <ele>111</ele>
        <time>2013-08-22T14:27:23Z</time>
      </trkpt>
      <trkpt lat="47.83267" lon="-2.83719">
        <ele>111</ele>
        <time>2013-08-22T14:27:28Z</time>
      </trkpt>
      <trkpt lat="47.83259" lon="-2.8372">
        <ele>111</ele>
        <time>2013-08-22T14:27:36Z</time>
      </trkpt>
      <trkpt lat="47.83251" lon="-2.83722">
        <ele>114</ele>
        <time>2013-08-22T14:27:40Z</time>
      </trkpt>
      <trkpt lat="47.83242" lon="-2.83721">
        <ele>114</ele>
        <time>2013-08-22T14:27:50Z</time>
      </trkpt>
      <trkpt lat="47.83233" lon="-2.83722">
        <ele>114</ele>
        <time>2013-08-22T14:27:55Z</time>
      </trkpt>
      <trkpt lat="47.83225" lon="-2.83724">
        <ele>113</ele>
        <time>2013-08-22T14:28:02Z</time>
      </trkpt>
      <trkpt lat="47.83217" lon="-2.83728">
        <ele>112</ele>
        <time>2013-08-22T14:28:10Z</time>
      </trkpt>
      <trkpt lat="47.83209" lon="-2.83733">
        <ele>111</ele>
        <time>2013-08-22T14:28:18Z</time>
      </trkpt>
      <trkpt lat="47.83201" lon="-2.83738">
        <ele>109</ele>
        <time>2013-08-22T14:28:25Z</time>
      </trkpt>
      <trkpt lat="47.83194" lon="-2.83744">
        <ele>110</ele>
        <time>2013-08-22T14:28:33Z</time>
      </trkpt>
      <trkpt lat="47.83187" lon="-2.83752">
        <ele>109</ele>
        <time>2013-08-22T14:28:41Z</time>
      </trkpt>
      <trkpt lat="47.83181" lon="-2.83759">
        <ele>107</ele>
        <time>2013-08-22T14:28:50Z</time>
      </trkpt>
      <trkpt lat="47.83172" lon="-2.83765">
        <ele>106</ele>
        <time>2013-08-22T14:28:54Z</time>
      </trkpt>
      <trkpt lat="47.83165" lon="-2.83772">
        <ele>106</ele>
        <time>2013-08-22T14:28:58Z</time>
      </trkpt>
      <trkpt lat="47.83159" lon="-2.83778">
        <ele>106</ele>
        <time>2013-08-22T14:29:03Z</time>
      </trkpt>
      <trkpt lat="47.83153" lon="-2.83785">
        <ele>107</ele>
        <time>2013-08-22T14:29:08Z</time>
      </trkpt>
      <trkpt lat="47.83145" lon="-2.83791">
        <ele>108</ele>
        <time>2013-08-22T14:29:14Z</time>
      </trkpt>
      <trkpt lat="47.83138" lon="-2.83797">
        <ele>109</ele>
        <time>2013-08-22T14:29:19Z</time>
      </trkpt>
      <trkpt lat="47.8313" lon="-2.838">
        <ele>111</ele>
        <time>2013-08-22T14:29:25Z</time>
      </trkpt>
      <trkpt lat="47.83123" lon="-2.83804">
        <ele>112</ele>
        <time>2013-08-22T14:30:04Z</time>
      </trkpt>
      <trkpt lat="47.83118" lon="-2.83794">
        <ele>113</ele>
        <time>2013-08-22T14:30:19Z</time>
      </trkpt>
      <trkpt lat="47.83117" lon="-2.83782">
        <ele>114</ele>
        <time>2013-08-22T14:30:26Z</time>
      </trkpt>
      <trkpt lat="47.83117" lon="-2.8377">
        <ele>113</ele>
        <time>2013-08-22T14:30:32Z</time>
      </trkpt>
      <trkpt lat="47.8312" lon="-2.83759">
        <ele>113</ele>
        <time>2013-08-22T14:30:39Z</time>
      </trkpt>
      <trkpt lat="47.83121" lon="-2.83747">
        <ele>111</ele>
        <time>2013-08-22T14:30:45Z</time>
      </trkpt>
      <trkpt lat="47.8312" lon="-2.83736">
        <ele>110</ele>
        <time>2013-08-22T14:30:50Z</time>
      </trkpt>
      <trkpt lat="47.83121" lon="-2.83724">
        <ele>110</ele>
        <time>2013-08-22T14:30:54Z</time>
      </trkpt>
      <trkpt lat="47.83119" lon="-2.83713">
        <ele>110</ele>
        <time>2013-08-22T14:30:59Z</time>
      </trkpt>
      <trkpt lat="47.8312" lon="-2.837">
        <ele>109</ele>
        <time>2013-08-22T14:31:04Z</time>
      </trkpt>
      <trkpt lat="47.83119" lon="-2.83687">
        <ele>106</ele>
        <time>2013-08-22T14:31:12Z</time>
      </trkpt>
      <trkpt lat="47.83124" lon="-2.83696">
        <ele>103</ele>
        <time>2013-08-22T14:31:22Z</time>
      </trkpt>
      <trkpt lat="47.8313" lon="-2.83705">
        <ele>104</ele>
        <time>2013-08-22T14:31:28Z</time>
      </trkpt>
      <trkpt lat="47.83129" lon="-2.83718">
        <ele>106</ele>
        <time>2013-08-22T14:31:40Z</time>
      </trkpt>
      <trkpt lat="47.83133" lon="-2.8373">
        <ele>105</ele>
        <time>2013-08-22T14:31:50Z</time>
      </trkpt>
      <trkpt lat="47.83132" lon="-2.83743">
        <ele>105</ele>
        <time>2013-08-22T14:31:58Z</time>
      </trkpt>
      <trkpt lat="47.83132" lon="-2.83755">
        <ele>106</ele>
        <time>2013-08-22T14:32:04Z</time>
      </trkpt>
      <trkpt lat="47.83134" lon="-2.83766">
        <ele>107</ele>
        <time>2013-08-22T14:32:09Z</time>
      </trkpt>
      <trkpt lat="47.83132" lon="-2.83779">
        <ele>109</ele>
        <time>2013-08-22T14:32:15Z</time>
      </trkpt>
      <trkpt lat="47.83135" lon="-2.8379">
        <ele>111</ele>
        <time>2013-08-22T14:32:22Z</time>
      </trkpt>
      <trkpt lat="47.83131" lon="-2.83795">
        <ele>112</ele>
        <time>2013-08-22T14:34:15Z</time>
      </trkpt>
      <trkpt lat="47.8312" lon="-2.83807">
        <ele>115</ele>
        <time>2013-08-22T14:34:20Z</time>
      </trkpt>
      <trkpt lat="47.83114" lon="-2.83816">
        <ele>116</ele>
        <time>2013-08-22T14:34:23Z</time>
      </trkpt>
      <trkpt lat="47.83107" lon="-2.83822">
        <ele>118</ele>
        <time>2013-08-22T14:34:32Z</time>
      </trkpt>
      <trkpt lat="47.83099" lon="-2.83827">
        <ele>118</ele>
        <time>2013-08-22T14:34:38Z</time>
      </trkpt>
      <trkpt lat="47.83093" lon="-2.83833">
        <ele>119</ele>
        <time>2013-08-22T14:34:43Z</time>
      </trkpt>
      <trkpt lat="47.83086" lon="-2.83838">
        <ele>119</ele>
        <time>2013-08-22T14:34:48Z</time>
      </trkpt>
      <trkpt lat="47.8308" lon="-2.83845">
        <ele>120</ele>
        <time>2013-08-22T14:34:53Z</time>
      </trkpt>
      <trkpt lat="47.83072" lon="-2.83851">
        <ele>120</ele>
        <time>2013-08-22T14:34:59Z</time>
      </trkpt>
      <trkpt lat="47.83065" lon="-2.83857">
        <ele>121</ele>
        <time>2013-08-22T14:35:06Z</time>
      </trkpt>
      <trkpt lat="47.83058" lon="-2.83863">
        <ele>122</ele>
        <time>2013-08-22T14:35:10Z</time>
      </trkpt>
      <trkpt lat="47.83051" lon="-2.8387">
        <ele>122</ele>
        <time>2013-08-22T14:35:16Z</time>
      </trkpt>
      <trkpt lat="47.83045" lon="-2.83876">
        <ele>123</ele>
        <time>2013-08-22T14:35:22Z</time>
      </trkpt>
      <trkpt lat="47.83037" lon="-2.83883">
        <ele>124</ele>
        <time>2013-08-22T14:35:29Z</time>
      </trkpt>
      <trkpt lat="47.8303" lon="-2.83891">
        <ele>124</ele>
        <time>2013-08-22T14:35:36Z</time>
      </trkpt>
      <trkpt lat="47.83022" lon="-2.83896">
        <ele>123</ele>
        <time>2013-08-22T14:35:43Z</time>
      </trkpt>
      <trkpt lat="47.83014" lon="-2.839">
        <ele>123</ele>
        <time>2013-08-22T14:35:51Z</time>
      </trkpt>
      <trkpt lat="47.83006" lon="-2.83902">
        <ele>123</ele>
        <time>2013-08-22T14:35:56Z</time>
      </trkpt>
      <trkpt lat="47.82997" lon="-2.83903">
        <ele>123</ele>
        <time>2013-08-22T14:36:02Z</time>
      </trkpt>
      <trkpt lat="47.82988" lon="-2.83903">
        <ele>122</ele>
        <time>2013-08-22T14:36:08Z</time>
      </trkpt>
      <trkpt lat="47.8298" lon="-2.83899">
        <ele>122</ele>
        <time>2013-08-22T14:36:16Z</time>
      </trkpt>
      <trkpt lat="47.82972" lon="-2.83896">
        <ele>122</ele>
        <time>2013-08-22T14:36:22Z</time>
      </trkpt>
      <trkpt lat="47.82964" lon="-2.83896">
        <ele>122</ele>
        <time>2013-08-22T14:36:27Z</time>
      </trkpt>
      <trkpt lat="47.82956" lon="-2.83895">
        <ele>121</ele>
        <time>2013-08-22T14:36:32Z</time>
      </trkpt>
      <trkpt lat="47.82948" lon="-2.83895">
        <ele>120</ele>
        <time>2013-08-22T14:36:38Z</time>
      </trkpt>
      <trkpt lat="47.8294" lon="-2.83894">
        <ele>120</ele>
        <time>2013-08-22T14:36:45Z</time>
      </trkpt>
      <trkpt lat="47.82931" lon="-2.83897">
        <ele>118</ele>
        <time>2013-08-22T14:36:52Z</time>
      </trkpt>
      <trkpt lat="47.82923" lon="-2.839">
        <ele>118</ele>
        <time>2013-08-22T14:37:00Z</time>
      </trkpt>
      <trkpt lat="47.82915" lon="-2.83904">
        <ele>117</ele>
        <time>2013-08-22T14:37:06Z</time>
      </trkpt>
      <trkpt lat="47.82906" lon="-2.83908">
        <ele>116</ele>
        <time>2013-08-22T14:37:10Z</time>
      </trkpt>
      <trkpt lat="47.82899" lon="-2.83912">
        <ele>116</ele>
        <time>2013-08-22T14:37:14Z</time>
      </trkpt>
      <trkpt lat="47.8289" lon="-2.83919">
        <ele>116</ele>
        <time>2013-08-22T14:37:19Z</time>
      </trkpt>
      <trkpt lat="47.82882" lon="-2.83924">
        <ele>116</ele>
        <time>2013-08-22T14:37:26Z</time>
      </trkpt>
      <trkpt lat="47.82876" lon="-2.83927">
        <ele>116</ele>
        <time>2013-08-22T14:37:31Z</time>
      </trkpt>
      <trkpt lat="47.82868" lon="-2.83931">
        <ele>116</ele>
        <time>2013-08-22T14:37:35Z</time>
      </trkpt>
      <trkpt lat="47.8286" lon="-2.83935">
        <ele>116</ele>
        <time>2013-08-22T14:37:42Z</time>
      </trkpt>
      <trkpt lat="47.82852" lon="-2.83939">
        <ele>116</ele>
        <time>2013-08-22T14:37:48Z</time>
      </trkpt>
      <trkpt lat="47.82845" lon="-2.83942">
        <ele>116</ele>
        <time>2013-08-22T14:37:52Z</time>
      </trkpt>
      <trkpt lat="47.82836" lon="-2.83946">
        <ele>116</ele>
        <time>2013-08-22T14:37:58Z</time>
      </trkpt>
      <trkpt lat="47.82829" lon="-2.83951">
        <ele>116</ele>
        <time>2013-08-22T14:38:03Z</time>
      </trkpt>
      <trkpt lat="47.82822" lon="-2.83955">
        <ele>117</ele>
        <time>2013-08-22T14:38:08Z</time>
      </trkpt>
      <trkpt lat="47.82814" lon="-2.83959">
        <ele>117</ele>
        <time>2013-08-22T14:38:12Z</time>
      </trkpt>
      <trkpt lat="47.82806" lon="-2.83964">
        <ele>118</ele>
        <time>2013-08-22T14:38:19Z</time>
      </trkpt>
      <trkpt lat="47.82798" lon="-2.83968">
        <ele>118</ele>
        <time>2013-08-22T14:38:24Z</time>
      </trkpt>
      <trkpt lat="47.82791" lon="-2.83972">
        <ele>118</ele>
        <time>2013-08-22T14:38:33Z</time>
      </trkpt>
      <trkpt lat="47.82783" lon="-2.83976">
        <ele>118</ele>
        <time>2013-08-22T14:38:40Z</time>
      </trkpt>
      <trkpt lat="47.82775" lon="-2.8398">
        <ele>117</ele>
        <time>2013-08-22T14:38:44Z</time>
      </trkpt>
      <trkpt lat="47.82767" lon="-2.83983">
        <ele>118</ele>
        <time>2013-08-22T14:38:52Z</time>
      </trkpt>
      <trkpt lat="47.82759" lon="-2.83987">
        <ele>117</ele>
        <time>2013-08-22T14:38:58Z</time>
      </trkpt>
      <trkpt lat="47.82751" lon="-2.83991">
        <ele>117</ele>
        <time>2013-08-22T14:39:04Z</time>
      </trkpt>
      <trkpt lat="47.82744" lon="-2.83995">
        <ele>117</ele>
        <time>2013-08-22T14:39:11Z</time>
      </trkpt>
      <trkpt lat="47.82737" lon="-2.83999">
        <ele>117</ele>
        <time>2013-08-22T14:39:15Z</time>
      </trkpt>
      <trkpt lat="47.82729" lon="-2.84003">
        <ele>117</ele>
        <time>2013-08-22T14:39:20Z</time>
      </trkpt>
      <trkpt lat="47.82721" lon="-2.84007">
        <ele>116</ele>
        <time>2013-08-22T14:39:30Z</time>
      </trkpt>
      <trkpt lat="47.82715" lon="-2.84014">
        <ele>116</ele>
        <time>2013-08-22T14:39:39Z</time>
      </trkpt>
      <trkpt lat="47.82709" lon="-2.84024">
        <ele>116</ele>
        <time>2013-08-22T14:39:47Z</time>
      </trkpt>
      <trkpt lat="47.82705" lon="-2.84034">
        <ele>116</ele>
        <time>2013-08-22T14:39:53Z</time>
      </trkpt>
      <trkpt lat="47.82701" lon="-2.84047">
        <ele>115</ele>
        <time>2013-08-22T14:40:01Z</time>
      </trkpt>
      <trkpt lat="47.82699" lon="-2.84058">
        <ele>115</ele>
        <time>2013-08-22T14:40:06Z</time>
      </trkpt>
      <trkpt lat="47.82697" lon="-2.8407">
        <ele>115</ele>
        <time>2013-08-22T14:40:12Z</time>
      </trkpt>
      <trkpt lat="47.82694" lon="-2.84081">
        <ele>115</ele>
        <time>2013-08-22T14:40:18Z</time>
      </trkpt>
      <trkpt lat="47.82692" lon="-2.84092">
        <ele>115</ele>
        <time>2013-08-22T14:40:24Z</time>
      </trkpt>
      <trkpt lat="47.82693" lon="-2.84104">
        <ele>112</ele>
        <time>2013-08-22T14:40:30Z</time>
      </trkpt>
      <trkpt lat="47.82692" lon="-2.84116">
        <ele>110</ele>
        <time>2013-08-22T14:40:37Z</time>
      </trkpt>
      <trkpt lat="47.82689" lon="-2.84128">
        <ele>110</ele>
        <time>2013-08-22T14:40:41Z</time>
      </trkpt>
      <trkpt lat="47.82686" lon="-2.84141">
        <ele>110</ele>
        <time>2013-08-22T14:40:48Z</time>
      </trkpt>
      <trkpt lat="47.82683" lon="-2.84152">
        <ele>110</ele>
        <time>2013-08-22T14:40:56Z</time>
      </trkpt>
      <trkpt lat="47.82681" lon="-2.84164">
        <ele>110</ele>
        <time>2013-08-22T14:41:03Z</time>
      </trkpt>
      <trkpt lat="47.82679" lon="-2.84176">
        <ele>109</ele>
        <time>2013-08-22T14:41:10Z</time>
      </trkpt>
      <trkpt lat="47.82679" lon="-2.84188">
        <ele>108</ele>
        <time>2013-08-22T14:41:16Z</time>
      </trkpt>
      <trkpt lat="47.82679" lon="-2.84202">
        <ele>108</ele>
        <time>2013-08-22T14:41:22Z</time>
      </trkpt>
      <trkpt lat="47.82681" lon="-2.84214">
        <ele>107</ele>
        <time>2013-08-22T14:41:31Z</time>
      </trkpt>
      <trkpt lat="47.82681" lon="-2.84226">
        <ele>106</ele>
        <time>2013-08-22T14:41:38Z</time>
      </trkpt>
      <trkpt lat="47.8268" lon="-2.84239">
        <ele>106</ele>
        <time>2013-08-22T14:41:44Z</time>
      </trkpt>
      <trkpt lat="47.82677" lon="-2.84249">
        <ele>106</ele>
        <time>2013-08-22T14:41:49Z</time>
      </trkpt>
      <trkpt lat="47.82671" lon="-2.84256">
        <ele>106</ele>
        <time>2013-08-22T14:41:52Z</time>
      </trkpt>
      <trkpt lat="47.82662" lon="-2.84257">
        <ele>105</ele>
        <time>2013-08-22T14:41:58Z</time>
      </trkpt>
      <trkpt lat="47.82653" lon="-2.84257">
        <ele>105</ele>
        <time>2013-08-22T14:42:02Z</time>
      </trkpt>
      <trkpt lat="47.82644" lon="-2.84256">
        <ele>104</ele>
        <time>2013-08-22T14:42:10Z</time>
      </trkpt>
      <trkpt lat="47.82636" lon="-2.84255">
        <ele>104</ele>
        <time>2013-08-22T14:42:17Z</time>
      </trkpt>
      <trkpt lat="47.82628" lon="-2.84255">
        <ele>103</ele>
        <time>2013-08-22T14:42:23Z</time>
      </trkpt>
      <trkpt lat="47.8262" lon="-2.84251">
        <ele>103</ele>
        <time>2013-08-22T14:42:30Z</time>
      </trkpt>
      <trkpt lat="47.82612" lon="-2.84248">
        <ele>104</ele>
        <time>2013-08-22T14:42:36Z</time>
      </trkpt>
      <trkpt lat="47.82604" lon="-2.84247">
        <ele>104</ele>
        <time>2013-08-22T14:42:40Z</time>
      </trkpt>
      <trkpt lat="47.82596" lon="-2.84246">
        <ele>105</ele>
        <time>2013-08-22T14:42:47Z</time>
      </trkpt>
      <trkpt lat="47.82587" lon="-2.84244">
        <ele>105</ele>
        <time>2013-08-22T14:42:52Z</time>
      </trkpt>
      <trkpt lat="47.82579" lon="-2.84241">
        <ele>105</ele>
        <time>2013-08-22T14:42:58Z</time>
      </trkpt>
      <trkpt lat="47.82571" lon="-2.84239">
        <ele>106</ele>
        <time>2013-08-22T14:43:05Z</time>
      </trkpt>
      <trkpt lat="47.82563" lon="-2.84236">
        <ele>106</ele>
        <time>2013-08-22T14:43:10Z</time>
      </trkpt>
      <trkpt lat="47.82556" lon="-2.84233">
        <ele>106</ele>
        <time>2013-08-22T14:43:14Z</time>
      </trkpt>
      <trkpt lat="47.82548" lon="-2.84232">
        <ele>107</ele>
        <time>2013-08-22T14:43:19Z</time>
      </trkpt>
      <trkpt lat="47.8254" lon="-2.84229">
        <ele>108</ele>
        <time>2013-08-22T14:43:24Z</time>
      </trkpt>
      <trkpt lat="47.82533" lon="-2.84226">
        <ele>108</ele>
        <time>2013-08-22T14:43:29Z</time>
      </trkpt>
      <trkpt lat="47.82525" lon="-2.84223">
        <ele>109</ele>
        <time>2013-08-22T14:43:34Z</time>
      </trkpt>
      <trkpt lat="47.82517" lon="-2.8422">
        <ele>110</ele>
        <time>2013-08-22T14:43:40Z</time>
      </trkpt>
      <trkpt lat="47.82508" lon="-2.84216">
        <ele>111</ele>
        <time>2013-08-22T14:43:45Z</time>
      </trkpt>
      <trkpt lat="47.825" lon="-2.84213">
        <ele>112</ele>
        <time>2013-08-22T14:43:50Z</time>
      </trkpt>
      <trkpt lat="47.82493" lon="-2.84208">
        <ele>114</ele>
        <time>2013-08-22T14:43:58Z</time>
      </trkpt>
      <trkpt lat="47.82485" lon="-2.84203">
        <ele>115</ele>
        <time>2013-08-22T14:44:04Z</time>
      </trkpt>
      <trkpt lat="47.82476" lon="-2.84201">
        <ele>115</ele>
        <time>2013-08-22T14:44:12Z</time>
      </trkpt>
      <trkpt lat="47.82466" lon="-2.84201">
        <ele>114</ele>
        <time>2013-08-22T14:44:17Z</time>
      </trkpt>
      <trkpt lat="47.82459" lon="-2.84194">
        <ele>111</ele>
        <time>2013-08-22T14:44:23Z</time>
      </trkpt>
      <trkpt lat="47.82453" lon="-2.84185">
        <ele>109</ele>
        <time>2013-08-22T14:44:32Z</time>
      </trkpt>
      <trkpt lat="47.82446" lon="-2.84179">
        <ele>107</ele>
        <time>2013-08-22T14:44:40Z</time>
      </trkpt>
      <trkpt lat="47.82438" lon="-2.84174">
        <ele>106</ele>
        <time>2013-08-22T14:44:45Z</time>
      </trkpt>
      <trkpt lat="47.82431" lon="-2.84169">
        <ele>106</ele>
        <time>2013-08-22T14:44:52Z</time>
      </trkpt>
      <trkpt lat="47.82423" lon="-2.84164">
        <ele>105</ele>
        <time>2013-08-22T14:44:59Z</time>
      </trkpt>
      <trkpt lat="47.82415" lon="-2.84167">
        <ele>105</ele>
        <time>2013-08-22T14:45:09Z</time>
      </trkpt>
      <trkpt lat="47.82415" lon="-2.84179">
        <ele>103</ele>
        <time>2013-08-22T14:45:23Z</time>
      </trkpt>
      <trkpt lat="47.82415" lon="-2.84191">
        <ele>101</ele>
        <time>2013-08-22T14:45:30Z</time>
      </trkpt>
      <trkpt lat="47.82411" lon="-2.84203">
        <ele>101</ele>
        <time>2013-08-22T14:45:34Z</time>
      </trkpt>
      <trkpt lat="47.82414" lon="-2.84214">
        <ele>100</ele>
        <time>2013-08-22T14:45:43Z</time>
      </trkpt>
      <trkpt lat="47.82419" lon="-2.84223">
        <ele>100</ele>
        <time>2013-08-22T14:45:53Z</time>
      </trkpt>
      <trkpt lat="47.82425" lon="-2.84233">
        <ele>99</ele>
        <time>2013-08-22T14:46:01Z</time>
      </trkpt>
      <trkpt lat="47.82433" lon="-2.84239">
        <ele>98</ele>
        <time>2013-08-22T14:46:08Z</time>
      </trkpt>
      <trkpt lat="47.82437" lon="-2.84249">
        <ele>96</ele>
        <time>2013-08-22T14:46:16Z</time>
      </trkpt>
      <trkpt lat="47.82439" lon="-2.84262">
        <ele>94</ele>
        <time>2013-08-22T14:46:25Z</time>
      </trkpt>
      <trkpt lat="47.82439" lon="-2.84275">
        <ele>93</ele>
        <time>2013-08-22T14:46:31Z</time>
      </trkpt>
      <trkpt lat="47.82442" lon="-2.84287">
        <ele>92</ele>
        <time>2013-08-22T14:46:38Z</time>
      </trkpt>
      <trkpt lat="47.82442" lon="-2.84299">
        <ele>91</ele>
        <time>2013-08-22T14:46:44Z</time>
      </trkpt>
      <trkpt lat="47.82444" lon="-2.84311">
        <ele>91</ele>
        <time>2013-08-22T14:46:50Z</time>
      </trkpt>
      <trkpt lat="47.8244" lon="-2.84322">
        <ele>91</ele>
        <time>2013-08-22T14:46:55Z</time>
      </trkpt>
      <trkpt lat="47.82438" lon="-2.84335">
        <ele>91</ele>
        <time>2013-08-22T14:47:04Z</time>
      </trkpt>
      <trkpt lat="47.82435" lon="-2.84347">
        <ele>91</ele>
        <time>2013-08-22T14:47:13Z</time>
      </trkpt>
      <trkpt lat="47.8243" lon="-2.84357">
        <ele>91</ele>
        <time>2013-08-22T14:47:18Z</time>
      </trkpt>
      <trkpt lat="47.82424" lon="-2.84364">
        <ele>92</ele>
        <time>2013-08-22T14:47:24Z</time>
      </trkpt>
      <trkpt lat="47.82426" lon="-2.84374">
        <ele>90</ele>
        <time>2013-08-22T14:47:30Z</time>
      </trkpt>
      <trkpt lat="47.82435" lon="-2.8438">
        <ele>84</ele>
        <time>2013-08-22T14:47:34Z</time>
      </trkpt>
      <trkpt lat="47.82436" lon="-2.8438">
        <ele>84</ele>
        <time>2013-08-22T14:47:47Z</time>
      </trkpt>
      <trkpt lat="47.82443" lon="-2.84392">
        <ele>69</ele>
        <time>2013-08-22T14:47:52Z</time>
      </trkpt>
      <trkpt lat="47.82442" lon="-2.84405">
        <ele>70</ele>
        <time>2013-08-22T14:48:01Z</time>
      </trkpt>
      <trkpt lat="47.82438" lon="-2.84417">
        <ele>72</ele>
        <time>2013-08-22T14:48:15Z</time>
      </trkpt>
      <trkpt lat="47.82436" lon="-2.84422">
        <ele>73</ele>
        <time>2013-08-22T14:48:23Z</time>
      </trkpt>
      <trkpt lat="47.8243" lon="-2.84432">
        <ele>74</ele>
        <time>2013-08-22T14:48:28Z</time>
      </trkpt>
      <trkpt lat="47.82424" lon="-2.84441">
        <ele>74</ele>
        <time>2013-08-22T14:48:34Z</time>
      </trkpt>
      <trkpt lat="47.82417" lon="-2.84453">
        <ele>75</ele>
        <time>2013-08-22T14:48:38Z</time>
      </trkpt>
      <trkpt lat="47.82411" lon="-2.84464">
        <ele>76</ele>
        <time>2013-08-22T14:48:45Z</time>
      </trkpt>
      <trkpt lat="47.82407" lon="-2.84474">
        <ele>78</ele>
        <time>2013-08-22T14:48:51Z</time>
      </trkpt>
      <trkpt lat="47.82406" lon="-2.84488">
        <ele>77</ele>
        <time>2013-08-22T14:48:58Z</time>
      </trkpt>
      <trkpt lat="47.82414" lon="-2.84491">
        <ele>76</ele>
        <time>2013-08-22T14:49:05Z</time>
      </trkpt>
      <trkpt lat="47.82422" lon="-2.8449">
        <ele>78</ele>
        <time>2013-08-22T14:49:25Z</time>
      </trkpt>
      <trkpt lat="47.82429" lon="-2.84496">
        <ele>81</ele>
        <time>2013-08-22T14:49:30Z</time>
      </trkpt>
      <trkpt lat="47.82433" lon="-2.84507">
        <ele>85</ele>
        <time>2013-08-22T14:49:39Z</time>
      </trkpt>
      <trkpt lat="47.82433" lon="-2.8452">
        <ele>88</ele>
        <time>2013-08-22T14:49:49Z</time>
      </trkpt>
      <trkpt lat="47.82431" lon="-2.84532">
        <ele>89</ele>
        <time>2013-08-22T14:49:58Z</time>
      </trkpt>
      <trkpt lat="47.82434" lon="-2.84544">
        <ele>91</ele>
        <time>2013-08-22T14:50:04Z</time>
      </trkpt>
      <trkpt lat="47.82439" lon="-2.84552">
        <ele>91</ele>
        <time>2013-08-22T14:50:10Z</time>
      </trkpt>
      <trkpt lat="47.82444" lon="-2.84562">
        <ele>92</ele>
        <time>2013-08-22T14:50:17Z</time>
      </trkpt>
      <trkpt lat="47.82444" lon="-2.84575">
        <ele>93</ele>
        <time>2013-08-22T14:50:30Z</time>
      </trkpt>
      <trkpt lat="47.82445" lon="-2.84587">
        <ele>93</ele>
        <time>2013-08-22T14:50:36Z</time>
      </trkpt>
      <trkpt lat="47.82446" lon="-2.84598">
        <ele>93</ele>
        <time>2013-08-22T14:50:40Z</time>
      </trkpt>
      <trkpt lat="47.82447" lon="-2.84611">
        <ele>93</ele>
        <time>2013-08-22T14:50:46Z</time>
      </trkpt>
      <trkpt lat="47.82451" lon="-2.84623">
        <ele>94</ele>
        <time>2013-08-22T14:50:52Z</time>
      </trkpt>
      <trkpt lat="47.82453" lon="-2.84636">
        <ele>96</ele>
        <time>2013-08-22T14:51:00Z</time>
      </trkpt>
      <trkpt lat="47.82455" lon="-2.84647">
        <ele>96</ele>
        <time>2013-08-22T14:51:06Z</time>
      </trkpt>
      <trkpt lat="47.82454" lon="-2.84659">
        <ele>98</ele>
        <time>2013-08-22T14:51:12Z</time>
      </trkpt>
      <trkpt lat="47.82456" lon="-2.84671">
        <ele>100</ele>
        <time>2013-08-22T14:51:18Z</time>
      </trkpt>
      <trkpt lat="47.82457" lon="-2.84683">
        <ele>101</ele>
        <time>2013-08-22T14:51:24Z</time>
      </trkpt>
      <trkpt lat="47.82455" lon="-2.84696">
        <ele>102</ele>
        <time>2013-08-22T14:51:30Z</time>
      </trkpt>
      <trkpt lat="47.82454" lon="-2.84707">
        <ele>103</ele>
        <time>2013-08-22T14:51:37Z</time>
      </trkpt>
      <trkpt lat="47.82454" lon="-2.84719">
        <ele>103</ele>
        <time>2013-08-22T14:51:44Z</time>
      </trkpt>
      <trkpt lat="47.82451" lon="-2.8473">
        <ele>104</ele>
        <time>2013-08-22T14:51:48Z</time>
      </trkpt>
      <trkpt lat="47.82457" lon="-2.84734">
        <ele>98</ele>
        <time>2013-08-22T14:51:52Z</time>
      </trkpt>
      <trkpt lat="47.82464" lon="-2.84743">
        <ele>76</ele>
        <time>2013-08-22T14:52:09Z</time>
      </trkpt>
      <trkpt lat="47.82472" lon="-2.84745">
        <ele>54</ele>
        <time>2013-08-22T14:52:33Z</time>
      </trkpt>
      <trkpt lat="47.82479" lon="-2.84754">
        <ele>58</ele>
        <time>2013-08-22T14:53:03Z</time>
      </trkpt>
      <trkpt lat="47.82479" lon="-2.84766">
        <ele>64</ele>
        <time>2013-08-22T14:53:14Z</time>
      </trkpt>
      <trkpt lat="47.82479" lon="-2.84777">
        <ele>70</ele>
        <time>2013-08-22T14:53:21Z</time>
      </trkpt>
      <trkpt lat="47.82476" lon="-2.8479">
        <ele>75</ele>
        <time>2013-08-22T14:53:26Z</time>
      </trkpt>
      <trkpt lat="47.82479" lon="-2.84802">
        <ele>78</ele>
        <time>2013-08-22T14:53:34Z</time>
      </trkpt>
      <trkpt lat="47.8248" lon="-2.84813">
        <ele>80</ele>
        <time>2013-08-22T14:53:41Z</time>
      </trkpt>
      <trkpt lat="47.82477" lon="-2.84824">
        <ele>83</ele>
        <time>2013-08-22T14:53:46Z</time>
      </trkpt>
      <trkpt lat="47.82472" lon="-2.84833">
        <ele>85</ele>
        <time>2013-08-22T14:53:53Z</time>
      </trkpt>
      <trkpt lat="47.82464" lon="-2.84842">
        <ele>84</ele>
        <time>2013-08-22T14:53:57Z</time>
      </trkpt>
      <trkpt lat="47.82454" lon="-2.8485">
        <ele>86</ele>
        <time>2013-08-22T14:54:02Z</time>
      </trkpt>
      <trkpt lat="47.82448" lon="-2.84855">
        <ele>88</ele>
        <time>2013-08-22T14:54:06Z</time>
      </trkpt>
      <trkpt lat="47.82441" lon="-2.8486">
        <ele>89</ele>
        <time>2013-08-22T14:54:10Z</time>
      </trkpt>
      <trkpt lat="47.82434" lon="-2.84865">
        <ele>91</ele>
        <time>2013-08-22T14:54:15Z</time>
      </trkpt>
      <trkpt lat="47.82427" lon="-2.84871">
        <ele>93</ele>
        <time>2013-08-22T14:54:20Z</time>
      </trkpt>
      <trkpt lat="47.82419" lon="-2.84876">
        <ele>94</ele>
        <time>2013-08-22T14:54:25Z</time>
      </trkpt>
      <trkpt lat="47.82412" lon="-2.84881">
        <ele>96</ele>
        <time>2013-08-22T14:54:29Z</time>
      </trkpt>
      <trkpt lat="47.82404" lon="-2.84886">
        <ele>99</ele>
        <time>2013-08-22T14:54:35Z</time>
      </trkpt>
      <trkpt lat="47.82397" lon="-2.8489">
        <ele>100</ele>
        <time>2013-08-22T14:54:42Z</time>
      </trkpt>
      <trkpt lat="47.8239" lon="-2.84894">
        <ele>102</ele>
        <time>2013-08-22T14:54:47Z</time>
      </trkpt>
      <trkpt lat="47.82382" lon="-2.84898">
        <ele>106</ele>
        <time>2013-08-22T14:54:52Z</time>
      </trkpt>
      <trkpt lat="47.82374" lon="-2.84903">
        <ele>109</ele>
        <time>2013-08-22T14:54:57Z</time>
      </trkpt>
      <trkpt lat="47.82367" lon="-2.84907">
        <ele>109</ele>
        <time>2013-08-22T14:55:01Z</time>
      </trkpt>
      <trkpt lat="47.82359" lon="-2.84912">
        <ele>111</ele>
        <time>2013-08-22T14:55:08Z</time>
      </trkpt>
      <trkpt lat="47.82351" lon="-2.84917">
        <ele>112</ele>
        <time>2013-08-22T14:55:14Z</time>
      </trkpt>
      <trkpt lat="47.82344" lon="-2.8492">
        <ele>114</ele>
        <time>2013-08-22T14:55:18Z</time>
      </trkpt>
      <trkpt lat="47.82337" lon="-2.84924">
        <ele>114</ele>
        <time>2013-08-22T14:55:23Z</time>
      </trkpt>
      <trkpt lat="47.8233" lon="-2.84928">
        <ele>115</ele>
        <time>2013-08-22T14:55:29Z</time>
      </trkpt>
      <trkpt lat="47.82322" lon="-2.84933">
        <ele>116</ele>
        <time>2013-08-22T14:55:34Z</time>
      </trkpt>
      <trkpt lat="47.82314" lon="-2.84936">
        <ele>116</ele>
        <time>2013-08-22T14:55:40Z</time>
      </trkpt>
      <trkpt lat="47.82305" lon="-2.84941">
        <ele>117</ele>
        <time>2013-08-22T14:55:45Z</time>
      </trkpt>
      <trkpt lat="47.82298" lon="-2.84944">
        <ele>117</ele>
        <time>2013-08-22T14:55:52Z</time>
      </trkpt>
      <trkpt lat="47.8229" lon="-2.84947">
        <ele>117</ele>
        <time>2013-08-22T14:55:58Z</time>
      </trkpt>
      <trkpt lat="47.82282" lon="-2.8495">
        <ele>118</ele>
        <time>2013-08-22T14:56:04Z</time>
      </trkpt>
      <trkpt lat="47.82274" lon="-2.84954">
        <ele>120</ele>
        <time>2013-08-22T14:56:08Z</time>
      </trkpt>
      <trkpt lat="47.82266" lon="-2.84957">
        <ele>121</ele>
        <time>2013-08-22T14:56:15Z</time>
      </trkpt>
      <trkpt lat="47.82258" lon="-2.84961">
        <ele>121</ele>
        <time>2013-08-22T14:56:20Z</time>
      </trkpt>
      <trkpt lat="47.8225" lon="-2.84964">
        <ele>122</ele>
        <time>2013-08-22T14:56:27Z</time>
      </trkpt>
      <trkpt lat="47.82241" lon="-2.84967">
        <ele>122</ele>
        <time>2013-08-22T14:56:33Z</time>
      </trkpt>
      <trkpt lat="47.82234" lon="-2.84971">
        <ele>122</ele>
        <time>2013-08-22T14:56:40Z</time>
      </trkpt>
      <trkpt lat="47.82225" lon="-2.84975">
        <ele>122</ele>
        <time>2013-08-22T14:56:48Z</time>
      </trkpt>
      <trkpt lat="47.82219" lon="-2.84978">
        <ele>122</ele>
        <time>2013-08-22T14:56:55Z</time>
      </trkpt>
      <trkpt lat="47.8221" lon="-2.84982">
        <ele>122</ele>
        <time>2013-08-22T14:57:00Z</time>
      </trkpt>
      <trkpt lat="47.82201" lon="-2.84986">
        <ele>122</ele>
        <time>2013-08-22T14:57:06Z</time>
      </trkpt>
      <trkpt lat="47.82194" lon="-2.84989">
        <ele>122</ele>
        <time>2013-08-22T14:57:10Z</time>
      </trkpt>
      <trkpt lat="47.82186" lon="-2.84993">
        <ele>121</ele>
        <time>2013-08-22T14:57:17Z</time>
      </trkpt>
      <trkpt lat="47.82177" lon="-2.84995">
        <ele>120</ele>
        <time>2013-08-22T14:57:22Z</time>
      </trkpt>
      <trkpt lat="47.8217" lon="-2.84998">
        <ele>119</ele>
        <time>2013-08-22T14:57:28Z</time>
      </trkpt>
      <trkpt lat="47.82161" lon="-2.84999">
        <ele>118</ele>
        <time>2013-08-22T14:57:34Z</time>
      </trkpt>
      <trkpt lat="47.82153" lon="-2.84999">
        <ele>117</ele>
        <time>2013-08-22T14:57:41Z</time>
      </trkpt>
      <trkpt lat="47.82146" lon="-2.84998">
        <ele>117</ele>
        <time>2013-08-22T14:57:46Z</time>
      </trkpt>
      <trkpt lat="47.82137" lon="-2.84995">
        <ele>117</ele>
        <time>2013-08-22T14:57:52Z</time>
      </trkpt>
      <trkpt lat="47.82129" lon="-2.84993">
        <ele>117</ele>
        <time>2013-08-22T14:57:57Z</time>
      </trkpt>
      <trkpt lat="47.82121" lon="-2.84992">
        <ele>118</ele>
        <time>2013-08-22T14:58:04Z</time>
      </trkpt>
      <trkpt lat="47.82113" lon="-2.84991">
        <ele>118</ele>
        <time>2013-08-22T14:58:08Z</time>
      </trkpt>
      <trkpt lat="47.82105" lon="-2.84991">
        <ele>118</ele>
        <time>2013-08-22T14:58:16Z</time>
      </trkpt>
      <trkpt lat="47.82096" lon="-2.84989">
        <ele>119</ele>
        <time>2013-08-22T14:58:22Z</time>
      </trkpt>
      <trkpt lat="47.82088" lon="-2.84987">
        <ele>120</ele>
        <time>2013-08-22T14:58:28Z</time>
      </trkpt>
      <trkpt lat="47.82079" lon="-2.84985">
        <ele>120</ele>
        <time>2013-08-22T14:58:35Z</time>
      </trkpt>
      <trkpt lat="47.82071" lon="-2.84983">
        <ele>120</ele>
        <time>2013-08-22T14:58:41Z</time>
      </trkpt>
      <trkpt lat="47.82062" lon="-2.84981">
        <ele>121</ele>
        <time>2013-08-22T14:58:46Z</time>
      </trkpt>
      <trkpt lat="47.82054" lon="-2.84979">
        <ele>121</ele>
        <time>2013-08-22T14:58:52Z</time>
      </trkpt>
      <trkpt lat="47.82045" lon="-2.84978">
        <ele>120</ele>
        <time>2013-08-22T14:58:59Z</time>
      </trkpt>
      <trkpt lat="47.82038" lon="-2.84977">
        <ele>120</ele>
        <time>2013-08-22T14:59:05Z</time>
      </trkpt>
      <trkpt lat="47.82029" lon="-2.84974">
        <ele>120</ele>
        <time>2013-08-22T14:59:11Z</time>
      </trkpt>
      <trkpt lat="47.82021" lon="-2.84973">
        <ele>120</ele>
        <time>2013-08-22T14:59:17Z</time>
      </trkpt>
      <trkpt lat="47.82013" lon="-2.84968">
        <ele>121</ele>
        <time>2013-08-22T14:59:24Z</time>
      </trkpt>
      <trkpt lat="47.82005" lon="-2.84965">
        <ele>121</ele>
        <time>2013-08-22T14:59:29Z</time>
      </trkpt>
      <trkpt lat="47.81997" lon="-2.84963">
        <ele>120</ele>
        <time>2013-08-22T14:59:37Z</time>
      </trkpt>
      <trkpt lat="47.81989" lon="-2.8496">
        <ele>119</ele>
        <time>2013-08-22T14:59:43Z</time>
      </trkpt>
      <trkpt lat="47.81981" lon="-2.84958">
        <ele>118</ele>
        <time>2013-08-22T14:59:50Z</time>
      </trkpt>
      <trkpt lat="47.81973" lon="-2.84955">
        <ele>117</ele>
        <time>2013-08-22T14:59:56Z</time>
      </trkpt>
      <trkpt lat="47.81965" lon="-2.84954">
        <ele>118</ele>
        <time>2013-08-22T15:00:02Z</time>
      </trkpt>
      <trkpt lat="47.81957" lon="-2.84954">
        <ele>117</ele>
        <time>2013-08-22T15:00:08Z</time>
      </trkpt>
      <trkpt lat="47.81949" lon="-2.84951">
        <ele>117</ele>
        <time>2013-08-22T15:00:15Z</time>
      </trkpt>
      <trkpt lat="47.81942" lon="-2.84948">
        <ele>118</ele>
        <time>2013-08-22T15:00:20Z</time>
      </trkpt>
      <trkpt lat="47.81934" lon="-2.84943">
        <ele>119</ele>
        <time>2013-08-22T15:00:27Z</time>
      </trkpt>
      <trkpt lat="47.81926" lon="-2.8494">
        <ele>119</ele>
        <time>2013-08-22T15:00:31Z</time>
      </trkpt>
      <trkpt lat="47.81919" lon="-2.84937">
        <ele>120</ele>
        <time>2013-08-22T15:00:36Z</time>
      </trkpt>
      <trkpt lat="47.8191" lon="-2.84934">
        <ele>120</ele>
        <time>2013-08-22T15:00:42Z</time>
      </trkpt>
      <trkpt lat="47.81902" lon="-2.84931">
        <ele>120</ele>
        <time>2013-08-22T15:00:49Z</time>
      </trkpt>
      <trkpt lat="47.81895" lon="-2.84927">
        <ele>120</ele>
        <time>2013-08-22T15:00:55Z</time>
      </trkpt>
      <trkpt lat="47.81887" lon="-2.84925">
        <ele>120</ele>
        <time>2013-08-22T15:01:01Z</time>
      </trkpt>
      <trkpt lat="47.8188" lon="-2.84918">
        <ele>119</ele>
        <time>2013-08-22T15:01:07Z</time>
      </trkpt>
      <trkpt lat="47.81873" lon="-2.8491">
        <ele>119</ele>
        <time>2013-08-22T15:01:14Z</time>
      </trkpt>
      <trkpt lat="47.81867" lon="-2.84902">
        <ele>118</ele>
        <time>2013-08-22T15:01:19Z</time>
      </trkpt>
      <trkpt lat="47.81861" lon="-2.84892">
        <ele>117</ele>
        <time>2013-08-22T15:01:28Z</time>
      </trkpt>
      <trkpt lat="47.81858" lon="-2.84881">
        <ele>116</ele>
        <time>2013-08-22T15:01:34Z</time>
      </trkpt>
      <trkpt lat="47.81852" lon="-2.84871">
        <ele>115</ele>
        <time>2013-08-22T15:01:41Z</time>
      </trkpt>
      <trkpt lat="47.81847" lon="-2.84862">
        <ele>115</ele>
        <time>2013-08-22T15:01:47Z</time>
      </trkpt>
      <trkpt lat="47.81842" lon="-2.84852">
        <ele>115</ele>
        <time>2013-08-22T15:01:54Z</time>
      </trkpt>
      <trkpt lat="47.81838" lon="-2.84841">
        <ele>116</ele>
        <time>2013-08-22T15:01:59Z</time>
      </trkpt>
      <trkpt lat="47.81833" lon="-2.84829">
        <ele>115</ele>
        <time>2013-08-22T15:02:07Z</time>
      </trkpt>
      <trkpt lat="47.8183" lon="-2.84817">
        <ele>115</ele>
        <time>2013-08-22T15:02:15Z</time>
      </trkpt>
      <trkpt lat="47.81827" lon="-2.84806">
        <ele>113</ele>
        <time>2013-08-22T15:02:22Z</time>
      </trkpt>
      <trkpt lat="47.81823" lon="-2.84796">
        <ele>111</ele>
        <time>2013-08-22T15:02:30Z</time>
      </trkpt>
      <trkpt lat="47.81818" lon="-2.84787">
        <ele>111</ele>
        <time>2013-08-22T15:02:35Z</time>
      </trkpt>
      <trkpt lat="47.81813" lon="-2.84777">
        <ele>111</ele>
        <time>2013-08-22T15:02:41Z</time>
      </trkpt>
      <trkpt lat="47.81806" lon="-2.8477">
        <ele>110</ele>
        <time>2013-08-22T15:02:48Z</time>
      </trkpt>
      <trkpt lat="47.81799" lon="-2.84761">
        <ele>110</ele>
        <time>2013-08-22T15:02:55Z</time>
      </trkpt>
      <trkpt lat="47.81793" lon="-2.84755">
        <ele>109</ele>
        <time>2013-08-22T15:03:01Z</time>
      </trkpt>
      <trkpt lat="47.81786" lon="-2.84749">
        <ele>108</ele>
        <time>2013-08-22T15:03:09Z</time>
      </trkpt>
      <trkpt lat="47.8178" lon="-2.84741">
        <ele>108</ele>
        <time>2013-08-22T15:03:15Z</time>
      </trkpt>
      <trkpt lat="47.81773" lon="-2.84736">
        <ele>108</ele>
        <time>2013-08-22T15:03:21Z</time>
      </trkpt>
      <trkpt lat="47.81766" lon="-2.84729">
        <ele>108</ele>
        <time>2013-08-22T15:03:27Z</time>
      </trkpt>
      <trkpt lat="47.8176" lon="-2.84721">
        <ele>108</ele>
        <time>2013-08-22T15:03:32Z</time>
      </trkpt>
      <trkpt lat="47.81753" lon="-2.84714">
        <ele>111</ele>
        <time>2013-08-22T15:03:39Z</time>
      </trkpt>
      <trkpt lat="47.81747" lon="-2.84708">
        <ele>112</ele>
        <time>2013-08-22T15:03:46Z</time>
      </trkpt>
      <trkpt lat="47.8174" lon="-2.84703">
        <ele>112</ele>
        <time>2013-08-22T15:03:51Z</time>
      </trkpt>
      <trkpt lat="47.81732" lon="-2.84697">
        <ele>112</ele>
        <time>2013-08-22T15:03:57Z</time>
      </trkpt>
      <trkpt lat="47.81726" lon="-2.84691">
        <ele>112</ele>
        <time>2013-08-22T15:04:04Z</time>
      </trkpt>
      <trkpt lat="47.81719" lon="-2.84684">
        <ele>113</ele>
        <time>2013-08-22T15:04:09Z</time>
      </trkpt>
      <trkpt lat="47.81711" lon="-2.84678">
        <ele>113</ele>
        <time>2013-08-22T15:04:15Z</time>
      </trkpt>
      <trkpt lat="47.81704" lon="-2.84672">
        <ele>113</ele>
        <time>2013-08-22T15:04:22Z</time>
      </trkpt>
      <trkpt lat="47.81696" lon="-2.84667">
        <ele>114</ele>
        <time>2013-08-22T15:04:28Z</time>
      </trkpt>
      <trkpt lat="47.81688" lon="-2.84662">
        <ele>114</ele>
        <time>2013-08-22T15:04:34Z</time>
      </trkpt>
      <trkpt lat="47.81681" lon="-2.84657">
        <ele>113</ele>
        <time>2013-08-22T15:04:40Z</time>
      </trkpt>
      <trkpt lat="47.81674" lon="-2.84651">
        <ele>113</ele>
        <time>2013-08-22T15:04:46Z</time>
      </trkpt>
      <trkpt lat="47.81666" lon="-2.84645">
        <ele>113</ele>
        <time>2013-08-22T15:04:51Z</time>
      </trkpt>
      <trkpt lat="47.81659" lon="-2.8464">
        <ele>113</ele>
        <time>2013-08-22T15:04:58Z</time>
      </trkpt>
      <trkpt lat="47.81652" lon="-2.84634">
        <ele>113</ele>
        <time>2013-08-22T15:05:03Z</time>
      </trkpt>
      <trkpt lat="47.81645" lon="-2.8463">
        <ele>113</ele>
        <time>2013-08-22T15:05:10Z</time>
      </trkpt>
      <trkpt lat="47.81641" lon="-2.84618">
        <ele>113</ele>
        <time>2013-08-22T15:05:18Z</time>
      </trkpt>
      <trkpt lat="47.81644" lon="-2.84607">
        <ele>112</ele>
        <time>2013-08-22T15:05:24Z</time>
      </trkpt>
      <trkpt lat="47.81647" lon="-2.84595">
        <ele>113</ele>
        <time>2013-08-22T15:05:30Z</time>
      </trkpt>
      <trkpt lat="47.81649" lon="-2.84582">
        <ele>113</ele>
        <time>2013-08-22T15:05:36Z</time>
      </trkpt>
      <trkpt lat="47.81652" lon="-2.84571">
        <ele>112</ele>
        <time>2013-08-22T15:05:41Z</time>
      </trkpt>
      <trkpt lat="47.81655" lon="-2.84559">
        <ele>113</ele>
        <time>2013-08-22T15:05:48Z</time>
      </trkpt>
      <trkpt lat="47.81658" lon="-2.84548">
        <ele>113</ele>
        <time>2013-08-22T15:05:53Z</time>
      </trkpt>
      <trkpt lat="47.81661" lon="-2.84536">
        <ele>114</ele>
        <time>2013-08-22T15:06:00Z</time>
      </trkpt>
      <trkpt lat="47.81664" lon="-2.84525">
        <ele>115</ele>
        <time>2013-08-22T15:06:05Z</time>
      </trkpt>
      <trkpt lat="47.81668" lon="-2.84513">
        <ele>115</ele>
        <time>2013-08-22T15:06:11Z</time>
      </trkpt>
      <trkpt lat="47.81672" lon="-2.84502">
        <ele>116</ele>
        <time>2013-08-22T15:06:18Z</time>
      </trkpt>
      <trkpt lat="47.81677" lon="-2.84491">
        <ele>116</ele>
        <time>2013-08-22T15:06:25Z</time>
      </trkpt>
      <trkpt lat="47.8168" lon="-2.84484">
        <ele>118</ele>
        <time>2013-08-22T15:06:37Z</time>
      </trkpt>
      <trkpt lat="47.81673" lon="-2.84481">
        <ele>114</ele>
        <time>2013-08-22T15:07:18Z</time>
      </trkpt>
      <trkpt lat="47.81678" lon="-2.84473">
        <ele>115</ele>
        <time>2013-08-22T15:07:27Z</time>
      </trkpt>
      <trkpt lat="47.8169" lon="-2.84476">
        <ele>111</ele>
        <time>2013-08-22T15:07:31Z</time>
      </trkpt>
      <trkpt lat="47.81701" lon="-2.84474">
        <ele>109</ele>
        <time>2013-08-22T15:07:36Z</time>
      </trkpt>
      <trkpt lat="47.81723" lon="-2.8447">
        <ele>103</ele>
        <time>2013-08-22T15:07:41Z</time>
      </trkpt>
      <trkpt lat="47.81722" lon="-2.84469">
        <ele>99</ele>
        <time>2013-08-22T15:09:47Z</time>
      </trkpt>
      <trkpt lat="47.81737" lon="-2.84454">
        <ele>100</ele>
        <time>2013-08-22T15:09:52Z</time>
      </trkpt>
      <trkpt lat="47.81733" lon="-2.84462">
        <ele>104</ele>
        <time>2013-08-22T15:10:24Z</time>
      </trkpt>
      <trkpt lat="47.81723" lon="-2.84468">
        <ele>101</ele>
        <time>2013-08-22T15:10:29Z</time>
      </trkpt>
      <trkpt lat="47.81716" lon="-2.84477">
        <ele>98</ele>
        <time>2013-08-22T15:10:34Z</time>
      </trkpt>
      <trkpt lat="47.81711" lon="-2.84487">
        <ele>96</ele>
        <time>2013-08-22T15:10:40Z</time>
      </trkpt>
      <trkpt lat="47.81706" lon="-2.84498">
        <ele>94</ele>
        <time>2013-08-22T15:10:46Z</time>
      </trkpt>
      <trkpt lat="47.81702" lon="-2.84509">
        <ele>93</ele>
        <time>2013-08-22T15:10:53Z</time>
      </trkpt>
      <trkpt lat="47.81696" lon="-2.84521">
        <ele>92</ele>
        <time>2013-08-22T15:10:57Z</time>
      </trkpt>
      <trkpt lat="47.8169" lon="-2.84534">
        <ele>92</ele>
        <time>2013-08-22T15:11:02Z</time>
      </trkpt>
      <trkpt lat="47.81686" lon="-2.84542">
        <ele>92</ele>
        <time>2013-08-22T15:11:06Z</time>
      </trkpt>
      <trkpt lat="47.81682" lon="-2.84553">
        <ele>93</ele>
        <time>2013-08-22T15:11:11Z</time>
      </trkpt>
      <trkpt lat="47.81678" lon="-2.84564">
        <ele>93</ele>
        <time>2013-08-22T15:11:17Z</time>
      </trkpt>
      <trkpt lat="47.81674" lon="-2.84575">
        <ele>93</ele>
        <time>2013-08-22T15:11:23Z</time>
      </trkpt>
      <trkpt lat="47.8167" lon="-2.84586">
        <ele>94</ele>
        <time>2013-08-22T15:11:29Z</time>
      </trkpt>
      <trkpt lat="47.81661" lon="-2.84594">
        <ele>95</ele>
        <time>2013-08-22T15:11:34Z</time>
      </trkpt>
      <trkpt lat="47.81649" lon="-2.846">
        <ele>97</ele>
        <time>2013-08-22T15:11:38Z</time>
      </trkpt>
      <trkpt lat="47.81639" lon="-2.84602">
        <ele>98</ele>
        <time>2013-08-22T15:11:42Z</time>
      </trkpt>
      <trkpt lat="47.8163" lon="-2.84602">
        <ele>99</ele>
        <time>2013-08-22T15:11:46Z</time>
      </trkpt>
      <trkpt lat="47.81623" lon="-2.84603">
        <ele>101</ele>
        <time>2013-08-22T15:11:50Z</time>
      </trkpt>
      <trkpt lat="47.81615" lon="-2.846">
        <ele>101</ele>
        <time>2013-08-22T15:11:55Z</time>
      </trkpt>
      <trkpt lat="47.81606" lon="-2.84597">
        <ele>101</ele>
        <time>2013-08-22T15:12:01Z</time>
      </trkpt>
      <trkpt lat="47.81598" lon="-2.84595">
        <ele>102</ele>
        <time>2013-08-22T15:12:05Z</time>
      </trkpt>
      <trkpt lat="47.81589" lon="-2.84593">
        <ele>104</ele>
        <time>2013-08-22T15:12:10Z</time>
      </trkpt>
      <trkpt lat="47.8158" lon="-2.84592">
        <ele>105</ele>
        <time>2013-08-22T15:12:16Z</time>
      </trkpt>
      <trkpt lat="47.81572" lon="-2.8459">
        <ele>106</ele>
        <time>2013-08-22T15:12:22Z</time>
      </trkpt>
      <trkpt lat="47.81564" lon="-2.84588">
        <ele>108</ele>
        <time>2013-08-22T15:12:28Z</time>
      </trkpt>
      <trkpt lat="47.81556" lon="-2.84587">
        <ele>109</ele>
        <time>2013-08-22T15:12:34Z</time>
      </trkpt>
      <trkpt lat="47.81548" lon="-2.84585">
        <ele>110</ele>
        <time>2013-08-22T15:12:40Z</time>
      </trkpt>
      <trkpt lat="47.8154" lon="-2.84584">
        <ele>112</ele>
        <time>2013-08-22T15:12:46Z</time>
      </trkpt>
      <trkpt lat="47.81532" lon="-2.84583">
        <ele>113</ele>
        <time>2013-08-22T15:12:52Z</time>
      </trkpt>
      <trkpt lat="47.81525" lon="-2.84581">
        <ele>114</ele>
        <time>2013-08-22T15:12:58Z</time>
      </trkpt>
      <trkpt lat="47.81516" lon="-2.84579">
        <ele>115</ele>
        <time>2013-08-22T15:13:05Z</time>
      </trkpt>
      <trkpt lat="47.81509" lon="-2.84578">
        <ele>115</ele>
        <time>2013-08-22T15:13:10Z</time>
      </trkpt>
      <trkpt lat="47.81501" lon="-2.84577">
        <ele>116</ele>
        <time>2013-08-22T15:13:16Z</time>
      </trkpt>
      <trkpt lat="47.81493" lon="-2.84576">
        <ele>118</ele>
        <time>2013-08-22T15:13:22Z</time>
      </trkpt>
      <trkpt lat="47.81485" lon="-2.84574">
        <ele>118</ele>
        <time>2013-08-22T15:13:28Z</time>
      </trkpt>
      <trkpt lat="47.81476" lon="-2.84573">
        <ele>119</ele>
        <time>2013-08-22T15:13:34Z</time>
      </trkpt>
      <trkpt lat="47.81468" lon="-2.84573">
        <ele>121</ele>
        <time>2013-08-22T15:13:40Z</time>
      </trkpt>
      <trkpt lat="47.81459" lon="-2.84571">
        <ele>121</ele>
        <time>2013-08-22T15:13:46Z</time>
      </trkpt>
      <trkpt lat="47.81451" lon="-2.84569">
        <ele>123</ele>
        <time>2013-08-22T15:13:52Z</time>
      </trkpt>
      <trkpt lat="47.81444" lon="-2.84563">
        <ele>123</ele>
        <time>2013-08-22T15:13:58Z</time>
      </trkpt>
      <trkpt lat="47.81441" lon="-2.84551">
        <ele>124</ele>
        <time>2013-08-22T15:14:06Z</time>
      </trkpt>
      <trkpt lat="47.81438" lon="-2.84538">
        <ele>124</ele>
        <time>2013-08-22T15:14:13Z</time>
      </trkpt>
      <trkpt lat="47.81436" lon="-2.84527">
        <ele>123</ele>
        <time>2013-08-22T15:14:19Z</time>
      </trkpt>
      <trkpt lat="47.81438" lon="-2.84514">
        <ele>122</ele>
        <time>2013-08-22T15:14:28Z</time>
      </trkpt>
      <trkpt lat="47.8144" lon="-2.84502">
        <ele>120</ele>
        <time>2013-08-22T15:14:34Z</time>
      </trkpt>
      <trkpt lat="47.81438" lon="-2.8449">
        <ele>120</ele>
        <time>2013-08-22T15:14:40Z</time>
      </trkpt>
      <trkpt lat="47.81436" lon="-2.8448">
        <ele>119</ele>
        <time>2013-08-22T15:14:45Z</time>
      </trkpt>
      <trkpt lat="47.81435" lon="-2.84467">
        <ele>119</ele>
        <time>2013-08-22T15:14:50Z</time>
      </trkpt>
      <trkpt lat="47.81433" lon="-2.84454">
        <ele>118</ele>
        <time>2013-08-22T15:14:57Z</time>
      </trkpt>
      <trkpt lat="47.81433" lon="-2.84443">
        <ele>116</ele>
        <time>2013-08-22T15:15:02Z</time>
      </trkpt>
      <trkpt lat="47.81433" lon="-2.84431">
        <ele>116</ele>
        <time>2013-08-22T15:15:08Z</time>
      </trkpt>
      <trkpt lat="47.81435" lon="-2.84419">
        <ele>109</ele>
        <time>2013-08-22T15:15:18Z</time>
      </trkpt>
      <trkpt lat="47.81435" lon="-2.84406">
        <ele>105</ele>
        <time>2013-08-22T15:15:27Z</time>
      </trkpt>
      <trkpt lat="47.81434" lon="-2.84394">
        <ele>105</ele>
        <time>2013-08-22T15:15:31Z</time>
      </trkpt>
      <trkpt lat="47.81432" lon="-2.84382">
        <ele>105</ele>
        <time>2013-08-22T15:15:38Z</time>
      </trkpt>
      <trkpt lat="47.81432" lon="-2.8437">
        <ele>105</ele>
        <time>2013-08-22T15:15:43Z</time>
      </trkpt>
      <trkpt lat="47.81431" lon="-2.84357">
        <ele>106</ele>
        <time>2013-08-22T15:15:48Z</time>
      </trkpt>
      <trkpt lat="47.81429" lon="-2.84345">
        <ele>107</ele>
        <time>2013-08-22T15:15:52Z</time>
      </trkpt>
      <trkpt lat="47.81428" lon="-2.84333">
        <ele>109</ele>
        <time>2013-08-22T15:15:57Z</time>
      </trkpt>
      <trkpt lat="47.81428" lon="-2.8432">
        <ele>110</ele>
        <time>2013-08-22T15:16:02Z</time>
      </trkpt>
      <trkpt lat="47.81427" lon="-2.84309">
        <ele>110</ele>
        <time>2013-08-22T15:16:07Z</time>
      </trkpt>
      <trkpt lat="47.81426" lon="-2.84297">
        <ele>112</ele>
        <time>2013-08-22T15:16:12Z</time>
      </trkpt>
      <trkpt lat="47.81425" lon="-2.84286">
        <ele>113</ele>
        <time>2013-08-22T15:16:17Z</time>
      </trkpt>
      <trkpt lat="47.81425" lon="-2.84275">
        <ele>115</ele>
        <time>2013-08-22T15:16:22Z</time>
      </trkpt>
      <trkpt lat="47.81425" lon="-2.84263">
        <ele>115</ele>
        <time>2013-08-22T15:16:30Z</time>
      </trkpt>
      <trkpt lat="47.81426" lon="-2.84251">
        <ele>115</ele>
        <time>2013-08-22T15:16:36Z</time>
      </trkpt>
      <trkpt lat="47.81426" lon="-2.84239">
        <ele>116</ele>
        <time>2013-08-22T15:16:42Z</time>
      </trkpt>
      <trkpt lat="47.81425" lon="-2.84227">
        <ele>117</ele>
        <time>2013-08-22T15:16:47Z</time>
      </trkpt>
      <trkpt lat="47.81424" lon="-2.84215">
        <ele>117</ele>
        <time>2013-08-22T15:16:52Z</time>
      </trkpt>
      <trkpt lat="47.81423" lon="-2.84203">
        <ele>116</ele>
        <time>2013-08-22T15:16:57Z</time>
      </trkpt>
      <trkpt lat="47.81422" lon="-2.84192">
        <ele>117</ele>
        <time>2013-08-22T15:17:02Z</time>
      </trkpt>
      <trkpt lat="47.81421" lon="-2.8418">
        <ele>118</ele>
        <time>2013-08-22T15:17:07Z</time>
      </trkpt>
      <trkpt lat="47.81419" lon="-2.84168">
        <ele>118</ele>
        <time>2013-08-22T15:17:13Z</time>
      </trkpt>
      <trkpt lat="47.81417" lon="-2.84155">
        <ele>118</ele>
        <time>2013-08-22T15:17:19Z</time>
      </trkpt>
      <trkpt lat="47.81417" lon="-2.84142">
        <ele>119</ele>
        <time>2013-08-22T15:17:26Z</time>
      </trkpt>
      <trkpt lat="47.81417" lon="-2.8413">
        <ele>119</ele>
        <time>2013-08-22T15:17:30Z</time>
      </trkpt>
      <trkpt lat="47.81416" lon="-2.84118">
        <ele>120</ele>
        <time>2013-08-22T15:17:36Z</time>
      </trkpt>
      <trkpt lat="47.81414" lon="-2.84105">
        <ele>119</ele>
        <time>2013-08-22T15:17:42Z</time>
      </trkpt>
      <trkpt lat="47.81412" lon="-2.84094">
        <ele>119</ele>
        <time>2013-08-22T15:17:47Z</time>
      </trkpt>
      <trkpt lat="47.8141" lon="-2.84082">
        <ele>119</ele>
        <time>2013-08-22T15:17:53Z</time>
      </trkpt>
      <trkpt lat="47.8141" lon="-2.84069">
        <ele>120</ele>
        <time>2013-08-22T15:17:59Z</time>
      </trkpt>
      <trkpt lat="47.81409" lon="-2.84057">
        <ele>121</ele>
        <time>2013-08-22T15:18:04Z</time>
      </trkpt>
      <trkpt lat="47.81407" lon="-2.84044">
        <ele>122</ele>
        <time>2013-08-22T15:18:11Z</time>
      </trkpt>
      <trkpt lat="47.81408" lon="-2.84032">
        <ele>122</ele>
        <time>2013-08-22T15:18:18Z</time>
      </trkpt>
      <trkpt lat="47.81409" lon="-2.8402">
        <ele>123</ele>
        <time>2013-08-22T15:18:23Z</time>
      </trkpt>
      <trkpt lat="47.81408" lon="-2.84007">
        <ele>123</ele>
        <time>2013-08-22T15:18:27Z</time>
      </trkpt>
      <trkpt lat="47.81407" lon="-2.83994">
        <ele>123</ele>
        <time>2013-08-22T15:18:32Z</time>
      </trkpt>
      <trkpt lat="47.81406" lon="-2.83982">
        <ele>122</ele>
        <time>2013-08-22T15:18:37Z</time>
      </trkpt>
      <trkpt lat="47.81405" lon="-2.83969">
        <ele>121</ele>
        <time>2013-08-22T15:18:43Z</time>
      </trkpt>
      <trkpt lat="47.81404" lon="-2.83958">
        <ele>119</ele>
        <time>2013-08-22T15:18:48Z</time>
      </trkpt>
      <trkpt lat="47.81404" lon="-2.83945">
        <ele>119</ele>
        <time>2013-08-22T15:18:53Z</time>
      </trkpt>
      <trkpt lat="47.81404" lon="-2.83934">
        <ele>118</ele>
        <time>2013-08-22T15:18:58Z</time>
      </trkpt>
      <trkpt lat="47.81402" lon="-2.83922">
        <ele>120</ele>
        <time>2013-08-22T15:19:03Z</time>
      </trkpt>
      <trkpt lat="47.81401" lon="-2.83911">
        <ele>120</ele>
        <time>2013-08-22T15:19:08Z</time>
      </trkpt>
      <trkpt lat="47.814" lon="-2.83898">
        <ele>121</ele>
        <time>2013-08-22T15:19:14Z</time>
      </trkpt>
      <trkpt lat="47.81398" lon="-2.83885">
        <ele>122</ele>
        <time>2013-08-22T15:19:21Z</time>
      </trkpt>
      <trkpt lat="47.81397" lon="-2.83874">
        <ele>122</ele>
        <time>2013-08-22T15:19:25Z</time>
      </trkpt>
      <trkpt lat="47.81396" lon="-2.83862">
        <ele>123</ele>
        <time>2013-08-22T15:19:30Z</time>
      </trkpt>
      <trkpt lat="47.81395" lon="-2.8385">
        <ele>124</ele>
        <time>2013-08-22T15:19:35Z</time>
      </trkpt>
      <trkpt lat="47.81394" lon="-2.83837">
        <ele>126</ele>
        <time>2013-08-22T15:19:42Z</time>
      </trkpt>
      <trkpt lat="47.81393" lon="-2.83826">
        <ele>126</ele>
        <time>2013-08-22T15:19:46Z</time>
      </trkpt>
      <trkpt lat="47.81392" lon="-2.83812">
        <ele>125</ele>
        <time>2013-08-22T15:19:52Z</time>
      </trkpt>
      <trkpt lat="47.81392" lon="-2.838">
        <ele>126</ele>
        <time>2013-08-22T15:19:57Z</time>
      </trkpt>
      <trkpt lat="47.81392" lon="-2.83788">
        <ele>127</ele>
        <time>2013-08-22T15:20:02Z</time>
      </trkpt>
      <trkpt lat="47.81391" lon="-2.83776">
        <ele>128</ele>
        <time>2013-08-22T15:20:07Z</time>
      </trkpt>
      <trkpt lat="47.8139" lon="-2.83764">
        <ele>125</ele>
        <time>2013-08-22T15:20:15Z</time>
      </trkpt>
      <trkpt lat="47.81389" lon="-2.83753">
        <ele>125</ele>
        <time>2013-08-22T15:20:20Z</time>
      </trkpt>
      <trkpt lat="47.81388" lon="-2.83741">
        <ele>126</ele>
        <time>2013-08-22T15:20:24Z</time>
      </trkpt>
      <trkpt lat="47.81388" lon="-2.83728">
        <ele>126</ele>
        <time>2013-08-22T15:20:30Z</time>
      </trkpt>
      <trkpt lat="47.81386" lon="-2.83716">
        <ele>127</ele>
        <time>2013-08-22T15:20:36Z</time>
      </trkpt>
      <trkpt lat="47.81385" lon="-2.83704">
        <ele>127</ele>
        <time>2013-08-22T15:20:40Z</time>
      </trkpt>
      <trkpt lat="47.81384" lon="-2.83694">
        <ele>127</ele>
        <time>2013-08-22T15:20:46Z</time>
      </trkpt>
      <trkpt lat="47.81382" lon="-2.83681">
        <ele>127</ele>
        <time>2013-08-22T15:20:52Z</time>
      </trkpt>
      <trkpt lat="47.81382" lon="-2.8367">
        <ele>124</ele>
        <time>2013-08-22T15:20:58Z</time>
      </trkpt>
      <trkpt lat="47.81382" lon="-2.83657">
        <ele>122</ele>
        <time>2013-08-22T15:21:04Z</time>
      </trkpt>
      <trkpt lat="47.81381" lon="-2.83646">
        <ele>120</ele>
        <time>2013-08-22T15:21:10Z</time>
      </trkpt>
      <trkpt lat="47.81381" lon="-2.83634">
        <ele>114</ele>
        <time>2013-08-22T15:21:16Z</time>
      </trkpt>
      <trkpt lat="47.81381" lon="-2.83622">
        <ele>110</ele>
        <time>2013-08-22T15:21:24Z</time>
      </trkpt>
      <trkpt lat="47.8138" lon="-2.83609">
        <ele>107</ele>
        <time>2013-08-22T15:21:28Z</time>
      </trkpt>
      <trkpt lat="47.81378" lon="-2.83599">
        <ele>105</ele>
        <time>2013-08-22T15:21:34Z</time>
      </trkpt>
      <trkpt lat="47.81377" lon="-2.83586">
        <ele>104</ele>
        <time>2013-08-22T15:21:40Z</time>
      </trkpt>
      <trkpt lat="47.81376" lon="-2.83574">
        <ele>104</ele>
        <time>2013-08-22T15:21:45Z</time>
      </trkpt>
      <trkpt lat="47.81375" lon="-2.83561">
        <ele>101</ele>
        <time>2013-08-22T15:21:50Z</time>
      </trkpt>
      <trkpt lat="47.81375" lon="-2.83549">
        <ele>99</ele>
        <time>2013-08-22T15:21:57Z</time>
      </trkpt>
      <trkpt lat="47.81375" lon="-2.83537">
        <ele>99</ele>
        <time>2013-08-22T15:22:03Z</time>
      </trkpt>
      <trkpt lat="47.81374" lon="-2.83524">
        <ele>98</ele>
        <time>2013-08-22T15:22:10Z</time>
      </trkpt>
      <trkpt lat="47.81373" lon="-2.83512">
        <ele>98</ele>
        <time>2013-08-22T15:22:16Z</time>
      </trkpt>
      <trkpt lat="47.81371" lon="-2.835">
        <ele>99</ele>
        <time>2013-08-22T15:22:20Z</time>
      </trkpt>
      <trkpt lat="47.81369" lon="-2.83486">
        <ele>101</ele>
        <time>2013-08-22T15:22:25Z</time>
      </trkpt>
      <trkpt lat="47.81369" lon="-2.83475">
        <ele>102</ele>
        <time>2013-08-22T15:22:29Z</time>
      </trkpt>
      <trkpt lat="47.81367" lon="-2.83463">
        <ele>103</ele>
        <time>2013-08-22T15:22:34Z</time>
      </trkpt>
      <trkpt lat="47.81366" lon="-2.83451">
        <ele>105</ele>
        <time>2013-08-22T15:22:39Z</time>
      </trkpt>
      <trkpt lat="47.81366" lon="-2.83439">
        <ele>106</ele>
        <time>2013-08-22T15:22:44Z</time>
      </trkpt>
      <trkpt lat="47.81367" lon="-2.83426">
        <ele>106</ele>
        <time>2013-08-22T15:22:52Z</time>
      </trkpt>
      <trkpt lat="47.81366" lon="-2.83414">
        <ele>106</ele>
        <time>2013-08-22T15:22:58Z</time>
      </trkpt>
      <trkpt lat="47.81366" lon="-2.83402">
        <ele>105</ele>
        <time>2013-08-22T15:23:04Z</time>
      </trkpt>
      <trkpt lat="47.81364" lon="-2.83389">
        <ele>106</ele>
        <time>2013-08-22T15:23:10Z</time>
      </trkpt>
      <trkpt lat="47.81363" lon="-2.83375">
        <ele>106</ele>
        <time>2013-08-22T15:23:14Z</time>
      </trkpt>
      <trkpt lat="47.81363" lon="-2.83363">
        <ele>107</ele>
        <time>2013-08-22T15:23:19Z</time>
      </trkpt>
      <trkpt lat="47.81362" lon="-2.83351">
        <ele>108</ele>
        <time>2013-08-22T15:23:25Z</time>
      </trkpt>
      <trkpt lat="47.81362" lon="-2.83338">
        <ele>108</ele>
        <time>2013-08-22T15:23:32Z</time>
      </trkpt>
      <trkpt lat="47.81361" lon="-2.83325">
        <ele>108</ele>
        <time>2013-08-22T15:23:37Z</time>
      </trkpt>
      <trkpt lat="47.81358" lon="-2.83312">
        <ele>107</ele>
        <time>2013-08-22T15:23:43Z</time>
      </trkpt>
      <trkpt lat="47.81358" lon="-2.83301">
        <ele>108</ele>
        <time>2013-08-22T15:23:48Z</time>
      </trkpt>
      <trkpt lat="47.81356" lon="-2.83289">
        <ele>108</ele>
        <time>2013-08-22T15:23:53Z</time>
      </trkpt>
      <trkpt lat="47.81358" lon="-2.83277">
        <ele>108</ele>
        <time>2013-08-22T15:24:00Z</time>
      </trkpt>
      <trkpt lat="47.81358" lon="-2.83265">
        <ele>108</ele>
        <time>2013-08-22T15:24:04Z</time>
      </trkpt>
      <trkpt lat="47.81358" lon="-2.83253">
        <ele>108</ele>
        <time>2013-08-22T15:24:10Z</time>
      </trkpt>
      <trkpt lat="47.81355" lon="-2.83241">
        <ele>112</ele>
        <time>2013-08-22T15:24:15Z</time>
      </trkpt>
      <trkpt lat="47.8135" lon="-2.83232">
        <ele>113</ele>
        <time>2013-08-22T15:24:22Z</time>
      </trkpt>
      <trkpt lat="47.81346" lon="-2.83223">
        <ele>113</ele>
        <time>2013-08-22T15:25:01Z</time>
      </trkpt>
      <trkpt lat="47.81347" lon="-2.8321">
        <ele>120</ele>
        <time>2013-08-22T15:25:13Z</time>
      </trkpt>
      <trkpt lat="47.81345" lon="-2.83199">
        <ele>124</ele>
        <time>2013-08-22T15:25:25Z</time>
      </trkpt>
      <trkpt lat="47.81343" lon="-2.83186">
        <ele>125</ele>
        <time>2013-08-22T15:25:32Z</time>
      </trkpt>
      <trkpt lat="47.81341" lon="-2.83174">
        <ele>126</ele>
        <time>2013-08-22T15:25:40Z</time>
      </trkpt>
      <trkpt lat="47.81341" lon="-2.83161">
        <ele>126</ele>
        <time>2013-08-22T15:25:47Z</time>
      </trkpt>
      <trkpt lat="47.81339" lon="-2.83149">
        <ele>126</ele>
        <time>2013-08-22T15:25:52Z</time>
      </trkpt>
      <trkpt lat="47.81336" lon="-2.83138">
        <ele>125</ele>
        <time>2013-08-22T15:25:59Z</time>
      </trkpt>
      <trkpt lat="47.81332" lon="-2.83126">
        <ele>124</ele>
        <time>2013-08-22T15:26:07Z</time>
      </trkpt>
      <trkpt lat="47.81328" lon="-2.83115">
        <ele>123</ele>
        <time>2013-08-22T15:26:12Z</time>
      </trkpt>
      <trkpt lat="47.81325" lon="-2.83104">
        <ele>123</ele>
        <time>2013-08-22T15:26:16Z</time>
      </trkpt>
      <trkpt lat="47.81323" lon="-2.8309">
        <ele>123</ele>
        <time>2013-08-22T15:26:21Z</time>
      </trkpt>
      <trkpt lat="47.8132" lon="-2.8308">
        <ele>124</ele>
        <time>2013-08-22T15:26:25Z</time>
      </trkpt>
      <trkpt lat="47.81317" lon="-2.83069">
        <ele>124</ele>
        <time>2013-08-22T15:26:30Z</time>
      </trkpt>
      <trkpt lat="47.81319" lon="-2.83057">
        <ele>116</ele>
        <time>2013-08-22T15:26:42Z</time>
      </trkpt>
      <trkpt lat="47.81314" lon="-2.83046">
        <ele>115</ele>
        <time>2013-08-22T15:26:48Z</time>
      </trkpt>
      <trkpt lat="47.81311" lon="-2.83034">
        <ele>116</ele>
        <time>2013-08-22T15:26:52Z</time>
      </trkpt>
      <trkpt lat="47.81308" lon="-2.83022">
        <ele>116</ele>
        <time>2013-08-22T15:26:58Z</time>
      </trkpt>
      <trkpt lat="47.81305" lon="-2.8301">
        <ele>116</ele>
        <time>2013-08-22T15:27:03Z</time>
      </trkpt>
      <trkpt lat="47.81305" lon="-2.82997">
        <ele>118</ele>
        <time>2013-08-22T15:27:10Z</time>
      </trkpt>
      <trkpt lat="47.81305" lon="-2.82985">
        <ele>118</ele>
        <time>2013-08-22T15:27:16Z</time>
      </trkpt>
      <trkpt lat="47.81302" lon="-2.82973">
        <ele>118</ele>
        <time>2013-08-22T15:27:21Z</time>
      </trkpt>
      <trkpt lat="47.81299" lon="-2.82961">
        <ele>118</ele>
        <time>2013-08-22T15:27:27Z</time>
      </trkpt>
      <trkpt lat="47.81296" lon="-2.82951">
        <ele>119</ele>
        <time>2013-08-22T15:27:32Z</time>
      </trkpt>
      <trkpt lat="47.81293" lon="-2.8294">
        <ele>120</ele>
        <time>2013-08-22T15:27:38Z</time>
      </trkpt>
      <trkpt lat="47.81289" lon="-2.82928">
        <ele>120</ele>
        <time>2013-08-22T15:27:45Z</time>
      </trkpt>
      <trkpt lat="47.81287" lon="-2.82917">
        <ele>120</ele>
        <time>2013-08-22T15:27:49Z</time>
      </trkpt>
      <trkpt lat="47.81283" lon="-2.82907">
        <ele>121</ele>
        <time>2013-08-22T15:27:55Z</time>
      </trkpt>
      <trkpt lat="47.8128" lon="-2.82894">
        <ele>122</ele>
        <time>2013-08-22T15:28:01Z</time>
      </trkpt>
      <trkpt lat="47.81277" lon="-2.82881">
        <ele>123</ele>
        <time>2013-08-22T15:28:06Z</time>
      </trkpt>
      <trkpt lat="47.81275" lon="-2.82869">
        <ele>123</ele>
        <time>2013-08-22T15:28:13Z</time>
      </trkpt>
      <trkpt lat="47.81274" lon="-2.82857">
        <ele>122</ele>
        <time>2013-08-22T15:28:18Z</time>
      </trkpt>
      <trkpt lat="47.81273" lon="-2.82845">
        <ele>122</ele>
        <time>2013-08-22T15:28:24Z</time>
      </trkpt>
      <trkpt lat="47.81278" lon="-2.82834">
        <ele>121</ele>
        <time>2013-08-22T15:29:14Z</time>
      </trkpt>
      <trkpt lat="47.81286" lon="-2.82833">
        <ele>119</ele>
        <time>2013-08-22T15:29:20Z</time>
      </trkpt>
      <trkpt lat="47.81294" lon="-2.82833">
        <ele>119</ele>
        <time>2013-08-22T15:29:25Z</time>
      </trkpt>
      <trkpt lat="47.81303" lon="-2.82836">
        <ele>119</ele>
        <time>2013-08-22T15:29:32Z</time>
      </trkpt>
      <trkpt lat="47.81311" lon="-2.82836">
        <ele>120</ele>
        <time>2013-08-22T15:29:40Z</time>
      </trkpt>
      <trkpt lat="47.81319" lon="-2.82841">
        <ele>118</ele>
        <time>2013-08-22T15:29:45Z</time>
      </trkpt>
      <trkpt lat="47.81328" lon="-2.82842">
        <ele>117</ele>
        <time>2013-08-22T15:29:50Z</time>
      </trkpt>
      <trkpt lat="47.81335" lon="-2.82844">
        <ele>116</ele>
        <time>2013-08-22T15:29:55Z</time>
      </trkpt>
      <trkpt lat="47.81347" lon="-2.82849">
        <ele>109</ele>
        <time>2013-08-22T15:29:59Z</time>
      </trkpt>
      <trkpt lat="47.81357" lon="-2.82848">
        <ele>110</ele>
        <time>2013-08-22T15:30:04Z</time>
      </trkpt>
      <trkpt lat="47.81364" lon="-2.82847">
        <ele>111</ele>
        <time>2013-08-22T15:30:09Z</time>
      </trkpt>
      <trkpt lat="47.81367" lon="-2.82835">
        <ele>109</ele>
        <time>2013-08-22T15:30:22Z</time>
      </trkpt>
      <trkpt lat="47.81369" lon="-2.82824">
        <ele>110</ele>
        <time>2013-08-22T15:30:30Z</time>
      </trkpt>
      <trkpt lat="47.81371" lon="-2.82812">
        <ele>111</ele>
        <time>2013-08-22T15:30:35Z</time>
      </trkpt>
      <trkpt lat="47.81369" lon="-2.82802">
        <ele>112</ele>
        <time>2013-08-22T15:30:41Z</time>
      </trkpt>
      <trkpt lat="47.81367" lon="-2.82789">
        <ele>113</ele>
        <time>2013-08-22T15:30:48Z</time>
      </trkpt>
      <trkpt lat="47.81367" lon="-2.82776">
        <ele>113</ele>
        <time>2013-08-22T15:30:54Z</time>
      </trkpt>
      <trkpt lat="47.81368" lon="-2.82762">
        <ele>113</ele>
        <time>2013-08-22T15:30:58Z</time>
      </trkpt>
      <trkpt lat="47.8137" lon="-2.82751">
        <ele>113</ele>
        <time>2013-08-22T15:31:04Z</time>
      </trkpt>
      <trkpt lat="47.8137" lon="-2.82737">
        <ele>114</ele>
        <time>2013-08-22T15:31:10Z</time>
      </trkpt>
      <trkpt lat="47.8137" lon="-2.82724">
        <ele>115</ele>
        <time>2013-08-22T15:31:16Z</time>
      </trkpt>
      <trkpt lat="47.81372" lon="-2.82712">
        <ele>115</ele>
        <time>2013-08-22T15:31:21Z</time>
      </trkpt>
      <trkpt lat="47.81371" lon="-2.827">
        <ele>115</ele>
        <time>2013-08-22T15:31:28Z</time>
      </trkpt>
      <trkpt lat="47.81372" lon="-2.82688">
        <ele>114</ele>
        <time>2013-08-22T15:31:34Z</time>
      </trkpt>
      <trkpt lat="47.81367" lon="-2.82677">
        <ele>114</ele>
        <time>2013-08-22T15:31:40Z</time>
      </trkpt>
      <trkpt lat="47.81363" lon="-2.82665">
        <ele>115</ele>
        <time>2013-08-22T15:31:46Z</time>
      </trkpt>
      <trkpt lat="47.81362" lon="-2.82654">
        <ele>116</ele>
        <time>2013-08-22T15:31:52Z</time>
      </trkpt>
      <trkpt lat="47.8136" lon="-2.82642">
        <ele>116</ele>
        <time>2013-08-22T15:31:58Z</time>
      </trkpt>
      <trkpt lat="47.81361" lon="-2.82629">
        <ele>116</ele>
        <time>2013-08-22T15:32:02Z</time>
      </trkpt>
      <trkpt lat="47.81362" lon="-2.82617">
        <ele>117</ele>
        <time>2013-08-22T15:32:06Z</time>
      </trkpt>
      <trkpt lat="47.81363" lon="-2.82605">
        <ele>117</ele>
        <time>2013-08-22T15:32:13Z</time>
      </trkpt>
      <trkpt lat="47.81364" lon="-2.82594">
        <ele>117</ele>
        <time>2013-08-22T15:32:17Z</time>
      </trkpt>
      <trkpt lat="47.81364" lon="-2.82582">
        <ele>117</ele>
        <time>2013-08-22T15:32:22Z</time>
      </trkpt>
      <trkpt lat="47.81363" lon="-2.8257">
        <ele>119</ele>
        <time>2013-08-22T15:32:28Z</time>
      </trkpt>
      <trkpt lat="47.81366" lon="-2.82558">
        <ele>120</ele>
        <time>2013-08-22T15:32:33Z</time>
      </trkpt>
      <trkpt lat="47.81365" lon="-2.82545">
        <ele>120</ele>
        <time>2013-08-22T15:32:39Z</time>
      </trkpt>
      <trkpt lat="47.81363" lon="-2.82534">
        <ele>120</ele>
        <time>2013-08-22T15:32:44Z</time>
      </trkpt>
      <trkpt lat="47.81364" lon="-2.82521">
        <ele>120</ele>
        <time>2013-08-22T15:32:50Z</time>
      </trkpt>
      <trkpt lat="47.81365" lon="-2.82509">
        <ele>118</ele>
        <time>2013-08-22T15:32:58Z</time>
      </trkpt>
      <trkpt lat="47.81366" lon="-2.82496">
        <ele>117</ele>
        <time>2013-08-22T15:33:04Z</time>
      </trkpt>
      <trkpt lat="47.81369" lon="-2.82484">
        <ele>118</ele>
        <time>2013-08-22T15:33:11Z</time>
      </trkpt>
      <trkpt lat="47.81371" lon="-2.82472">
        <ele>118</ele>
        <time>2013-08-22T15:33:18Z</time>
      </trkpt>
      <trkpt lat="47.81371" lon="-2.82459">
        <ele>116</ele>
        <time>2013-08-22T15:33:27Z</time>
      </trkpt>
      <trkpt lat="47.81375" lon="-2.82447">
        <ele>117</ele>
        <time>2013-08-22T15:33:34Z</time>
      </trkpt>
      <trkpt lat="47.81377" lon="-2.82435">
        <ele>118</ele>
        <time>2013-08-22T15:33:40Z</time>
      </trkpt>
      <trkpt lat="47.8138" lon="-2.82422">
        <ele>118</ele>
        <time>2013-08-22T15:33:47Z</time>
      </trkpt>
      <trkpt lat="47.81382" lon="-2.82411">
        <ele>119</ele>
        <time>2013-08-22T15:33:52Z</time>
      </trkpt>
      <trkpt lat="47.81384" lon="-2.82399">
        <ele>118</ele>
        <time>2013-08-22T15:33:59Z</time>
      </trkpt>
      <trkpt lat="47.81385" lon="-2.82387">
        <ele>118</ele>
        <time>2013-08-22T15:34:05Z</time>
      </trkpt>
      <trkpt lat="47.81388" lon="-2.82377">
        <ele>118</ele>
        <time>2013-08-22T15:34:11Z</time>
      </trkpt>
      <trkpt lat="47.81389" lon="-2.82364">
        <ele>115</ele>
        <time>2013-08-22T15:34:18Z</time>
      </trkpt>
      <trkpt lat="47.81388" lon="-2.82351">
        <ele>115</ele>
        <time>2013-08-22T15:34:25Z</time>
      </trkpt>
      <trkpt lat="47.8139" lon="-2.82338">
        <ele>115</ele>
        <time>2013-08-22T15:34:32Z</time>
      </trkpt>
      <trkpt lat="47.81392" lon="-2.82326">
        <ele>114</ele>
        <time>2013-08-22T15:34:39Z</time>
      </trkpt>
      <trkpt lat="47.81392" lon="-2.82314">
        <ele>115</ele>
        <time>2013-08-22T15:34:46Z</time>
      </trkpt>
      <trkpt lat="47.81394" lon="-2.82303">
        <ele>115</ele>
        <time>2013-08-22T15:34:54Z</time>
      </trkpt>
      <trkpt lat="47.81398" lon="-2.82291">
        <ele>116</ele>
        <time>2013-08-22T15:35:01Z</time>
      </trkpt>
      <trkpt lat="47.81398" lon="-2.82278">
        <ele>114</ele>
        <time>2013-08-22T15:35:07Z</time>
      </trkpt>
      <trkpt lat="47.81403" lon="-2.82267">
        <ele>113</ele>
        <time>2013-08-22T15:35:11Z</time>
      </trkpt>
      <trkpt lat="47.81408" lon="-2.82257">
        <ele>113</ele>
        <time>2013-08-22T15:35:16Z</time>
      </trkpt>
      <trkpt lat="47.81411" lon="-2.82247">
        <ele>113</ele>
        <time>2013-08-22T15:35:20Z</time>
      </trkpt>
      <trkpt lat="47.81419" lon="-2.82244">
        <ele>104</ele>
        <time>2013-08-22T15:35:35Z</time>
      </trkpt>
      <trkpt lat="47.81422" lon="-2.82231">
        <ele>104</ele>
        <time>2013-08-22T15:35:42Z</time>
      </trkpt>
      <trkpt lat="47.81423" lon="-2.82219">
        <ele>104</ele>
        <time>2013-08-22T15:35:48Z</time>
      </trkpt>
      <trkpt lat="47.81425" lon="-2.82207">
        <ele>104</ele>
        <time>2013-08-22T15:35:55Z</time>
      </trkpt>
      <trkpt lat="47.81428" lon="-2.82195">
        <ele>103</ele>
        <time>2013-08-22T15:36:02Z</time>
      </trkpt>
      <trkpt lat="47.81434" lon="-2.82186">
        <ele>102</ele>
        <time>2013-08-22T15:36:06Z</time>
      </trkpt>
      <trkpt lat="47.81437" lon="-2.82176">
        <ele>103</ele>
        <time>2013-08-22T15:36:12Z</time>
      </trkpt>
      <trkpt lat="47.81441" lon="-2.82165">
        <ele>103</ele>
        <time>2013-08-22T15:36:20Z</time>
      </trkpt>
      <trkpt lat="47.81445" lon="-2.82154">
        <ele>102</ele>
        <time>2013-08-22T15:36:24Z</time>
      </trkpt>
      <trkpt lat="47.81448" lon="-2.82142">
        <ele>102</ele>
        <time>2013-08-22T15:36:30Z</time>
      </trkpt>
      <trkpt lat="47.81451" lon="-2.8213">
        <ele>103</ele>
        <time>2013-08-22T15:36:36Z</time>
      </trkpt>
      <trkpt lat="47.8145" lon="-2.82118">
        <ele>102</ele>
        <time>2013-08-22T15:36:46Z</time>
      </trkpt>
      <trkpt lat="47.81454" lon="-2.82106">
        <ele>102</ele>
        <time>2013-08-22T15:36:51Z</time>
      </trkpt>
      <trkpt lat="47.81459" lon="-2.82097">
        <ele>102</ele>
        <time>2013-08-22T15:36:55Z</time>
      </trkpt>
      <trkpt lat="47.81464" lon="-2.82086">
        <ele>102</ele>
        <time>2013-08-22T15:37:01Z</time>
      </trkpt>
      <trkpt lat="47.81467" lon="-2.82074">
        <ele>102</ele>
        <time>2013-08-22T15:37:08Z</time>
      </trkpt>
      <trkpt lat="47.81471" lon="-2.82063">
        <ele>101</ele>
        <time>2013-08-22T15:37:14Z</time>
      </trkpt>
      <trkpt lat="47.81475" lon="-2.82052">
        <ele>101</ele>
        <time>2013-08-22T15:37:20Z</time>
      </trkpt>
      <trkpt lat="47.81478" lon="-2.8204">
        <ele>101</ele>
        <time>2013-08-22T15:37:25Z</time>
      </trkpt>
      <trkpt lat="47.81482" lon="-2.82029">
        <ele>101</ele>
        <time>2013-08-22T15:37:30Z</time>
      </trkpt>
      <trkpt lat="47.81486" lon="-2.8202">
        <ele>100</ele>
        <time>2013-08-22T15:37:35Z</time>
      </trkpt>
      <trkpt lat="47.81491" lon="-2.8201">
        <ele>100</ele>
        <time>2013-08-22T15:37:40Z</time>
      </trkpt>
      <trkpt lat="47.81495" lon="-2.81999">
        <ele>100</ele>
        <time>2013-08-22T15:37:45Z</time>
      </trkpt>
      <trkpt lat="47.815" lon="-2.8199">
        <ele>100</ele>
        <time>2013-08-22T15:37:50Z</time>
      </trkpt>
      <trkpt lat="47.81504" lon="-2.81979">
        <ele>100</ele>
        <time>2013-08-22T15:37:55Z</time>
      </trkpt>
      <trkpt lat="47.81509" lon="-2.81967">
        <ele>101</ele>
        <time>2013-08-22T15:38:02Z</time>
      </trkpt>
      <trkpt lat="47.81511" lon="-2.81956">
        <ele>102</ele>
        <time>2013-08-22T15:38:07Z</time>
      </trkpt>
      <trkpt lat="47.81512" lon="-2.81944">
        <ele>103</ele>
        <time>2013-08-22T15:38:12Z</time>
      </trkpt>
      <trkpt lat="47.81514" lon="-2.81931">
        <ele>103</ele>
        <time>2013-08-22T15:38:19Z</time>
      </trkpt>
      <trkpt lat="47.81519" lon="-2.81919">
        <ele>104</ele>
        <time>2013-08-22T15:38:23Z</time>
      </trkpt>
      <trkpt lat="47.81524" lon="-2.8191">
        <ele>102</ele>
        <time>2013-08-22T15:38:30Z</time>
      </trkpt>
      <trkpt lat="47.81526" lon="-2.81898">
        <ele>101</ele>
        <time>2013-08-22T15:38:36Z</time>
      </trkpt>
      <trkpt lat="47.8153" lon="-2.81887">
        <ele>101</ele>
        <time>2013-08-22T15:38:41Z</time>
      </trkpt>
      <trkpt lat="47.81533" lon="-2.81875">
        <ele>101</ele>
        <time>2013-08-22T15:38:46Z</time>
      </trkpt>
      <trkpt lat="47.81536" lon="-2.81865">
        <ele>100</ele>
        <time>2013-08-22T15:38:52Z</time>
      </trkpt>
      <trkpt lat="47.81539" lon="-2.81854">
        <ele>100</ele>
        <time>2013-08-22T15:38:57Z</time>
      </trkpt>
      <trkpt lat="47.81538" lon="-2.81841">
        <ele>99</ele>
        <time>2013-08-22T15:39:02Z</time>
      </trkpt>
      <trkpt lat="47.81536" lon="-2.81829">
        <ele>99</ele>
        <time>2013-08-22T15:39:08Z</time>
      </trkpt>
      <trkpt lat="47.81533" lon="-2.81819">
        <ele>100</ele>
        <time>2013-08-22T15:39:14Z</time>
      </trkpt>
      <trkpt lat="47.8153" lon="-2.81807">
        <ele>100</ele>
        <time>2013-08-22T15:39:20Z</time>
      </trkpt>
      <trkpt lat="47.81526" lon="-2.81795">
        <ele>99</ele>
        <time>2013-08-22T15:39:24Z</time>
      </trkpt>
      <trkpt lat="47.81521" lon="-2.81784">
        <ele>99</ele>
        <time>2013-08-22T15:39:30Z</time>
      </trkpt>
      <trkpt lat="47.81519" lon="-2.81777">
        <ele>94</ele>
        <time>2013-08-22T15:40:28Z</time>
      </trkpt>
      <trkpt lat="47.81516" lon="-2.81765">
        <ele>93</ele>
        <time>2013-08-22T15:40:32Z</time>
      </trkpt>
      <trkpt lat="47.81514" lon="-2.81753">
        <ele>92</ele>
        <time>2013-08-22T15:40:41Z</time>
      </trkpt>
      <trkpt lat="47.81516" lon="-2.8174">
        <ele>92</ele>
        <time>2013-08-22T15:40:48Z</time>
      </trkpt>
      <trkpt lat="47.81521" lon="-2.8173">
        <ele>92</ele>
        <time>2013-08-22T15:40:54Z</time>
      </trkpt>
      <trkpt lat="47.81526" lon="-2.81721">
        <ele>92</ele>
        <time>2013-08-22T15:41:01Z</time>
      </trkpt>
      <trkpt lat="47.8153" lon="-2.8171">
        <ele>91</ele>
        <time>2013-08-22T15:41:06Z</time>
      </trkpt>
      <trkpt lat="47.81537" lon="-2.81703">
        <ele>90</ele>
        <time>2013-08-22T15:41:10Z</time>
      </trkpt>
      <trkpt lat="47.81542" lon="-2.81694">
        <ele>89</ele>
        <time>2013-08-22T15:41:16Z</time>
      </trkpt>
      <trkpt lat="47.81547" lon="-2.81685">
        <ele>89</ele>
        <time>2013-08-22T15:41:24Z</time>
      </trkpt>
      <trkpt lat="47.81552" lon="-2.81675">
        <ele>90</ele>
        <time>2013-08-22T15:41:29Z</time>
      </trkpt>
      <trkpt lat="47.81559" lon="-2.81668">
        <ele>90</ele>
        <time>2013-08-22T15:41:37Z</time>
      </trkpt>
      <trkpt lat="47.81567" lon="-2.81662">
        <ele>90</ele>
        <time>2013-08-22T15:41:44Z</time>
      </trkpt>
      <trkpt lat="47.81574" lon="-2.81655">
        <ele>91</ele>
        <time>2013-08-22T15:41:49Z</time>
      </trkpt>
      <trkpt lat="47.81581" lon="-2.8165">
        <ele>91</ele>
        <time>2013-08-22T15:41:56Z</time>
      </trkpt>
      <trkpt lat="47.81586" lon="-2.8164">
        <ele>91</ele>
        <time>2013-08-22T15:42:02Z</time>
      </trkpt>
      <trkpt lat="47.81593" lon="-2.81632">
        <ele>93</ele>
        <time>2013-08-22T15:42:09Z</time>
      </trkpt>
      <trkpt lat="47.81598" lon="-2.81624">
        <ele>94</ele>
        <time>2013-08-22T15:42:13Z</time>
      </trkpt>
      <trkpt lat="47.81603" lon="-2.81615">
        <ele>94</ele>
        <time>2013-08-22T15:42:18Z</time>
      </trkpt>
      <trkpt lat="47.81608" lon="-2.81606">
        <ele>94</ele>
        <time>2013-08-22T15:42:24Z</time>
      </trkpt>
      <trkpt lat="47.81614" lon="-2.81596">
        <ele>94</ele>
        <time>2013-08-22T15:42:31Z</time>
      </trkpt>
      <trkpt lat="47.8162" lon="-2.81589">
        <ele>95</ele>
        <time>2013-08-22T15:42:37Z</time>
      </trkpt>
      <trkpt lat="47.81625" lon="-2.81581">
        <ele>97</ele>
        <time>2013-08-22T15:42:42Z</time>
      </trkpt>
      <trkpt lat="47.81632" lon="-2.81574">
        <ele>98</ele>
        <time>2013-08-22T15:42:48Z</time>
      </trkpt>
      <trkpt lat="47.81638" lon="-2.81568">
        <ele>98</ele>
        <time>2013-08-22T15:42:54Z</time>
      </trkpt>
      <trkpt lat="47.81646" lon="-2.81562">
        <ele>99</ele>
        <time>2013-08-22T15:43:00Z</time>
      </trkpt>
      <trkpt lat="47.81654" lon="-2.8156">
        <ele>100</ele>
        <time>2013-08-22T15:43:06Z</time>
      </trkpt>
      <trkpt lat="47.81662" lon="-2.81555">
        <ele>99</ele>
        <time>2013-08-22T15:43:22Z</time>
      </trkpt>
      <trkpt lat="47.81669" lon="-2.81546">
        <ele>100</ele>
        <time>2013-08-22T15:43:27Z</time>
      </trkpt>
      <trkpt lat="47.81676" lon="-2.81539">
        <ele>100</ele>
        <time>2013-08-22T15:43:33Z</time>
      </trkpt>
      <trkpt lat="47.81679" lon="-2.81528">
        <ele>97</ele>
        <time>2013-08-22T15:43:53Z</time>
      </trkpt>
      <trkpt lat="47.81684" lon="-2.81519">
        <ele>99</ele>
        <time>2013-08-22T15:43:59Z</time>
      </trkpt>
      <trkpt lat="47.81687" lon="-2.81508">
        <ele>100</ele>
        <time>2013-08-22T15:44:05Z</time>
      </trkpt>
      <trkpt lat="47.81686" lon="-2.81494">
        <ele>100</ele>
        <time>2013-08-22T15:44:12Z</time>
      </trkpt>
      <trkpt lat="47.81686" lon="-2.81481">
        <ele>100</ele>
        <time>2013-08-22T15:44:17Z</time>
      </trkpt>
      <trkpt lat="47.81688" lon="-2.8147">
        <ele>101</ele>
        <time>2013-08-22T15:44:23Z</time>
      </trkpt>
      <trkpt lat="47.8169" lon="-2.81458">
        <ele>102</ele>
        <time>2013-08-22T15:44:28Z</time>
      </trkpt>
      <trkpt lat="47.81692" lon="-2.81446">
        <ele>103</ele>
        <time>2013-08-22T15:44:34Z</time>
      </trkpt>
      <trkpt lat="47.81694" lon="-2.81435">
        <ele>102</ele>
        <time>2013-08-22T15:44:40Z</time>
      </trkpt>
      <trkpt lat="47.81695" lon="-2.81423">
        <ele>101</ele>
        <time>2013-08-22T15:44:45Z</time>
      </trkpt>
      <trkpt lat="47.81697" lon="-2.8141">
        <ele>102</ele>
        <time>2013-08-22T15:44:52Z</time>
      </trkpt>
      <trkpt lat="47.81692" lon="-2.814">
        <ele>103</ele>
        <time>2013-08-22T15:44:58Z</time>
      </trkpt>
      <trkpt lat="47.81686" lon="-2.81391">
        <ele>103</ele>
        <time>2013-08-22T15:45:02Z</time>
      </trkpt>
      <trkpt lat="47.8168" lon="-2.81382">
        <ele>103</ele>
        <time>2013-08-22T15:45:08Z</time>
      </trkpt>
      <trkpt lat="47.81676" lon="-2.81372">
        <ele>103</ele>
        <time>2013-08-22T15:45:14Z</time>
      </trkpt>
      <trkpt lat="47.81672" lon="-2.81362">
        <ele>103</ele>
        <time>2013-08-22T15:45:20Z</time>
      </trkpt>
      <trkpt lat="47.81667" lon="-2.81352">
        <ele>103</ele>
        <time>2013-08-22T15:45:25Z</time>
      </trkpt>
      <trkpt lat="47.81662" lon="-2.81341">
        <ele>103</ele>
        <time>2013-08-22T15:45:31Z</time>
      </trkpt>
      <trkpt lat="47.81659" lon="-2.81329">
        <ele>101</ele>
        <time>2013-08-22T15:45:43Z</time>
      </trkpt>
      <trkpt lat="47.81653" lon="-2.81321">
        <ele>101</ele>
        <time>2013-08-22T15:46:30Z</time>
      </trkpt>
      <trkpt lat="47.81644" lon="-2.81322">
        <ele>102</ele>
        <time>2013-08-22T15:46:40Z</time>
      </trkpt>
      <trkpt lat="47.81638" lon="-2.8133">
        <ele>101</ele>
        <time>2013-08-22T15:46:45Z</time>
      </trkpt>
      <trkpt lat="47.8163" lon="-2.81335">
        <ele>101</ele>
        <time>2013-08-22T15:46:52Z</time>
      </trkpt>
      <trkpt lat="47.81634" lon="-2.81324">
        <ele>99</ele>
        <time>2013-08-22T15:47:07Z</time>
      </trkpt>
      <trkpt lat="47.8164" lon="-2.81317">
        <ele>97</ele>
        <time>2013-08-22T15:47:14Z</time>
      </trkpt>
      <trkpt lat="47.81644" lon="-2.81308">
        <ele>97</ele>
        <time>2013-08-22T15:47:18Z</time>
      </trkpt>
      <trkpt lat="47.81646" lon="-2.81302">
        <ele>97</ele>
        <time>2013-08-22T15:47:22Z</time>
      </trkpt>
      <trkpt lat="47.81654" lon="-2.81277">
        <ele>97</ele>
        <time>2013-08-22T15:47:31Z</time>
      </trkpt>
      <trkpt lat="47.8166" lon="-2.81266">
        <ele>93</ele>
        <time>2013-08-22T15:47:44Z</time>
      </trkpt>
      <trkpt lat="47.81668" lon="-2.81263">
        <ele>87</ele>
        <time>2013-08-22T15:47:52Z</time>
      </trkpt>
      <trkpt lat="47.81676" lon="-2.81266">
        <ele>77</ele>
        <time>2013-08-22T15:48:01Z</time>
      </trkpt>
      <trkpt lat="47.81684" lon="-2.81265">
        <ele>71</ele>
        <time>2013-08-22T15:48:10Z</time>
      </trkpt>
      <trkpt lat="47.81693" lon="-2.81268">
        <ele>70</ele>
        <time>2013-08-22T15:48:14Z</time>
      </trkpt>
      <trkpt lat="47.81701" lon="-2.8127">
        <ele>69</ele>
        <time>2013-08-22T15:48:22Z</time>
      </trkpt>
      <trkpt lat="47.8171" lon="-2.81271">
        <ele>68</ele>
        <time>2013-08-22T15:48:30Z</time>
      </trkpt>
      <trkpt lat="47.81717" lon="-2.81272">
        <ele>68</ele>
        <time>2013-08-22T15:48:35Z</time>
      </trkpt>
      <trkpt lat="47.81725" lon="-2.81274">
        <ele>68</ele>
        <time>2013-08-22T15:48:40Z</time>
      </trkpt>
      <trkpt lat="47.81734" lon="-2.81271">
        <ele>70</ele>
        <time>2013-08-22T15:48:47Z</time>
      </trkpt>
      <trkpt lat="47.81739" lon="-2.8126">
        <ele>70</ele>
        <time>2013-08-22T15:48:54Z</time>
      </trkpt>
      <trkpt lat="47.81746" lon="-2.81253">
        <ele>70</ele>
        <time>2013-08-22T15:49:01Z</time>
      </trkpt>
      <trkpt lat="47.81752" lon="-2.81243">
        <ele>71</ele>
        <time>2013-08-22T15:49:10Z</time>
      </trkpt>
      <trkpt lat="47.81759" lon="-2.81235">
        <ele>76</ele>
        <time>2013-08-22T15:49:23Z</time>
      </trkpt>
      <trkpt lat="47.81767" lon="-2.81234">
        <ele>81</ele>
        <time>2013-08-22T15:49:31Z</time>
      </trkpt>
      <trkpt lat="47.81768" lon="-2.81234">
        <ele>82</ele>
        <time>2013-08-22T15:49:34Z</time>
      </trkpt>
      <trkpt lat="47.81768" lon="-2.81234">
        <ele>82</ele>
        <time>2013-08-22T15:49:34Z</time>
      </trkpt>
    </trkseg>
  </trk>
</gpx>